<?xml version="1.0" encoding="UTF-8" standalone="no" ?>
<gpx xmlns="http://www.topografix.com/GPX/1/1" xmlns:xsi="http://www.w3.org/2001/XMLSchema-instance" xsi:schemaLocation="http://www.topografix.com/GPX/1/1 http://www.topografix.com/GPX/1/1/gpx.xsd" version="1.1" creator="VisuGPX - https://www.visugpx.com">
  <metadata>
    <name>Montoncel et Pierre Genish</name>
  </metadata>
  <trk>
    <name><![CDATA[GENISH5-24 16:15:15]]></name>
    <trkseg>
      <trkpt lat="45.96231" lon="3.69445">
        <ele>985.34</ele>
        <time>2020-05-24T06:51:46Z</time>
      </trkpt>
      <trkpt lat="45.96231" lon="3.69445">
        <ele>985.34</ele>
        <time>2020-05-24T06:51:47Z</time>
      </trkpt>
      <trkpt lat="45.96229" lon="3.69444">
        <ele>966.05</ele>
        <time>2020-05-24T06:51:51Z</time>
      </trkpt>
      <trkpt lat="45.96228" lon="3.69444">
        <ele>966.05</ele>
        <time>2020-05-24T06:51:52Z</time>
      </trkpt>
      <trkpt lat="45.96227" lon="3.6944">
        <ele>965.08</ele>
        <time>2020-05-24T06:52:01Z</time>
      </trkpt>
      <trkpt lat="45.96225" lon="3.69431">
        <ele>966.6</ele>
        <time>2020-05-24T06:52:08Z</time>
      </trkpt>
      <trkpt lat="45.96225" lon="3.69424">
        <ele>967.89</ele>
        <time>2020-05-24T06:52:13Z</time>
      </trkpt>
      <trkpt lat="45.96224" lon="3.69418">
        <ele>967.96</ele>
        <time>2020-05-24T06:52:16Z</time>
      </trkpt>
      <trkpt lat="45.96224" lon="3.69414">
        <ele>968.19</ele>
        <time>2020-05-24T06:52:19Z</time>
      </trkpt>
      <trkpt lat="45.96218" lon="3.69389">
        <ele>969.64</ele>
        <time>2020-05-24T06:52:33Z</time>
      </trkpt>
      <trkpt lat="45.96215" lon="3.69376">
        <ele>970.42</ele>
        <time>2020-05-24T06:52:45Z</time>
      </trkpt>
      <trkpt lat="45.96212" lon="3.69372">
        <ele>970.26</ele>
        <time>2020-05-24T06:53:08Z</time>
      </trkpt>
      <trkpt lat="45.96212" lon="3.69375">
        <ele>970.13</ele>
        <time>2020-05-24T06:53:33Z</time>
      </trkpt>
      <trkpt lat="45.96213" lon="3.69365">
        <ele>970.43</ele>
        <time>2020-05-24T06:53:55Z</time>
      </trkpt>
      <trkpt lat="45.96213" lon="3.69358">
        <ele>970.51</ele>
        <time>2020-05-24T06:54:07Z</time>
      </trkpt>
      <trkpt lat="45.96207" lon="3.69346">
        <ele>970.91</ele>
        <time>2020-05-24T06:54:16Z</time>
      </trkpt>
      <trkpt lat="45.96205" lon="3.69341">
        <ele>971.46</ele>
        <time>2020-05-24T06:54:20Z</time>
      </trkpt>
      <trkpt lat="45.96199" lon="3.69316">
        <ele>971.9</ele>
        <time>2020-05-24T06:54:37Z</time>
      </trkpt>
      <trkpt lat="45.96192" lon="3.69293">
        <ele>973.14</ele>
        <time>2020-05-24T06:54:55Z</time>
      </trkpt>
      <trkpt lat="45.9619" lon="3.69287">
        <ele>973.13</ele>
        <time>2020-05-24T06:54:59Z</time>
      </trkpt>
      <trkpt lat="45.96186" lon="3.69269">
        <ele>974.13</ele>
        <time>2020-05-24T06:55:12Z</time>
      </trkpt>
      <trkpt lat="45.96178" lon="3.69249">
        <ele>974.89</ele>
        <time>2020-05-24T06:55:30Z</time>
      </trkpt>
      <trkpt lat="45.96175" lon="3.69246">
        <ele>974.81</ele>
        <time>2020-05-24T06:55:54Z</time>
      </trkpt>
      <trkpt lat="45.96171" lon="3.69242">
        <ele>974.73</ele>
        <time>2020-05-24T06:56:10Z</time>
      </trkpt>
      <trkpt lat="45.96165" lon="3.69232">
        <ele>975.12</ele>
        <time>2020-05-24T06:56:18Z</time>
      </trkpt>
      <trkpt lat="45.9615" lon="3.69216">
        <ele>975.75</ele>
        <time>2020-05-24T06:56:32Z</time>
      </trkpt>
      <trkpt lat="45.9614" lon="3.69202">
        <ele>976.44</ele>
        <time>2020-05-24T06:56:44Z</time>
      </trkpt>
      <trkpt lat="45.96137" lon="3.69196">
        <ele>976.64</ele>
        <time>2020-05-24T06:56:48Z</time>
      </trkpt>
      <trkpt lat="45.96135" lon="3.69194">
        <ele>976.73</ele>
        <time>2020-05-24T06:56:50Z</time>
      </trkpt>
      <trkpt lat="45.96123" lon="3.69176">
        <ele>977.33</ele>
        <time>2020-05-24T06:57:03Z</time>
      </trkpt>
      <trkpt lat="45.96112" lon="3.69158">
        <ele>977.85</ele>
        <time>2020-05-24T06:57:18Z</time>
      </trkpt>
      <trkpt lat="45.96107" lon="3.69152">
        <ele>978.39</ele>
        <time>2020-05-24T06:57:24Z</time>
      </trkpt>
      <trkpt lat="45.961" lon="3.69144">
        <ele>978.41</ele>
        <time>2020-05-24T06:57:31Z</time>
      </trkpt>
      <trkpt lat="45.96092" lon="3.6913">
        <ele>978.9</ele>
        <time>2020-05-24T06:57:39Z</time>
      </trkpt>
      <trkpt lat="45.96083" lon="3.69118">
        <ele>979.22</ele>
        <time>2020-05-24T06:57:46Z</time>
      </trkpt>
      <trkpt lat="45.9608" lon="3.69114">
        <ele>979.47</ele>
        <time>2020-05-24T06:57:49Z</time>
      </trkpt>
      <trkpt lat="45.96073" lon="3.69105">
        <ele>979.9</ele>
        <time>2020-05-24T06:57:57Z</time>
      </trkpt>
      <trkpt lat="45.96067" lon="3.691">
        <ele>980.35</ele>
        <time>2020-05-24T06:58:02Z</time>
      </trkpt>
      <trkpt lat="45.96054" lon="3.69087">
        <ele>980.93</ele>
        <time>2020-05-24T06:58:16Z</time>
      </trkpt>
      <trkpt lat="45.96045" lon="3.69077">
        <ele>982.6</ele>
        <time>2020-05-24T06:58:29Z</time>
      </trkpt>
      <trkpt lat="45.96033" lon="3.69065">
        <ele>983.77</ele>
        <time>2020-05-24T06:58:42Z</time>
      </trkpt>
      <trkpt lat="45.96029" lon="3.69058">
        <ele>984.53</ele>
        <time>2020-05-24T06:58:48Z</time>
      </trkpt>
      <trkpt lat="45.96018" lon="3.69058">
        <ele>985.25</ele>
        <time>2020-05-24T06:59:06Z</time>
      </trkpt>
      <trkpt lat="45.96016" lon="3.69065">
        <ele>985.08</ele>
        <time>2020-05-24T06:59:32Z</time>
      </trkpt>
      <trkpt lat="45.9602" lon="3.69064">
        <ele>984.73</ele>
        <time>2020-05-24T07:00:00Z</time>
      </trkpt>
      <trkpt lat="45.9602" lon="3.6907">
        <ele>984.42</ele>
        <time>2020-05-24T07:00:29Z</time>
      </trkpt>
      <trkpt lat="45.96021" lon="3.69066">
        <ele>984.36</ele>
        <time>2020-05-24T07:00:37Z</time>
      </trkpt>
      <trkpt lat="45.96014" lon="3.69055">
        <ele>983.25</ele>
        <time>2020-05-24T07:00:49Z</time>
      </trkpt>
      <trkpt lat="45.9601" lon="3.6905">
        <ele>986.41</ele>
        <time>2020-05-24T07:00:55Z</time>
      </trkpt>
      <trkpt lat="45.95998" lon="3.69042">
        <ele>988.4</ele>
        <time>2020-05-24T07:01:07Z</time>
      </trkpt>
      <trkpt lat="45.95984" lon="3.69036">
        <ele>990.03</ele>
        <time>2020-05-24T07:01:16Z</time>
      </trkpt>
      <trkpt lat="45.9598" lon="3.69026">
        <ele>990.8</ele>
        <time>2020-05-24T07:01:21Z</time>
      </trkpt>
      <trkpt lat="45.9598" lon="3.69014">
        <ele>991.58</ele>
        <time>2020-05-24T07:01:28Z</time>
      </trkpt>
      <trkpt lat="45.9598" lon="3.69009">
        <ele>991.94</ele>
        <time>2020-05-24T07:01:31Z</time>
      </trkpt>
      <trkpt lat="45.9598" lon="3.68996">
        <ele>992.9</ele>
        <time>2020-05-24T07:01:39Z</time>
      </trkpt>
      <trkpt lat="45.95983" lon="3.68978">
        <ele>993.88</ele>
        <time>2020-05-24T07:01:55Z</time>
      </trkpt>
      <trkpt lat="45.95982" lon="3.68968">
        <ele>994.69</ele>
        <time>2020-05-24T07:02:02Z</time>
      </trkpt>
      <trkpt lat="45.95981" lon="3.68964">
        <ele>995.5</ele>
        <time>2020-05-24T07:02:05Z</time>
      </trkpt>
      <trkpt lat="45.95978" lon="3.68942">
        <ele>997.97</ele>
        <time>2020-05-24T07:02:23Z</time>
      </trkpt>
      <trkpt lat="45.95969" lon="3.68919">
        <ele>1000.65</ele>
        <time>2020-05-24T07:02:42Z</time>
      </trkpt>
      <trkpt lat="45.95954" lon="3.68907">
        <ele>1003.25</ele>
        <time>2020-05-24T07:03:02Z</time>
      </trkpt>
      <trkpt lat="45.95952" lon="3.68906">
        <ele>1003.54</ele>
        <time>2020-05-24T07:03:04Z</time>
      </trkpt>
      <trkpt lat="45.95939" lon="3.689">
        <ele>1005.43</ele>
        <time>2020-05-24T07:03:20Z</time>
      </trkpt>
      <trkpt lat="45.95917" lon="3.68887">
        <ele>1007.77</ele>
        <time>2020-05-24T07:03:37Z</time>
      </trkpt>
      <trkpt lat="45.95914" lon="3.68886">
        <ele>1007.87</ele>
        <time>2020-05-24T07:03:39Z</time>
      </trkpt>
      <trkpt lat="45.95892" lon="3.68869">
        <ele>1010.81</ele>
        <time>2020-05-24T07:04:01Z</time>
      </trkpt>
      <trkpt lat="45.95884" lon="3.68848">
        <ele>1012.49</ele>
        <time>2020-05-24T07:04:22Z</time>
      </trkpt>
      <trkpt lat="45.9588" lon="3.68839">
        <ele>1013.58</ele>
        <time>2020-05-24T07:04:28Z</time>
      </trkpt>
      <trkpt lat="45.95876" lon="3.68826">
        <ele>1014.22</ele>
        <time>2020-05-24T07:04:35Z</time>
      </trkpt>
      <trkpt lat="45.95864" lon="3.68808">
        <ele>1015.69</ele>
        <time>2020-05-24T07:04:49Z</time>
      </trkpt>
      <trkpt lat="45.95856" lon="3.68795">
        <ele>1017.34</ele>
        <time>2020-05-24T07:05:02Z</time>
      </trkpt>
      <trkpt lat="45.95842" lon="3.6878">
        <ele>1019.33</ele>
        <time>2020-05-24T07:05:14Z</time>
      </trkpt>
      <trkpt lat="45.95839" lon="3.68774">
        <ele>1019.75</ele>
        <time>2020-05-24T07:05:19Z</time>
      </trkpt>
      <trkpt lat="45.95828" lon="3.68761">
        <ele>1021.32</ele>
        <time>2020-05-24T07:05:31Z</time>
      </trkpt>
      <trkpt lat="45.95823" lon="3.68755">
        <ele>1021.93</ele>
        <time>2020-05-24T07:05:35Z</time>
      </trkpt>
      <trkpt lat="45.95819" lon="3.68742">
        <ele>1022.87</ele>
        <time>2020-05-24T07:05:49Z</time>
      </trkpt>
      <trkpt lat="45.95819" lon="3.6874">
        <ele>1023.05</ele>
        <time>2020-05-24T07:05:51Z</time>
      </trkpt>
      <trkpt lat="45.95816" lon="3.68722">
        <ele>1024.06</ele>
        <time>2020-05-24T07:06:06Z</time>
      </trkpt>
      <trkpt lat="45.95807" lon="3.68699">
        <ele>1025.31</ele>
        <time>2020-05-24T07:06:23Z</time>
      </trkpt>
      <trkpt lat="45.95805" lon="3.68693">
        <ele>1025.75</ele>
        <time>2020-05-24T07:06:26Z</time>
      </trkpt>
      <trkpt lat="45.95798" lon="3.68679">
        <ele>1026.5</ele>
        <time>2020-05-24T07:06:35Z</time>
      </trkpt>
      <trkpt lat="45.95792" lon="3.68668">
        <ele>1027.31</ele>
        <time>2020-05-24T07:06:43Z</time>
      </trkpt>
      <trkpt lat="45.95787" lon="3.68653">
        <ele>1027.86</ele>
        <time>2020-05-24T07:06:52Z</time>
      </trkpt>
      <trkpt lat="45.9578" lon="3.68639">
        <ele>1028.64</ele>
        <time>2020-05-24T07:07:01Z</time>
      </trkpt>
      <trkpt lat="45.95775" lon="3.68629">
        <ele>1029.28</ele>
        <time>2020-05-24T07:07:08Z</time>
      </trkpt>
      <trkpt lat="45.95771" lon="3.68615">
        <ele>1030.31</ele>
        <time>2020-05-24T07:07:15Z</time>
      </trkpt>
      <trkpt lat="45.95767" lon="3.68606">
        <ele>1030.94</ele>
        <time>2020-05-24T07:07:21Z</time>
      </trkpt>
      <trkpt lat="45.95762" lon="3.68595">
        <ele>1031.88</ele>
        <time>2020-05-24T07:07:29Z</time>
      </trkpt>
      <trkpt lat="45.95759" lon="3.68588">
        <ele>1032.61</ele>
        <time>2020-05-24T07:07:33Z</time>
      </trkpt>
      <trkpt lat="45.95748" lon="3.68569">
        <ele>1035.43</ele>
        <time>2020-05-24T07:07:48Z</time>
      </trkpt>
      <trkpt lat="45.95736" lon="3.6856">
        <ele>1036.45</ele>
        <time>2020-05-24T07:08:00Z</time>
      </trkpt>
      <trkpt lat="45.9573" lon="3.68558">
        <ele>1037</ele>
        <time>2020-05-24T07:08:08Z</time>
      </trkpt>
      <trkpt lat="45.95723" lon="3.68559">
        <ele>1037.93</ele>
        <time>2020-05-24T07:08:21Z</time>
      </trkpt>
      <trkpt lat="45.9572" lon="3.68561">
        <ele>1037.86</ele>
        <time>2020-05-24T07:08:51Z</time>
      </trkpt>
      <trkpt lat="45.95721" lon="3.68558">
        <ele>1037.69</ele>
        <time>2020-05-24T07:09:23Z</time>
      </trkpt>
      <trkpt lat="45.95716" lon="3.68567">
        <ele>1038.91</ele>
        <time>2020-05-24T07:09:52Z</time>
      </trkpt>
      <trkpt lat="45.95702" lon="3.68576">
        <ele>1040.82</ele>
        <time>2020-05-24T07:10:07Z</time>
      </trkpt>
      <trkpt lat="45.95678" lon="3.68582">
        <ele>1041.86</ele>
        <time>2020-05-24T07:10:23Z</time>
      </trkpt>
      <trkpt lat="45.9559" lon="3.68607">
        <ele>1044.96</ele>
        <time>2020-05-24T07:12:48Z</time>
      </trkpt>
      <trkpt lat="45.9559" lon="3.68597">
        <ele>1047.41</ele>
        <time>2020-05-24T07:12:56Z</time>
      </trkpt>
      <trkpt lat="45.95588" lon="3.68593">
        <ele>1049.38</ele>
        <time>2020-05-24T07:13:00Z</time>
      </trkpt>
      <trkpt lat="45.9559" lon="3.68588">
        <ele>1052.99</ele>
        <time>2020-05-24T07:13:08Z</time>
      </trkpt>
      <trkpt lat="45.9559" lon="3.68585">
        <ele>1055.06</ele>
        <time>2020-05-24T07:13:11Z</time>
      </trkpt>
      <trkpt lat="45.95578" lon="3.6858">
        <ele>1058.06</ele>
        <time>2020-05-24T07:13:24Z</time>
      </trkpt>
      <trkpt lat="45.9556" lon="3.68575">
        <ele>1058.46</ele>
        <time>2020-05-24T07:13:38Z</time>
      </trkpt>
      <trkpt lat="45.95556" lon="3.68575">
        <ele>1059.87</ele>
        <time>2020-05-24T07:13:42Z</time>
      </trkpt>
      <trkpt lat="45.95537" lon="3.68574">
        <ele>1061.91</ele>
        <time>2020-05-24T07:13:58Z</time>
      </trkpt>
      <trkpt lat="45.95528" lon="3.68573">
        <ele>1062.83</ele>
        <time>2020-05-24T07:14:10Z</time>
      </trkpt>
      <trkpt lat="45.9552" lon="3.68568">
        <ele>1065.99</ele>
        <time>2020-05-24T07:14:26Z</time>
      </trkpt>
      <trkpt lat="45.95521" lon="3.68552">
        <ele>1069.07</ele>
        <time>2020-05-24T07:14:47Z</time>
      </trkpt>
      <trkpt lat="45.95521" lon="3.68547">
        <ele>1068.06</ele>
        <time>2020-05-24T07:14:53Z</time>
      </trkpt>
      <trkpt lat="45.9552" lon="3.68544">
        <ele>1070.86</ele>
        <time>2020-05-24T07:14:59Z</time>
      </trkpt>
      <trkpt lat="45.95472" lon="3.68546">
        <ele>1073.73</ele>
        <time>2020-05-24T07:15:18Z</time>
      </trkpt>
      <trkpt lat="45.95459" lon="3.68529">
        <ele>1077.03</ele>
        <time>2020-05-24T07:15:42Z</time>
      </trkpt>
      <trkpt lat="45.95443" lon="3.68503">
        <ele>1080.11</ele>
        <time>2020-05-24T07:16:09Z</time>
      </trkpt>
      <trkpt lat="45.95443" lon="3.68479">
        <ele>1083.39</ele>
        <time>2020-05-24T07:16:34Z</time>
      </trkpt>
      <trkpt lat="45.95439" lon="3.6846">
        <ele>1086.42</ele>
        <time>2020-05-24T07:16:59Z</time>
      </trkpt>
      <trkpt lat="45.95396" lon="3.68437">
        <ele>1088.64</ele>
        <time>2020-05-24T07:17:17Z</time>
      </trkpt>
      <trkpt lat="45.95395" lon="3.68417">
        <ele>1091.05</ele>
        <time>2020-05-24T07:17:44Z</time>
      </trkpt>
      <trkpt lat="45.95395" lon="3.68412">
        <ele>1091.62</ele>
        <time>2020-05-24T07:17:48Z</time>
      </trkpt>
      <trkpt lat="45.95395" lon="3.68378">
        <ele>1094.71</ele>
        <time>2020-05-24T07:18:19Z</time>
      </trkpt>
      <trkpt lat="45.95365" lon="3.68367">
        <ele>1096.84</ele>
        <time>2020-05-24T07:18:39Z</time>
      </trkpt>
      <trkpt lat="45.95374" lon="3.68331">
        <ele>1098.51</ele>
        <time>2020-05-24T07:18:54Z</time>
      </trkpt>
      <trkpt lat="45.95374" lon="3.68329">
        <ele>1098.56</ele>
        <time>2020-05-24T07:18:55Z</time>
      </trkpt>
      <trkpt lat="45.95375" lon="3.68304">
        <ele>1099.69</ele>
        <time>2020-05-24T07:19:12Z</time>
      </trkpt>
      <trkpt lat="45.95374" lon="3.68278">
        <ele>1101.18</ele>
        <time>2020-05-24T07:19:31Z</time>
      </trkpt>
      <trkpt lat="45.95373" lon="3.68265">
        <ele>1102.47</ele>
        <time>2020-05-24T07:19:39Z</time>
      </trkpt>
      <trkpt lat="45.95391" lon="3.68247">
        <ele>1102.09</ele>
        <time>2020-05-24T07:19:51Z</time>
      </trkpt>
      <trkpt lat="45.95388" lon="3.68243">
        <ele>1104.17</ele>
        <time>2020-05-24T07:19:55Z</time>
      </trkpt>
      <trkpt lat="45.95391" lon="3.68223">
        <ele>1106.6</ele>
        <time>2020-05-24T07:20:10Z</time>
      </trkpt>
      <trkpt lat="45.95397" lon="3.68211">
        <ele>1108.56</ele>
        <time>2020-05-24T07:20:23Z</time>
      </trkpt>
      <trkpt lat="45.95405" lon="3.68196">
        <ele>1110.54</ele>
        <time>2020-05-24T07:20:39Z</time>
      </trkpt>
      <trkpt lat="45.95412" lon="3.68195">
        <ele>1111.72</ele>
        <time>2020-05-24T07:21:03Z</time>
      </trkpt>
      <trkpt lat="45.95422" lon="3.68184">
        <ele>1113.7</ele>
        <time>2020-05-24T07:21:21Z</time>
      </trkpt>
      <trkpt lat="45.95432" lon="3.68185">
        <ele>1115.41</ele>
        <time>2020-05-24T07:21:37Z</time>
      </trkpt>
      <trkpt lat="45.95442" lon="3.68184">
        <ele>1116.76</ele>
        <time>2020-05-24T07:22:03Z</time>
      </trkpt>
      <trkpt lat="45.95452" lon="3.68184">
        <ele>1117.55</ele>
        <time>2020-05-24T07:22:26Z</time>
      </trkpt>
      <trkpt lat="45.95464" lon="3.6818">
        <ele>1118.89</ele>
        <time>2020-05-24T07:22:46Z</time>
      </trkpt>
      <trkpt lat="45.95475" lon="3.68175">
        <ele>1119.89</ele>
        <time>2020-05-24T07:22:59Z</time>
      </trkpt>
      <trkpt lat="45.9548" lon="3.68173">
        <ele>1120.22</ele>
        <time>2020-05-24T07:23:03Z</time>
      </trkpt>
      <trkpt lat="45.95493" lon="3.68173">
        <ele>1120.42</ele>
        <time>2020-05-24T07:23:15Z</time>
      </trkpt>
      <trkpt lat="45.95497" lon="3.68172">
        <ele>1120.81</ele>
        <time>2020-05-24T07:23:19Z</time>
      </trkpt>
      <trkpt lat="45.9551" lon="3.68167">
        <ele>1121.78</ele>
        <time>2020-05-24T07:23:31Z</time>
      </trkpt>
      <trkpt lat="45.9552" lon="3.68161">
        <ele>1122.86</ele>
        <time>2020-05-24T07:23:41Z</time>
      </trkpt>
      <trkpt lat="45.95531" lon="3.68157">
        <ele>1123.82</ele>
        <time>2020-05-24T07:23:53Z</time>
      </trkpt>
      <trkpt lat="45.95545" lon="3.68154">
        <ele>1124.53</ele>
        <time>2020-05-24T07:24:11Z</time>
      </trkpt>
      <trkpt lat="45.95553" lon="3.68149">
        <ele>1125.12</ele>
        <time>2020-05-24T07:24:27Z</time>
      </trkpt>
      <trkpt lat="45.95555" lon="3.68146">
        <ele>1124.89</ele>
        <time>2020-05-24T07:24:55Z</time>
      </trkpt>
      <trkpt lat="45.95554" lon="3.68148">
        <ele>1124.81</ele>
        <time>2020-05-24T07:25:21Z</time>
      </trkpt>
      <trkpt lat="45.95555" lon="3.68148">
        <ele>1124.55</ele>
        <time>2020-05-24T07:25:47Z</time>
      </trkpt>
      <trkpt lat="45.95555" lon="3.68146">
        <ele>1124.48</ele>
        <time>2020-05-24T07:26:16Z</time>
      </trkpt>
      <trkpt lat="45.95555" lon="3.68145">
        <ele>1122.99</ele>
        <time>2020-05-24T07:26:24Z</time>
      </trkpt>
      <trkpt lat="45.95556" lon="3.68144">
        <ele>1126.06</ele>
        <time>2020-05-24T07:26:25Z</time>
      </trkpt>
      <trkpt lat="45.95556" lon="3.68144">
        <ele>1125.44</ele>
        <time>2020-05-24T07:26:26Z</time>
      </trkpt>
      <trkpt lat="45.95556" lon="3.68144">
        <ele>1124.52</ele>
        <time>2020-05-24T07:26:28Z</time>
      </trkpt>
      <trkpt lat="45.95566" lon="3.68139">
        <ele>1124.08</ele>
        <time>2020-05-24T07:27:08Z</time>
      </trkpt>
      <trkpt lat="45.9557" lon="3.68139">
        <ele>1124.66</ele>
        <time>2020-05-24T07:27:23Z</time>
      </trkpt>
      <trkpt lat="45.9557" lon="3.68139">
        <ele>1124.6</ele>
        <time>2020-05-24T07:27:28Z</time>
      </trkpt>
      <trkpt lat="45.95577" lon="3.68141">
        <ele>1124.38</ele>
        <time>2020-05-24T07:27:41Z</time>
      </trkpt>
      <trkpt lat="45.95574" lon="3.68141">
        <ele>1124.07</ele>
        <time>2020-05-24T07:31:45Z</time>
      </trkpt>
      <trkpt lat="45.95573" lon="3.6814">
        <ele>1124.37</ele>
        <time>2020-05-24T07:31:46Z</time>
      </trkpt>
      <trkpt lat="45.95571" lon="3.6813">
        <ele>1126.48</ele>
        <time>2020-05-24T07:31:58Z</time>
      </trkpt>
      <trkpt lat="45.95571" lon="3.68123">
        <ele>1126.95</ele>
        <time>2020-05-24T07:32:03Z</time>
      </trkpt>
      <trkpt lat="45.95568" lon="3.68107">
        <ele>1128.54</ele>
        <time>2020-05-24T07:32:19Z</time>
      </trkpt>
      <trkpt lat="45.95573" lon="3.68084">
        <ele>1130.59</ele>
        <time>2020-05-24T07:32:37Z</time>
      </trkpt>
      <trkpt lat="45.95581" lon="3.68068">
        <ele>1131.93</ele>
        <time>2020-05-24T07:32:55Z</time>
      </trkpt>
      <trkpt lat="45.95589" lon="3.68057">
        <ele>1132.79</ele>
        <time>2020-05-24T07:33:06Z</time>
      </trkpt>
      <trkpt lat="45.95591" lon="3.68054">
        <ele>1132.91</ele>
        <time>2020-05-24T07:33:08Z</time>
      </trkpt>
      <trkpt lat="45.95591" lon="3.68052">
        <ele>1132.93</ele>
        <time>2020-05-24T07:33:09Z</time>
      </trkpt>
      <trkpt lat="45.95593" lon="3.68049">
        <ele>1133.06</ele>
        <time>2020-05-24T07:33:11Z</time>
      </trkpt>
      <trkpt lat="45.95599" lon="3.68037">
        <ele>1134.09</ele>
        <time>2020-05-24T07:33:21Z</time>
      </trkpt>
      <trkpt lat="45.95609" lon="3.68013">
        <ele>1137.28</ele>
        <time>2020-05-24T07:33:42Z</time>
      </trkpt>
      <trkpt lat="45.95621" lon="3.67987">
        <ele>1139.31</ele>
        <time>2020-05-24T07:34:02Z</time>
      </trkpt>
      <trkpt lat="45.95627" lon="3.67978">
        <ele>1140.45</ele>
        <time>2020-05-24T07:34:09Z</time>
      </trkpt>
      <trkpt lat="45.95633" lon="3.67963">
        <ele>1142.12</ele>
        <time>2020-05-24T07:34:24Z</time>
      </trkpt>
      <trkpt lat="45.95637" lon="3.67945">
        <ele>1144.54</ele>
        <time>2020-05-24T07:34:42Z</time>
      </trkpt>
      <trkpt lat="45.95644" lon="3.67926">
        <ele>1145.94</ele>
        <time>2020-05-24T07:34:57Z</time>
      </trkpt>
      <trkpt lat="45.95648" lon="3.67907">
        <ele>1148.98</ele>
        <time>2020-05-24T07:35:14Z</time>
      </trkpt>
      <trkpt lat="45.95653" lon="3.67879">
        <ele>1151.71</ele>
        <time>2020-05-24T07:35:33Z</time>
      </trkpt>
      <trkpt lat="45.95657" lon="3.67854">
        <ele>1153.89</ele>
        <time>2020-05-24T07:35:53Z</time>
      </trkpt>
      <trkpt lat="45.95661" lon="3.67821">
        <ele>1155.95</ele>
        <time>2020-05-24T07:36:13Z</time>
      </trkpt>
      <trkpt lat="45.95659" lon="3.67797">
        <ele>1158.53</ele>
        <time>2020-05-24T07:36:32Z</time>
      </trkpt>
      <trkpt lat="45.95657" lon="3.67791">
        <ele>1160.13</ele>
        <time>2020-05-24T07:36:39Z</time>
      </trkpt>
      <trkpt lat="45.95657" lon="3.67791">
        <ele>1160.12</ele>
        <time>2020-05-24T07:36:40Z</time>
      </trkpt>
      <trkpt lat="45.9565" lon="3.67792">
        <ele>1158.08</ele>
        <time>2020-05-24T07:36:50Z</time>
      </trkpt>
      <trkpt lat="45.95652" lon="3.67778">
        <ele>1159.58</ele>
        <time>2020-05-24T07:37:15Z</time>
      </trkpt>
      <trkpt lat="45.95652" lon="3.67768">
        <ele>1159.99</ele>
        <time>2020-05-24T07:37:20Z</time>
      </trkpt>
      <trkpt lat="45.95651" lon="3.67767">
        <ele>1160.03</ele>
        <time>2020-05-24T07:37:21Z</time>
      </trkpt>
      <trkpt lat="45.95646" lon="3.67745">
        <ele>1160.96</ele>
        <time>2020-05-24T07:37:34Z</time>
      </trkpt>
      <trkpt lat="45.95642" lon="3.67733">
        <ele>1161.87</ele>
        <time>2020-05-24T07:37:47Z</time>
      </trkpt>
      <trkpt lat="45.95638" lon="3.67727">
        <ele>1161.69</ele>
        <time>2020-05-24T07:38:08Z</time>
      </trkpt>
      <trkpt lat="45.95635" lon="3.67726">
        <ele>1161.59</ele>
        <time>2020-05-24T07:38:36Z</time>
      </trkpt>
      <trkpt lat="45.95634" lon="3.67726">
        <ele>1163.26</ele>
        <time>2020-05-24T07:39:00Z</time>
      </trkpt>
      <trkpt lat="45.95634" lon="3.67726">
        <ele>1162.38</ele>
        <time>2020-05-24T07:39:02Z</time>
      </trkpt>
      <trkpt lat="45.95645" lon="3.67726">
        <ele>1161.51</ele>
        <time>2020-05-24T07:39:15Z</time>
      </trkpt>
      <trkpt lat="45.95648" lon="3.67725">
        <ele>1161.62</ele>
        <time>2020-05-24T07:39:46Z</time>
      </trkpt>
      <trkpt lat="45.95646" lon="3.67722">
        <ele>1161.43</ele>
        <time>2020-05-24T07:39:53Z</time>
      </trkpt>
      <trkpt lat="45.9564" lon="3.67723">
        <ele>1161.83</ele>
        <time>2020-05-24T07:40:07Z</time>
      </trkpt>
      <trkpt lat="45.95638" lon="3.67726">
        <ele>1161.83</ele>
        <time>2020-05-24T07:40:09Z</time>
      </trkpt>
      <trkpt lat="45.95628" lon="3.67738">
        <ele>1161.31</ele>
        <time>2020-05-24T07:40:22Z</time>
      </trkpt>
      <trkpt lat="45.95628" lon="3.67738">
        <ele>1161.3</ele>
        <time>2020-05-24T07:40:23Z</time>
      </trkpt>
      <trkpt lat="45.95627" lon="3.67738">
        <ele>1162.59</ele>
        <time>2020-05-24T07:40:26Z</time>
      </trkpt>
      <trkpt lat="45.95626" lon="3.67738">
        <ele>1165.95</ele>
        <time>2020-05-24T07:40:27Z</time>
      </trkpt>
      <trkpt lat="45.95625" lon="3.67738">
        <ele>1164.09</ele>
        <time>2020-05-24T07:40:30Z</time>
      </trkpt>
      <trkpt lat="45.9562" lon="3.67742">
        <ele>1165.01</ele>
        <time>2020-05-24T07:40:38Z</time>
      </trkpt>
      <trkpt lat="45.95619" lon="3.67743">
        <ele>1163.17</ele>
        <time>2020-05-24T07:40:40Z</time>
      </trkpt>
      <trkpt lat="45.95601" lon="3.67752">
        <ele>1164.73</ele>
        <time>2020-05-24T07:41:00Z</time>
      </trkpt>
      <trkpt lat="45.956" lon="3.67752">
        <ele>1164.74</ele>
        <time>2020-05-24T07:41:01Z</time>
      </trkpt>
      <trkpt lat="45.95587" lon="3.67761">
        <ele>1165.8</ele>
        <time>2020-05-24T07:41:16Z</time>
      </trkpt>
      <trkpt lat="45.95582" lon="3.67764">
        <ele>1166.03</ele>
        <time>2020-05-24T07:41:19Z</time>
      </trkpt>
      <trkpt lat="45.95573" lon="3.67766">
        <ele>1166.3</ele>
        <time>2020-05-24T07:41:25Z</time>
      </trkpt>
      <trkpt lat="45.95571" lon="3.67768">
        <ele>1166.63</ele>
        <time>2020-05-24T07:41:27Z</time>
      </trkpt>
      <trkpt lat="45.9557" lon="3.67768">
        <ele>1166.68</ele>
        <time>2020-05-24T07:41:28Z</time>
      </trkpt>
      <trkpt lat="45.95568" lon="3.67769">
        <ele>1166.83</ele>
        <time>2020-05-24T07:41:29Z</time>
      </trkpt>
      <trkpt lat="45.95553" lon="3.67778">
        <ele>1167.59</ele>
        <time>2020-05-24T07:41:42Z</time>
      </trkpt>
      <trkpt lat="45.9555" lon="3.6778">
        <ele>1167.68</ele>
        <time>2020-05-24T07:41:44Z</time>
      </trkpt>
      <trkpt lat="45.95544" lon="3.67783">
        <ele>1168</ele>
        <time>2020-05-24T07:41:49Z</time>
      </trkpt>
      <trkpt lat="45.95543" lon="3.67784">
        <ele>1168.06</ele>
        <time>2020-05-24T07:41:50Z</time>
      </trkpt>
      <trkpt lat="45.95541" lon="3.67786">
        <ele>1168.21</ele>
        <time>2020-05-24T07:41:52Z</time>
      </trkpt>
      <trkpt lat="45.95538" lon="3.67788">
        <ele>1168.33</ele>
        <time>2020-05-24T07:41:55Z</time>
      </trkpt>
      <trkpt lat="45.95537" lon="3.67789">
        <ele>1168.29</ele>
        <time>2020-05-24T07:41:56Z</time>
      </trkpt>
      <trkpt lat="45.95536" lon="3.6779">
        <ele>1168.21</ele>
        <time>2020-05-24T07:41:57Z</time>
      </trkpt>
      <trkpt lat="45.9553" lon="3.67794">
        <ele>1168.5</ele>
        <time>2020-05-24T07:42:08Z</time>
      </trkpt>
      <trkpt lat="45.95526" lon="3.67799">
        <ele>1168.76</ele>
        <time>2020-05-24T07:42:13Z</time>
      </trkpt>
      <trkpt lat="45.95524" lon="3.678">
        <ele>1168.73</ele>
        <time>2020-05-24T07:42:14Z</time>
      </trkpt>
      <trkpt lat="45.95513" lon="3.67815">
        <ele>1168.62</ele>
        <time>2020-05-24T07:42:27Z</time>
      </trkpt>
      <trkpt lat="45.95499" lon="3.67828">
        <ele>1168.68</ele>
        <time>2020-05-24T07:42:42Z</time>
      </trkpt>
      <trkpt lat="45.95485" lon="3.67836">
        <ele>1168.88</ele>
        <time>2020-05-24T07:42:55Z</time>
      </trkpt>
      <trkpt lat="45.95474" lon="3.67842">
        <ele>1169.34</ele>
        <time>2020-05-24T07:43:06Z</time>
      </trkpt>
      <trkpt lat="45.95451" lon="3.6785">
        <ele>1170.28</ele>
        <time>2020-05-24T07:43:25Z</time>
      </trkpt>
      <trkpt lat="45.95448" lon="3.67851">
        <ele>1170.34</ele>
        <time>2020-05-24T07:43:27Z</time>
      </trkpt>
      <trkpt lat="45.95446" lon="3.6785">
        <ele>1170.36</ele>
        <time>2020-05-24T07:43:28Z</time>
      </trkpt>
      <trkpt lat="45.95444" lon="3.6785">
        <ele>1170.35</ele>
        <time>2020-05-24T07:43:29Z</time>
      </trkpt>
      <trkpt lat="45.95443" lon="3.67851">
        <ele>1170.41</ele>
        <time>2020-05-24T07:43:30Z</time>
      </trkpt>
      <trkpt lat="45.95442" lon="3.6785">
        <ele>1170.42</ele>
        <time>2020-05-24T07:43:31Z</time>
      </trkpt>
      <trkpt lat="45.95433" lon="3.6785">
        <ele>1170.61</ele>
        <time>2020-05-24T07:43:39Z</time>
      </trkpt>
      <trkpt lat="45.95432" lon="3.67851">
        <ele>1170.4</ele>
        <time>2020-05-24T07:43:40Z</time>
      </trkpt>
      <trkpt lat="45.95428" lon="3.67852">
        <ele>1170.5</ele>
        <time>2020-05-24T07:43:44Z</time>
      </trkpt>
      <trkpt lat="45.95411" lon="3.6786">
        <ele>1170.51</ele>
        <time>2020-05-24T07:43:57Z</time>
      </trkpt>
      <trkpt lat="45.954" lon="3.67865">
        <ele>1170.77</ele>
        <time>2020-05-24T07:44:04Z</time>
      </trkpt>
      <trkpt lat="45.95399" lon="3.67865">
        <ele>1170.79</ele>
        <time>2020-05-24T07:44:05Z</time>
      </trkpt>
      <trkpt lat="45.95382" lon="3.67872">
        <ele>1170.42</ele>
        <time>2020-05-24T07:44:20Z</time>
      </trkpt>
      <trkpt lat="45.95377" lon="3.67874">
        <ele>1170.52</ele>
        <time>2020-05-24T07:44:23Z</time>
      </trkpt>
      <trkpt lat="45.95368" lon="3.67879">
        <ele>1170.46</ele>
        <time>2020-05-24T07:44:30Z</time>
      </trkpt>
      <trkpt lat="45.95353" lon="3.67888">
        <ele>1170.73</ele>
        <time>2020-05-24T07:44:41Z</time>
      </trkpt>
      <trkpt lat="45.95351" lon="3.67888">
        <ele>1170.79</ele>
        <time>2020-05-24T07:44:42Z</time>
      </trkpt>
      <trkpt lat="45.9534" lon="3.67894">
        <ele>1171.01</ele>
        <time>2020-05-24T07:44:51Z</time>
      </trkpt>
      <trkpt lat="45.95337" lon="3.67895">
        <ele>1170.98</ele>
        <time>2020-05-24T07:44:53Z</time>
      </trkpt>
      <trkpt lat="45.95335" lon="3.67895">
        <ele>1170.85</ele>
        <time>2020-05-24T07:44:54Z</time>
      </trkpt>
      <trkpt lat="45.9532" lon="3.67904">
        <ele>1171.13</ele>
        <time>2020-05-24T07:45:06Z</time>
      </trkpt>
      <trkpt lat="45.95313" lon="3.67915">
        <ele>1171</ele>
        <time>2020-05-24T07:45:26Z</time>
      </trkpt>
      <trkpt lat="45.95312" lon="3.67917">
        <ele>1170.89</ele>
        <time>2020-05-24T07:45:27Z</time>
      </trkpt>
      <trkpt lat="45.95312" lon="3.67919">
        <ele>1170.76</ele>
        <time>2020-05-24T07:45:28Z</time>
      </trkpt>
      <trkpt lat="45.95311" lon="3.67921">
        <ele>1170.81</ele>
        <time>2020-05-24T07:45:29Z</time>
      </trkpt>
      <trkpt lat="45.9531" lon="3.67922">
        <ele>1170.82</ele>
        <time>2020-05-24T07:45:30Z</time>
      </trkpt>
      <trkpt lat="45.95308" lon="3.67924">
        <ele>1170.83</ele>
        <time>2020-05-24T07:45:31Z</time>
      </trkpt>
      <trkpt lat="45.95307" lon="3.67925">
        <ele>1170.9</ele>
        <time>2020-05-24T07:45:32Z</time>
      </trkpt>
      <trkpt lat="45.95296" lon="3.67941">
        <ele>1171.16</ele>
        <time>2020-05-24T07:45:45Z</time>
      </trkpt>
      <trkpt lat="45.95295" lon="3.67945">
        <ele>1171.01</ele>
        <time>2020-05-24T07:45:47Z</time>
      </trkpt>
      <trkpt lat="45.95286" lon="3.6796">
        <ele>1170.7</ele>
        <time>2020-05-24T07:45:57Z</time>
      </trkpt>
      <trkpt lat="45.95284" lon="3.67962">
        <ele>1170.77</ele>
        <time>2020-05-24T07:45:58Z</time>
      </trkpt>
      <trkpt lat="45.95283" lon="3.67963">
        <ele>1170.8</ele>
        <time>2020-05-24T07:45:59Z</time>
      </trkpt>
      <trkpt lat="45.95282" lon="3.67965">
        <ele>1170.73</ele>
        <time>2020-05-24T07:46:00Z</time>
      </trkpt>
      <trkpt lat="45.95281" lon="3.67967">
        <ele>1170.57</ele>
        <time>2020-05-24T07:46:01Z</time>
      </trkpt>
      <trkpt lat="45.9528" lon="3.67968">
        <ele>1170.7</ele>
        <time>2020-05-24T07:46:02Z</time>
      </trkpt>
      <trkpt lat="45.95279" lon="3.6797">
        <ele>1170.64</ele>
        <time>2020-05-24T07:46:03Z</time>
      </trkpt>
      <trkpt lat="45.95278" lon="3.67972">
        <ele>1170.48</ele>
        <time>2020-05-24T07:46:04Z</time>
      </trkpt>
      <trkpt lat="45.95277" lon="3.67974">
        <ele>1170.48</ele>
        <time>2020-05-24T07:46:05Z</time>
      </trkpt>
      <trkpt lat="45.95265" lon="3.67996">
        <ele>1169.89</ele>
        <time>2020-05-24T07:46:21Z</time>
      </trkpt>
      <trkpt lat="45.95261" lon="3.67999">
        <ele>1169.83</ele>
        <time>2020-05-24T07:46:24Z</time>
      </trkpt>
      <trkpt lat="45.95261" lon="3.68001">
        <ele>1169.83</ele>
        <time>2020-05-24T07:46:25Z</time>
      </trkpt>
      <trkpt lat="45.9526" lon="3.68003">
        <ele>1169.87</ele>
        <time>2020-05-24T07:46:26Z</time>
      </trkpt>
      <trkpt lat="45.95255" lon="3.68008">
        <ele>1169.85</ele>
        <time>2020-05-24T07:46:30Z</time>
      </trkpt>
      <trkpt lat="45.95251" lon="3.68014">
        <ele>1170.01</ele>
        <time>2020-05-24T07:46:34Z</time>
      </trkpt>
      <trkpt lat="45.95248" lon="3.68014">
        <ele>1169.74</ele>
        <time>2020-05-24T07:46:35Z</time>
      </trkpt>
      <trkpt lat="45.95242" lon="3.68025">
        <ele>1169.72</ele>
        <time>2020-05-24T07:46:42Z</time>
      </trkpt>
      <trkpt lat="45.9523" lon="3.68041">
        <ele>1169.69</ele>
        <time>2020-05-24T07:46:55Z</time>
      </trkpt>
      <trkpt lat="45.95228" lon="3.68042">
        <ele>1169.77</ele>
        <time>2020-05-24T07:46:57Z</time>
      </trkpt>
      <trkpt lat="45.95226" lon="3.68043">
        <ele>1169.69</ele>
        <time>2020-05-24T07:46:58Z</time>
      </trkpt>
      <trkpt lat="45.95225" lon="3.68043">
        <ele>1169.79</ele>
        <time>2020-05-24T07:46:59Z</time>
      </trkpt>
      <trkpt lat="45.95221" lon="3.68048">
        <ele>1169.62</ele>
        <time>2020-05-24T07:47:04Z</time>
      </trkpt>
      <trkpt lat="45.9522" lon="3.6805">
        <ele>1169.82</ele>
        <time>2020-05-24T07:47:05Z</time>
      </trkpt>
      <trkpt lat="45.9521" lon="3.68062">
        <ele>1169.86</ele>
        <time>2020-05-24T07:47:17Z</time>
      </trkpt>
      <trkpt lat="45.95193" lon="3.68078">
        <ele>1170.89</ele>
        <time>2020-05-24T07:47:34Z</time>
      </trkpt>
      <trkpt lat="45.95192" lon="3.68079">
        <ele>1170.99</ele>
        <time>2020-05-24T07:47:35Z</time>
      </trkpt>
      <trkpt lat="45.95188" lon="3.68083">
        <ele>1171.18</ele>
        <time>2020-05-24T07:47:39Z</time>
      </trkpt>
      <trkpt lat="45.95171" lon="3.68095">
        <ele>1170.83</ele>
        <time>2020-05-24T07:47:52Z</time>
      </trkpt>
      <trkpt lat="45.95158" lon="3.68102">
        <ele>1170.58</ele>
        <time>2020-05-24T07:48:03Z</time>
      </trkpt>
      <trkpt lat="45.95138" lon="3.68114">
        <ele>1170.6</ele>
        <time>2020-05-24T07:48:21Z</time>
      </trkpt>
      <trkpt lat="45.95129" lon="3.68117">
        <ele>1169.63</ele>
        <time>2020-05-24T07:48:31Z</time>
      </trkpt>
      <trkpt lat="45.95125" lon="3.68118">
        <ele>1169.59</ele>
        <time>2020-05-24T07:48:34Z</time>
      </trkpt>
      <trkpt lat="45.95124" lon="3.68118">
        <ele>1170.92</ele>
        <time>2020-05-24T07:48:35Z</time>
      </trkpt>
      <trkpt lat="45.95122" lon="3.68118">
        <ele>1170.76</ele>
        <time>2020-05-24T07:48:36Z</time>
      </trkpt>
      <trkpt lat="45.95102" lon="3.68126">
        <ele>1170.82</ele>
        <time>2020-05-24T07:48:50Z</time>
      </trkpt>
      <trkpt lat="45.95088" lon="3.68137">
        <ele>1170.94</ele>
        <time>2020-05-24T07:49:02Z</time>
      </trkpt>
      <trkpt lat="45.95083" lon="3.68135">
        <ele>1170.58</ele>
        <time>2020-05-24T07:49:35Z</time>
      </trkpt>
      <trkpt lat="45.95083" lon="3.68129">
        <ele>1170.16</ele>
        <time>2020-05-24T07:50:04Z</time>
      </trkpt>
      <trkpt lat="45.95076" lon="3.68115">
        <ele>1170.96</ele>
        <time>2020-05-24T07:50:22Z</time>
      </trkpt>
      <trkpt lat="45.9507" lon="3.68098">
        <ele>1172.45</ele>
        <time>2020-05-24T07:50:36Z</time>
      </trkpt>
      <trkpt lat="45.95066" lon="3.68085">
        <ele>1175.14</ele>
        <time>2020-05-24T07:50:55Z</time>
      </trkpt>
      <trkpt lat="45.95061" lon="3.68067">
        <ele>1177.96</ele>
        <time>2020-05-24T07:51:14Z</time>
      </trkpt>
      <trkpt lat="45.95052" lon="3.6805">
        <ele>1180.99</ele>
        <time>2020-05-24T07:51:31Z</time>
      </trkpt>
      <trkpt lat="45.95048" lon="3.68033">
        <ele>1183.93</ele>
        <time>2020-05-24T07:51:54Z</time>
      </trkpt>
      <trkpt lat="45.95042" lon="3.68009">
        <ele>1186.48</ele>
        <time>2020-05-24T07:52:14Z</time>
      </trkpt>
      <trkpt lat="45.95032" lon="3.67987">
        <ele>1189.34</ele>
        <time>2020-05-24T07:52:35Z</time>
      </trkpt>
      <trkpt lat="45.95028" lon="3.67973">
        <ele>1192.36</ele>
        <time>2020-05-24T07:52:52Z</time>
      </trkpt>
      <trkpt lat="45.95023" lon="3.67953">
        <ele>1194.81</ele>
        <time>2020-05-24T07:53:11Z</time>
      </trkpt>
      <trkpt lat="45.95012" lon="3.67933">
        <ele>1197.84</ele>
        <time>2020-05-24T07:53:30Z</time>
      </trkpt>
      <trkpt lat="45.95011" lon="3.67915">
        <ele>1200.6</ele>
        <time>2020-05-24T07:53:49Z</time>
      </trkpt>
      <trkpt lat="45.95003" lon="3.67891">
        <ele>1202.77</ele>
        <time>2020-05-24T07:54:07Z</time>
      </trkpt>
      <trkpt lat="45.95001" lon="3.67886">
        <ele>1203.76</ele>
        <time>2020-05-24T07:54:11Z</time>
      </trkpt>
      <trkpt lat="45.94991" lon="3.67866">
        <ele>1204.91</ele>
        <time>2020-05-24T07:54:30Z</time>
      </trkpt>
      <trkpt lat="45.94983" lon="3.67842">
        <ele>1207.44</ele>
        <time>2020-05-24T07:54:50Z</time>
      </trkpt>
      <trkpt lat="45.9498" lon="3.67822">
        <ele>1210.39</ele>
        <time>2020-05-24T07:55:07Z</time>
      </trkpt>
      <trkpt lat="45.94982" lon="3.67807">
        <ele>1212.32</ele>
        <time>2020-05-24T07:55:19Z</time>
      </trkpt>
      <trkpt lat="45.94986" lon="3.67804">
        <ele>1212.24</ele>
        <time>2020-05-24T07:55:44Z</time>
      </trkpt>
      <trkpt lat="45.94986" lon="3.67799">
        <ele>1212.49</ele>
        <time>2020-05-24T07:56:12Z</time>
      </trkpt>
      <trkpt lat="45.94989" lon="3.67795">
        <ele>1212.97</ele>
        <time>2020-05-24T07:56:31Z</time>
      </trkpt>
      <trkpt lat="45.94989" lon="3.67793">
        <ele>1213.51</ele>
        <time>2020-05-24T07:57:04Z</time>
      </trkpt>
      <trkpt lat="45.94987" lon="3.67792">
        <ele>1213.74</ele>
        <time>2020-05-24T07:57:28Z</time>
      </trkpt>
      <trkpt lat="45.94984" lon="3.67792">
        <ele>1213.72</ele>
        <time>2020-05-24T07:58:05Z</time>
      </trkpt>
      <trkpt lat="45.94983" lon="3.67792">
        <ele>1213.88</ele>
        <time>2020-05-24T07:58:38Z</time>
      </trkpt>
      <trkpt lat="45.94984" lon="3.67792">
        <ele>1214.16</ele>
        <time>2020-05-24T07:59:14Z</time>
      </trkpt>
      <trkpt lat="45.94986" lon="3.67793">
        <ele>1214.25</ele>
        <time>2020-05-24T07:59:48Z</time>
      </trkpt>
      <trkpt lat="45.94992" lon="3.67782">
        <ele>1215.23</ele>
        <time>2020-05-24T08:00:03Z</time>
      </trkpt>
      <trkpt lat="45.95002" lon="3.67779">
        <ele>1215.26</ele>
        <time>2020-05-24T08:00:17Z</time>
      </trkpt>
      <trkpt lat="45.95004" lon="3.6778">
        <ele>1215.2</ele>
        <time>2020-05-24T08:00:20Z</time>
      </trkpt>
      <trkpt lat="45.95013" lon="3.67768">
        <ele>1215.37</ele>
        <time>2020-05-24T08:00:34Z</time>
      </trkpt>
      <trkpt lat="45.95019" lon="3.67755">
        <ele>1216.36</ele>
        <time>2020-05-24T08:00:45Z</time>
      </trkpt>
      <trkpt lat="45.9502" lon="3.67749">
        <ele>1216.98</ele>
        <time>2020-05-24T08:01:05Z</time>
      </trkpt>
      <trkpt lat="45.95021" lon="3.67746">
        <ele>1216.79</ele>
        <time>2020-05-24T08:01:16Z</time>
      </trkpt>
      <trkpt lat="45.95032" lon="3.67731">
        <ele>1217.37</ele>
        <time>2020-05-24T08:01:33Z</time>
      </trkpt>
      <trkpt lat="45.95035" lon="3.67726">
        <ele>1217.22</ele>
        <time>2020-05-24T08:01:40Z</time>
      </trkpt>
      <trkpt lat="45.95037" lon="3.6771">
        <ele>1217.35</ele>
        <time>2020-05-24T08:01:53Z</time>
      </trkpt>
      <trkpt lat="45.95038" lon="3.67707">
        <ele>1217.34</ele>
        <time>2020-05-24T08:01:55Z</time>
      </trkpt>
      <trkpt lat="45.95039" lon="3.67686">
        <ele>1218.12</ele>
        <time>2020-05-24T08:02:07Z</time>
      </trkpt>
      <trkpt lat="45.95041" lon="3.67664">
        <ele>1217.68</ele>
        <time>2020-05-24T08:02:23Z</time>
      </trkpt>
      <trkpt lat="45.95031" lon="3.67646">
        <ele>1219.44</ele>
        <time>2020-05-24T08:02:42Z</time>
      </trkpt>
      <trkpt lat="45.95021" lon="3.67635">
        <ele>1220.57</ele>
        <time>2020-05-24T08:02:57Z</time>
      </trkpt>
      <trkpt lat="45.95008" lon="3.67623">
        <ele>1220.33</ele>
        <time>2020-05-24T08:03:10Z</time>
      </trkpt>
      <trkpt lat="45.94994" lon="3.67613">
        <ele>1220.22</ele>
        <time>2020-05-24T08:03:27Z</time>
      </trkpt>
      <trkpt lat="45.94985" lon="3.67614">
        <ele>1220.78</ele>
        <time>2020-05-24T08:03:43Z</time>
      </trkpt>
      <trkpt lat="45.94979" lon="3.67601">
        <ele>1218.78</ele>
        <time>2020-05-24T08:04:01Z</time>
      </trkpt>
      <trkpt lat="45.9498" lon="3.6758">
        <ele>1216.04</ele>
        <time>2020-05-24T08:04:17Z</time>
      </trkpt>
      <trkpt lat="45.9498" lon="3.67569">
        <ele>1214.23</ele>
        <time>2020-05-24T08:04:29Z</time>
      </trkpt>
      <trkpt lat="45.94969" lon="3.67561">
        <ele>1214.63</ele>
        <time>2020-05-24T08:04:42Z</time>
      </trkpt>
      <trkpt lat="45.94954" lon="3.67558">
        <ele>1215.81</ele>
        <time>2020-05-24T08:05:00Z</time>
      </trkpt>
      <trkpt lat="45.94939" lon="3.67559">
        <ele>1216.8</ele>
        <time>2020-05-24T08:05:19Z</time>
      </trkpt>
      <trkpt lat="45.94937" lon="3.67558">
        <ele>1216.85</ele>
        <time>2020-05-24T08:05:21Z</time>
      </trkpt>
      <trkpt lat="45.94928" lon="3.67562">
        <ele>1217.29</ele>
        <time>2020-05-24T08:05:30Z</time>
      </trkpt>
      <trkpt lat="45.94915" lon="3.67574">
        <ele>1218.2</ele>
        <time>2020-05-24T08:05:45Z</time>
      </trkpt>
      <trkpt lat="45.94903" lon="3.67589">
        <ele>1218.53</ele>
        <time>2020-05-24T08:05:59Z</time>
      </trkpt>
      <trkpt lat="45.94895" lon="3.67599">
        <ele>1218.54</ele>
        <time>2020-05-24T08:06:09Z</time>
      </trkpt>
      <trkpt lat="45.94881" lon="3.67606">
        <ele>1218.61</ele>
        <time>2020-05-24T08:06:23Z</time>
      </trkpt>
      <trkpt lat="45.94866" lon="3.67609">
        <ele>1217.44</ele>
        <time>2020-05-24T08:06:37Z</time>
      </trkpt>
      <trkpt lat="45.94853" lon="3.67606">
        <ele>1216.39</ele>
        <time>2020-05-24T08:06:54Z</time>
      </trkpt>
      <trkpt lat="45.94851" lon="3.67607">
        <ele>1216.31</ele>
        <time>2020-05-24T08:06:56Z</time>
      </trkpt>
      <trkpt lat="45.94848" lon="3.67608">
        <ele>1216.06</ele>
        <time>2020-05-24T08:06:58Z</time>
      </trkpt>
      <trkpt lat="45.94829" lon="3.67605">
        <ele>1214.21</ele>
        <time>2020-05-24T08:07:15Z</time>
      </trkpt>
      <trkpt lat="45.94812" lon="3.67604">
        <ele>1211.59</ele>
        <time>2020-05-24T08:07:33Z</time>
      </trkpt>
      <trkpt lat="45.94808" lon="3.67603">
        <ele>1210.6</ele>
        <time>2020-05-24T08:07:38Z</time>
      </trkpt>
      <trkpt lat="45.94795" lon="3.67598">
        <ele>1208.53</ele>
        <time>2020-05-24T08:07:53Z</time>
      </trkpt>
      <trkpt lat="45.94787" lon="3.6759">
        <ele>1207.53</ele>
        <time>2020-05-24T08:08:09Z</time>
      </trkpt>
      <trkpt lat="45.94772" lon="3.67578">
        <ele>1205.05</ele>
        <time>2020-05-24T08:08:25Z</time>
      </trkpt>
      <trkpt lat="45.94759" lon="3.67564">
        <ele>1202.72</ele>
        <time>2020-05-24T08:08:44Z</time>
      </trkpt>
      <trkpt lat="45.94743" lon="3.67549">
        <ele>1200.53</ele>
        <time>2020-05-24T08:09:01Z</time>
      </trkpt>
      <trkpt lat="45.9474" lon="3.67548">
        <ele>1200.31</ele>
        <time>2020-05-24T08:09:03Z</time>
      </trkpt>
      <trkpt lat="45.94723" lon="3.67538">
        <ele>1197.92</ele>
        <time>2020-05-24T08:09:21Z</time>
      </trkpt>
      <trkpt lat="45.94718" lon="3.67536">
        <ele>1197.57</ele>
        <time>2020-05-24T08:09:27Z</time>
      </trkpt>
      <trkpt lat="45.94703" lon="3.67532">
        <ele>1194.42</ele>
        <time>2020-05-24T08:09:42Z</time>
      </trkpt>
      <trkpt lat="45.94688" lon="3.67528">
        <ele>1191.64</ele>
        <time>2020-05-24T08:09:57Z</time>
      </trkpt>
      <trkpt lat="45.94681" lon="3.6753">
        <ele>1190.08</ele>
        <time>2020-05-24T08:10:05Z</time>
      </trkpt>
      <trkpt lat="45.94667" lon="3.67538">
        <ele>1187.51</ele>
        <time>2020-05-24T08:10:19Z</time>
      </trkpt>
      <trkpt lat="45.94657" lon="3.67551">
        <ele>1185.28</ele>
        <time>2020-05-24T08:10:35Z</time>
      </trkpt>
      <trkpt lat="45.94646" lon="3.67559">
        <ele>1182.95</ele>
        <time>2020-05-24T08:10:51Z</time>
      </trkpt>
      <trkpt lat="45.94637" lon="3.6756">
        <ele>1181.15</ele>
        <time>2020-05-24T08:11:04Z</time>
      </trkpt>
      <trkpt lat="45.94628" lon="3.67561">
        <ele>1178.18</ele>
        <time>2020-05-24T08:11:26Z</time>
      </trkpt>
      <trkpt lat="45.94611" lon="3.67563">
        <ele>1175.72</ele>
        <time>2020-05-24T08:11:44Z</time>
      </trkpt>
      <trkpt lat="45.94609" lon="3.67562">
        <ele>1175.15</ele>
        <time>2020-05-24T08:11:46Z</time>
      </trkpt>
      <trkpt lat="45.94601" lon="3.67544">
        <ele>1173.98</ele>
        <time>2020-05-24T08:12:00Z</time>
      </trkpt>
      <trkpt lat="45.94598" lon="3.67532">
        <ele>1173.29</ele>
        <time>2020-05-24T08:12:17Z</time>
      </trkpt>
      <trkpt lat="45.94596" lon="3.67529">
        <ele>1173.43</ele>
        <time>2020-05-24T08:12:44Z</time>
      </trkpt>
      <trkpt lat="45.94586" lon="3.67503">
        <ele>1171.39</ele>
        <time>2020-05-24T08:13:12Z</time>
      </trkpt>
      <trkpt lat="45.94579" lon="3.67493">
        <ele>1170.61</ele>
        <time>2020-05-24T08:13:28Z</time>
      </trkpt>
      <trkpt lat="45.94576" lon="3.67486">
        <ele>1170.53</ele>
        <time>2020-05-24T08:13:48Z</time>
      </trkpt>
      <trkpt lat="45.94574" lon="3.67484">
        <ele>1170.33</ele>
        <time>2020-05-24T08:13:51Z</time>
      </trkpt>
      <trkpt lat="45.94571" lon="3.67482">
        <ele>1165.84</ele>
        <time>2020-05-24T08:13:54Z</time>
      </trkpt>
      <trkpt lat="45.94571" lon="3.67481">
        <ele>1170.84</ele>
        <time>2020-05-24T08:13:55Z</time>
      </trkpt>
      <trkpt lat="45.94571" lon="3.67477">
        <ele>1169.83</ele>
        <time>2020-05-24T08:13:59Z</time>
      </trkpt>
      <trkpt lat="45.94571" lon="3.67472">
        <ele>1169.4</ele>
        <time>2020-05-24T08:14:02Z</time>
      </trkpt>
      <trkpt lat="45.94572" lon="3.67462">
        <ele>1170.05</ele>
        <time>2020-05-24T08:14:18Z</time>
      </trkpt>
      <trkpt lat="45.94571" lon="3.67461">
        <ele>1169.13</ele>
        <time>2020-05-24T08:14:34Z</time>
      </trkpt>
      <trkpt lat="45.94573" lon="3.6746">
        <ele>1170.11</ele>
        <time>2020-05-24T08:15:07Z</time>
      </trkpt>
      <trkpt lat="45.94575" lon="3.67444">
        <ele>1170.05</ele>
        <time>2020-05-24T08:15:25Z</time>
      </trkpt>
      <trkpt lat="45.94575" lon="3.67442">
        <ele>1170.01</ele>
        <time>2020-05-24T08:15:29Z</time>
      </trkpt>
      <trkpt lat="45.94575" lon="3.67439">
        <ele>1170.06</ele>
        <time>2020-05-24T08:15:31Z</time>
      </trkpt>
      <trkpt lat="45.9456" lon="3.67434">
        <ele>1168.65</ele>
        <time>2020-05-24T08:15:47Z</time>
      </trkpt>
      <trkpt lat="45.94545" lon="3.6745">
        <ele>1166.62</ele>
        <time>2020-05-24T08:16:06Z</time>
      </trkpt>
      <trkpt lat="45.9454" lon="3.67457">
        <ele>1166.39</ele>
        <time>2020-05-24T08:16:23Z</time>
      </trkpt>
      <trkpt lat="45.94539" lon="3.67458">
        <ele>1165.19</ele>
        <time>2020-05-24T08:16:30Z</time>
      </trkpt>
      <trkpt lat="45.94539" lon="3.67458">
        <ele>1169.03</ele>
        <time>2020-05-24T08:16:31Z</time>
      </trkpt>
      <trkpt lat="45.94539" lon="3.67458">
        <ele>1167.84</ele>
        <time>2020-05-24T08:16:32Z</time>
      </trkpt>
      <trkpt lat="45.94539" lon="3.67459">
        <ele>1166.77</ele>
        <time>2020-05-24T08:16:34Z</time>
      </trkpt>
      <trkpt lat="45.9454" lon="3.67461">
        <ele>1165.52</ele>
        <time>2020-05-24T08:16:40Z</time>
      </trkpt>
      <trkpt lat="45.94539" lon="3.67459">
        <ele>1167.53</ele>
        <time>2020-05-24T08:17:04Z</time>
      </trkpt>
      <trkpt lat="45.94538" lon="3.6746">
        <ele>1167.41</ele>
        <time>2020-05-24T08:17:33Z</time>
      </trkpt>
      <trkpt lat="45.9453" lon="3.67468">
        <ele>1166.38</ele>
        <time>2020-05-24T08:17:55Z</time>
      </trkpt>
      <trkpt lat="45.94525" lon="3.67476">
        <ele>1165.39</ele>
        <time>2020-05-24T08:18:08Z</time>
      </trkpt>
      <trkpt lat="45.9452" lon="3.67491">
        <ele>1163.7</ele>
        <time>2020-05-24T08:18:26Z</time>
      </trkpt>
      <trkpt lat="45.94517" lon="3.67505">
        <ele>1162.29</ele>
        <time>2020-05-24T08:18:38Z</time>
      </trkpt>
      <trkpt lat="45.94511" lon="3.6753">
        <ele>1159.94</ele>
        <time>2020-05-24T08:18:55Z</time>
      </trkpt>
      <trkpt lat="45.94504" lon="3.67552">
        <ele>1158.31</ele>
        <time>2020-05-24T08:19:10Z</time>
      </trkpt>
      <trkpt lat="45.94506" lon="3.67575">
        <ele>1155.91</ele>
        <time>2020-05-24T08:19:25Z</time>
      </trkpt>
      <trkpt lat="45.94508" lon="3.67597">
        <ele>1154.26</ele>
        <time>2020-05-24T08:19:38Z</time>
      </trkpt>
      <trkpt lat="45.94509" lon="3.67604">
        <ele>1152.62</ele>
        <time>2020-05-24T08:19:42Z</time>
      </trkpt>
      <trkpt lat="45.94514" lon="3.67631">
        <ele>1151.45</ele>
        <time>2020-05-24T08:19:59Z</time>
      </trkpt>
      <trkpt lat="45.94518" lon="3.67641">
        <ele>1152.37</ele>
        <time>2020-05-24T08:20:10Z</time>
      </trkpt>
      <trkpt lat="45.94515" lon="3.67648">
        <ele>1153.42</ele>
        <time>2020-05-24T08:20:15Z</time>
      </trkpt>
      <trkpt lat="45.94514" lon="3.6765">
        <ele>1152.68</ele>
        <time>2020-05-24T08:20:26Z</time>
      </trkpt>
      <trkpt lat="45.94516" lon="3.67652">
        <ele>1152.64</ele>
        <time>2020-05-24T08:20:28Z</time>
      </trkpt>
      <trkpt lat="45.94526" lon="3.67665">
        <ele>1153.67</ele>
        <time>2020-05-24T08:20:41Z</time>
      </trkpt>
      <trkpt lat="45.94527" lon="3.67666">
        <ele>1153.88</ele>
        <time>2020-05-24T08:20:42Z</time>
      </trkpt>
      <trkpt lat="45.94531" lon="3.67679">
        <ele>1153.21</ele>
        <time>2020-05-24T08:20:50Z</time>
      </trkpt>
      <trkpt lat="45.94533" lon="3.67687">
        <ele>1155.46</ele>
        <time>2020-05-24T08:21:03Z</time>
      </trkpt>
      <trkpt lat="45.94531" lon="3.67684">
        <ele>1153.46</ele>
        <time>2020-05-24T08:21:06Z</time>
      </trkpt>
      <trkpt lat="45.94521" lon="3.67661">
        <ele>1153.36</ele>
        <time>2020-05-24T08:21:23Z</time>
      </trkpt>
      <trkpt lat="45.94519" lon="3.67659">
        <ele>1153.39</ele>
        <time>2020-05-24T08:21:25Z</time>
      </trkpt>
      <trkpt lat="45.94513" lon="3.67675">
        <ele>1152.09</ele>
        <time>2020-05-24T08:21:38Z</time>
      </trkpt>
      <trkpt lat="45.94504" lon="3.67694">
        <ele>1150.84</ele>
        <time>2020-05-24T08:21:51Z</time>
      </trkpt>
      <trkpt lat="45.94489" lon="3.67713">
        <ele>1149.02</ele>
        <time>2020-05-24T08:22:07Z</time>
      </trkpt>
      <trkpt lat="45.94475" lon="3.67726">
        <ele>1148.17</ele>
        <time>2020-05-24T08:22:22Z</time>
      </trkpt>
      <trkpt lat="45.94474" lon="3.67727">
        <ele>1147.93</ele>
        <time>2020-05-24T08:22:23Z</time>
      </trkpt>
      <trkpt lat="45.94471" lon="3.67728">
        <ele>1147.56</ele>
        <time>2020-05-24T08:22:26Z</time>
      </trkpt>
      <trkpt lat="45.94469" lon="3.67728">
        <ele>1147.35</ele>
        <time>2020-05-24T08:22:28Z</time>
      </trkpt>
      <trkpt lat="45.9445" lon="3.67724">
        <ele>1145.33</ele>
        <time>2020-05-24T08:22:46Z</time>
      </trkpt>
      <trkpt lat="45.94435" lon="3.67718">
        <ele>1144.18</ele>
        <time>2020-05-24T08:23:00Z</time>
      </trkpt>
      <trkpt lat="45.9442" lon="3.67733">
        <ele>1142.87</ele>
        <time>2020-05-24T08:23:16Z</time>
      </trkpt>
      <trkpt lat="45.94416" lon="3.67738">
        <ele>1142.61</ele>
        <time>2020-05-24T08:23:21Z</time>
      </trkpt>
      <trkpt lat="45.94408" lon="3.67755">
        <ele>1141.98</ele>
        <time>2020-05-24T08:23:34Z</time>
      </trkpt>
      <trkpt lat="45.94404" lon="3.67775">
        <ele>1141.46</ele>
        <time>2020-05-24T08:23:48Z</time>
      </trkpt>
      <trkpt lat="45.94404" lon="3.67777">
        <ele>1141.16</ele>
        <time>2020-05-24T08:23:49Z</time>
      </trkpt>
      <trkpt lat="45.944" lon="3.67786">
        <ele>1141.32</ele>
        <time>2020-05-24T08:23:54Z</time>
      </trkpt>
      <trkpt lat="45.94399" lon="3.6779">
        <ele>1141.35</ele>
        <time>2020-05-24T08:23:57Z</time>
      </trkpt>
      <trkpt lat="45.94388" lon="3.67806">
        <ele>1139.81</ele>
        <time>2020-05-24T08:24:09Z</time>
      </trkpt>
      <trkpt lat="45.9438" lon="3.67821">
        <ele>1138.1</ele>
        <time>2020-05-24T08:24:20Z</time>
      </trkpt>
      <trkpt lat="45.94377" lon="3.67826">
        <ele>1137.97</ele>
        <time>2020-05-24T08:24:24Z</time>
      </trkpt>
      <trkpt lat="45.94373" lon="3.67837">
        <ele>1137.41</ele>
        <time>2020-05-24T08:24:30Z</time>
      </trkpt>
      <trkpt lat="45.94369" lon="3.67847">
        <ele>1137.21</ele>
        <time>2020-05-24T08:24:35Z</time>
      </trkpt>
      <trkpt lat="45.94367" lon="3.67851">
        <ele>1137.04</ele>
        <time>2020-05-24T08:24:37Z</time>
      </trkpt>
      <trkpt lat="45.94364" lon="3.67865">
        <ele>1136.56</ele>
        <time>2020-05-24T08:24:53Z</time>
      </trkpt>
      <trkpt lat="45.94362" lon="3.67856">
        <ele>1136.52</ele>
        <time>2020-05-24T08:25:10Z</time>
      </trkpt>
      <trkpt lat="45.94355" lon="3.67856">
        <ele>1135.18</ele>
        <time>2020-05-24T08:25:31Z</time>
      </trkpt>
      <trkpt lat="45.94354" lon="3.67859">
        <ele>1135.29</ele>
        <time>2020-05-24T08:25:46Z</time>
      </trkpt>
      <trkpt lat="45.94343" lon="3.67856">
        <ele>1134.25</ele>
        <time>2020-05-24T08:26:04Z</time>
      </trkpt>
      <trkpt lat="45.94333" lon="3.67861">
        <ele>1133.71</ele>
        <time>2020-05-24T08:26:25Z</time>
      </trkpt>
      <trkpt lat="45.94335" lon="3.67868">
        <ele>1134.7</ele>
        <time>2020-05-24T08:26:42Z</time>
      </trkpt>
      <trkpt lat="45.94343" lon="3.67881">
        <ele>1135.22</ele>
        <time>2020-05-24T08:27:01Z</time>
      </trkpt>
      <trkpt lat="45.94344" lon="3.67882">
        <ele>1135.48</ele>
        <time>2020-05-24T08:27:03Z</time>
      </trkpt>
      <trkpt lat="45.94351" lon="3.67891">
        <ele>1136.23</ele>
        <time>2020-05-24T08:27:23Z</time>
      </trkpt>
      <trkpt lat="45.94353" lon="3.67892">
        <ele>1136.01</ele>
        <time>2020-05-24T08:27:47Z</time>
      </trkpt>
      <trkpt lat="45.94353" lon="3.67894">
        <ele>1136.01</ele>
        <time>2020-05-24T08:28:18Z</time>
      </trkpt>
      <trkpt lat="45.94353" lon="3.67894">
        <ele>1136.02</ele>
        <time>2020-05-24T08:28:28Z</time>
      </trkpt>
      <trkpt lat="45.94355" lon="3.67893">
        <ele>1135.75</ele>
        <time>2020-05-24T08:28:39Z</time>
      </trkpt>
      <trkpt lat="45.94362" lon="3.6791">
        <ele>1136.37</ele>
        <time>2020-05-24T08:28:54Z</time>
      </trkpt>
      <trkpt lat="45.94375" lon="3.67939">
        <ele>1137.31</ele>
        <time>2020-05-24T08:29:13Z</time>
      </trkpt>
      <trkpt lat="45.94383" lon="3.67964">
        <ele>1137.8</ele>
        <time>2020-05-24T08:29:29Z</time>
      </trkpt>
      <trkpt lat="45.94399" lon="3.67988">
        <ele>1138.38</ele>
        <time>2020-05-24T08:29:47Z</time>
      </trkpt>
      <trkpt lat="45.94412" lon="3.68013">
        <ele>1139.11</ele>
        <time>2020-05-24T08:30:03Z</time>
      </trkpt>
      <trkpt lat="45.94428" lon="3.68033">
        <ele>1139.72</ele>
        <time>2020-05-24T08:30:21Z</time>
      </trkpt>
      <trkpt lat="45.94441" lon="3.68059">
        <ele>1140.19</ele>
        <time>2020-05-24T08:30:34Z</time>
      </trkpt>
      <trkpt lat="45.94454" lon="3.68084">
        <ele>1141.02</ele>
        <time>2020-05-24T08:30:49Z</time>
      </trkpt>
      <trkpt lat="45.94456" lon="3.68087">
        <ele>1140.78</ele>
        <time>2020-05-24T08:30:51Z</time>
      </trkpt>
      <trkpt lat="45.94465" lon="3.68102">
        <ele>1140.64</ele>
        <time>2020-05-24T08:31:04Z</time>
      </trkpt>
      <trkpt lat="45.94478" lon="3.68124">
        <ele>1141.19</ele>
        <time>2020-05-24T08:31:24Z</time>
      </trkpt>
      <trkpt lat="45.94467" lon="3.68129">
        <ele>1141.62</ele>
        <time>2020-05-24T08:31:40Z</time>
      </trkpt>
      <trkpt lat="45.9445" lon="3.68134">
        <ele>1140.92</ele>
        <time>2020-05-24T08:31:58Z</time>
      </trkpt>
      <trkpt lat="45.94448" lon="3.68132">
        <ele>1141.03</ele>
        <time>2020-05-24T08:31:59Z</time>
      </trkpt>
      <trkpt lat="45.94431" lon="3.68135">
        <ele>1140.47</ele>
        <time>2020-05-24T08:32:18Z</time>
      </trkpt>
      <trkpt lat="45.94411" lon="3.68142">
        <ele>1140.48</ele>
        <time>2020-05-24T08:32:38Z</time>
      </trkpt>
      <trkpt lat="45.9439" lon="3.68161">
        <ele>1140.73</ele>
        <time>2020-05-24T08:32:59Z</time>
      </trkpt>
      <trkpt lat="45.94383" lon="3.68167">
        <ele>1141.01</ele>
        <time>2020-05-24T08:33:08Z</time>
      </trkpt>
      <trkpt lat="45.94377" lon="3.68174">
        <ele>1141.09</ele>
        <time>2020-05-24T08:33:23Z</time>
      </trkpt>
      <trkpt lat="45.94361" lon="3.68188">
        <ele>1141.33</ele>
        <time>2020-05-24T08:33:47Z</time>
      </trkpt>
      <trkpt lat="45.9435" lon="3.68202">
        <ele>1141.84</ele>
        <time>2020-05-24T08:34:02Z</time>
      </trkpt>
      <trkpt lat="45.94343" lon="3.68211">
        <ele>1141.91</ele>
        <time>2020-05-24T08:34:08Z</time>
      </trkpt>
      <trkpt lat="45.94338" lon="3.68218">
        <ele>1142.06</ele>
        <time>2020-05-24T08:34:14Z</time>
      </trkpt>
      <trkpt lat="45.94335" lon="3.68221">
        <ele>1141.9</ele>
        <time>2020-05-24T08:34:18Z</time>
      </trkpt>
      <trkpt lat="45.94325" lon="3.68244">
        <ele>1141.09</ele>
        <time>2020-05-24T08:34:31Z</time>
      </trkpt>
      <trkpt lat="45.94316" lon="3.68264">
        <ele>1140.48</ele>
        <time>2020-05-24T08:34:44Z</time>
      </trkpt>
      <trkpt lat="45.94311" lon="3.68276">
        <ele>1139.57</ele>
        <time>2020-05-24T08:34:53Z</time>
      </trkpt>
      <trkpt lat="45.94308" lon="3.68283">
        <ele>1139.53</ele>
        <time>2020-05-24T08:34:57Z</time>
      </trkpt>
      <trkpt lat="45.94304" lon="3.68306">
        <ele>1138.9</ele>
        <time>2020-05-24T08:35:10Z</time>
      </trkpt>
      <trkpt lat="45.94291" lon="3.68335">
        <ele>1137.78</ele>
        <time>2020-05-24T08:35:31Z</time>
      </trkpt>
      <trkpt lat="45.94289" lon="3.68345">
        <ele>1137.37</ele>
        <time>2020-05-24T08:35:40Z</time>
      </trkpt>
      <trkpt lat="45.94286" lon="3.68352">
        <ele>1137.08</ele>
        <time>2020-05-24T08:35:44Z</time>
      </trkpt>
      <trkpt lat="45.94283" lon="3.68364">
        <ele>1136.72</ele>
        <time>2020-05-24T08:35:55Z</time>
      </trkpt>
      <trkpt lat="45.94282" lon="3.68368">
        <ele>1136.67</ele>
        <time>2020-05-24T08:35:57Z</time>
      </trkpt>
      <trkpt lat="45.94272" lon="3.68398">
        <ele>1136.48</ele>
        <time>2020-05-24T08:36:13Z</time>
      </trkpt>
      <trkpt lat="45.94271" lon="3.68413">
        <ele>1136.52</ele>
        <time>2020-05-24T08:36:21Z</time>
      </trkpt>
      <trkpt lat="45.94271" lon="3.68415">
        <ele>1136.58</ele>
        <time>2020-05-24T08:36:23Z</time>
      </trkpt>
      <trkpt lat="45.94266" lon="3.68445">
        <ele>1137.15</ele>
        <time>2020-05-24T08:36:46Z</time>
      </trkpt>
      <trkpt lat="45.9426" lon="3.68457">
        <ele>1137.99</ele>
        <time>2020-05-24T08:36:54Z</time>
      </trkpt>
      <trkpt lat="45.94248" lon="3.6848">
        <ele>1139.19</ele>
        <time>2020-05-24T08:37:12Z</time>
      </trkpt>
      <trkpt lat="45.94233" lon="3.68502">
        <ele>1141.05</ele>
        <time>2020-05-24T08:37:35Z</time>
      </trkpt>
      <trkpt lat="45.94218" lon="3.68526">
        <ele>1143.58</ele>
        <time>2020-05-24T08:37:57Z</time>
      </trkpt>
      <trkpt lat="45.94214" lon="3.68553">
        <ele>1146.07</ele>
        <time>2020-05-24T08:38:19Z</time>
      </trkpt>
      <trkpt lat="45.94203" lon="3.68574">
        <ele>1148.42</ele>
        <time>2020-05-24T08:38:39Z</time>
      </trkpt>
      <trkpt lat="45.94199" lon="3.68588">
        <ele>1149.16</ele>
        <time>2020-05-24T08:38:48Z</time>
      </trkpt>
      <trkpt lat="45.94188" lon="3.68598">
        <ele>1149.68</ele>
        <time>2020-05-24T08:39:13Z</time>
      </trkpt>
      <trkpt lat="45.94183" lon="3.68604">
        <ele>1150.07</ele>
        <time>2020-05-24T08:39:21Z</time>
      </trkpt>
      <trkpt lat="45.9417" lon="3.68615">
        <ele>1150.98</ele>
        <time>2020-05-24T08:39:37Z</time>
      </trkpt>
      <trkpt lat="45.94154" lon="3.68628">
        <ele>1151.47</ele>
        <time>2020-05-24T08:39:56Z</time>
      </trkpt>
      <trkpt lat="45.94144" lon="3.68637">
        <ele>1151.55</ele>
        <time>2020-05-24T08:40:07Z</time>
      </trkpt>
      <trkpt lat="45.94142" lon="3.6864">
        <ele>1151.5</ele>
        <time>2020-05-24T08:40:09Z</time>
      </trkpt>
      <trkpt lat="45.94129" lon="3.68655">
        <ele>1152.01</ele>
        <time>2020-05-24T08:40:23Z</time>
      </trkpt>
      <trkpt lat="45.94114" lon="3.68675">
        <ele>1152.34</ele>
        <time>2020-05-24T08:40:44Z</time>
      </trkpt>
      <trkpt lat="45.94104" lon="3.68695">
        <ele>1152.13</ele>
        <time>2020-05-24T08:40:57Z</time>
      </trkpt>
      <trkpt lat="45.94094" lon="3.68715">
        <ele>1152.18</ele>
        <time>2020-05-24T08:41:15Z</time>
      </trkpt>
      <trkpt lat="45.94083" lon="3.68745">
        <ele>1151.63</ele>
        <time>2020-05-24T08:41:31Z</time>
      </trkpt>
      <trkpt lat="45.9407" lon="3.68772">
        <ele>1152.13</ele>
        <time>2020-05-24T08:41:49Z</time>
      </trkpt>
      <trkpt lat="45.94063" lon="3.68788">
        <ele>1150.72</ele>
        <time>2020-05-24T08:42:03Z</time>
      </trkpt>
      <trkpt lat="45.94059" lon="3.68792">
        <ele>1152.46</ele>
        <time>2020-05-24T08:42:08Z</time>
      </trkpt>
      <trkpt lat="45.94045" lon="3.6881">
        <ele>1152.5</ele>
        <time>2020-05-24T08:42:22Z</time>
      </trkpt>
      <trkpt lat="45.94028" lon="3.68827">
        <ele>1152.72</ele>
        <time>2020-05-24T08:42:37Z</time>
      </trkpt>
      <trkpt lat="45.94011" lon="3.68839">
        <ele>1153.46</ele>
        <time>2020-05-24T08:42:51Z</time>
      </trkpt>
      <trkpt lat="45.93999" lon="3.68847">
        <ele>1153.88</ele>
        <time>2020-05-24T08:43:03Z</time>
      </trkpt>
      <trkpt lat="45.93993" lon="3.6885">
        <ele>1154.34</ele>
        <time>2020-05-24T08:43:08Z</time>
      </trkpt>
      <trkpt lat="45.93969" lon="3.68861">
        <ele>1154.92</ele>
        <time>2020-05-24T08:43:28Z</time>
      </trkpt>
      <trkpt lat="45.93947" lon="3.68872">
        <ele>1155.8</ele>
        <time>2020-05-24T08:43:46Z</time>
      </trkpt>
      <trkpt lat="45.93939" lon="3.68877">
        <ele>1156.23</ele>
        <time>2020-05-24T08:43:54Z</time>
      </trkpt>
      <trkpt lat="45.93923" lon="3.68886">
        <ele>1157.31</ele>
        <time>2020-05-24T08:44:09Z</time>
      </trkpt>
      <trkpt lat="45.93906" lon="3.68894">
        <ele>1158.62</ele>
        <time>2020-05-24T08:44:25Z</time>
      </trkpt>
      <trkpt lat="45.93886" lon="3.68903">
        <ele>1161.08</ele>
        <time>2020-05-24T08:44:46Z</time>
      </trkpt>
      <trkpt lat="45.93862" lon="3.68913">
        <ele>1163.16</ele>
        <time>2020-05-24T08:45:09Z</time>
      </trkpt>
      <trkpt lat="45.93843" lon="3.68918">
        <ele>1165.49</ele>
        <time>2020-05-24T08:45:27Z</time>
      </trkpt>
      <trkpt lat="45.9382" lon="3.68931">
        <ele>1167.3</ele>
        <time>2020-05-24T08:45:51Z</time>
      </trkpt>
      <trkpt lat="45.93822" lon="3.68934">
        <ele>1167.24</ele>
        <time>2020-05-24T08:46:16Z</time>
      </trkpt>
      <trkpt lat="45.93812" lon="3.68932">
        <ele>1167.93</ele>
        <time>2020-05-24T08:46:37Z</time>
      </trkpt>
      <trkpt lat="45.93811" lon="3.68932">
        <ele>1164.76</ele>
        <time>2020-05-24T08:46:41Z</time>
      </trkpt>
      <trkpt lat="45.93811" lon="3.68931">
        <ele>1167.93</ele>
        <time>2020-05-24T08:46:48Z</time>
      </trkpt>
      <trkpt lat="45.9381" lon="3.68936">
        <ele>1167.56</ele>
        <time>2020-05-24T08:47:11Z</time>
      </trkpt>
      <trkpt lat="45.93805" lon="3.68936">
        <ele>1167.69</ele>
        <time>2020-05-24T08:47:28Z</time>
      </trkpt>
      <trkpt lat="45.93791" lon="3.68937">
        <ele>1168.88</ele>
        <time>2020-05-24T08:47:47Z</time>
      </trkpt>
      <trkpt lat="45.93775" lon="3.68942">
        <ele>1170.04</ele>
        <time>2020-05-24T08:48:08Z</time>
      </trkpt>
      <trkpt lat="45.93756" lon="3.68948">
        <ele>1170.82</ele>
        <time>2020-05-24T08:48:29Z</time>
      </trkpt>
      <trkpt lat="45.93736" lon="3.68958">
        <ele>1172.2</ele>
        <time>2020-05-24T08:48:51Z</time>
      </trkpt>
      <trkpt lat="45.93709" lon="3.68978">
        <ele>1173.55</ele>
        <time>2020-05-24T08:49:14Z</time>
      </trkpt>
      <trkpt lat="45.93693" lon="3.68987">
        <ele>1174.5</ele>
        <time>2020-05-24T08:49:27Z</time>
      </trkpt>
      <trkpt lat="45.93682" lon="3.68992">
        <ele>1175.4</ele>
        <time>2020-05-24T08:49:38Z</time>
      </trkpt>
      <trkpt lat="45.9367" lon="3.68999">
        <ele>1175.29</ele>
        <time>2020-05-24T08:49:48Z</time>
      </trkpt>
      <trkpt lat="45.93652" lon="3.69009">
        <ele>1175.99</ele>
        <time>2020-05-24T08:50:03Z</time>
      </trkpt>
      <trkpt lat="45.93616" lon="3.6901">
        <ele>1177.34</ele>
        <time>2020-05-24T08:50:26Z</time>
      </trkpt>
      <trkpt lat="45.93596" lon="3.69008">
        <ele>1177.83</ele>
        <time>2020-05-24T08:50:42Z</time>
      </trkpt>
      <trkpt lat="45.93578" lon="3.68998">
        <ele>1178.23</ele>
        <time>2020-05-24T08:50:58Z</time>
      </trkpt>
      <trkpt lat="45.9357" lon="3.68997">
        <ele>1178.19</ele>
        <time>2020-05-24T08:51:04Z</time>
      </trkpt>
      <trkpt lat="45.9356" lon="3.68997">
        <ele>1177.77</ele>
        <time>2020-05-24T08:51:20Z</time>
      </trkpt>
      <trkpt lat="45.93557" lon="3.68999">
        <ele>1180.74</ele>
        <time>2020-05-24T08:51:23Z</time>
      </trkpt>
      <trkpt lat="45.93541" lon="3.69011">
        <ele>1181.28</ele>
        <time>2020-05-24T08:51:45Z</time>
      </trkpt>
      <trkpt lat="45.93528" lon="3.69018">
        <ele>1182.78</ele>
        <time>2020-05-24T08:52:00Z</time>
      </trkpt>
      <trkpt lat="45.93526" lon="3.6902">
        <ele>1182.4</ele>
        <time>2020-05-24T08:52:29Z</time>
      </trkpt>
      <trkpt lat="45.93526" lon="3.6902">
        <ele>1182.28</ele>
        <time>2020-05-24T08:52:32Z</time>
      </trkpt>
      <trkpt lat="45.93517" lon="3.69032">
        <ele>1184.62</ele>
        <time>2020-05-24T08:52:56Z</time>
      </trkpt>
      <trkpt lat="45.93495" lon="3.69034">
        <ele>1185.74</ele>
        <time>2020-05-24T08:53:18Z</time>
      </trkpt>
      <trkpt lat="45.93478" lon="3.69046">
        <ele>1188.3</ele>
        <time>2020-05-24T08:53:39Z</time>
      </trkpt>
      <trkpt lat="45.93462" lon="3.69046">
        <ele>1189.48</ele>
        <time>2020-05-24T08:53:55Z</time>
      </trkpt>
      <trkpt lat="45.9345" lon="3.69047">
        <ele>1189.67</ele>
        <time>2020-05-24T08:54:13Z</time>
      </trkpt>
      <trkpt lat="45.93442" lon="3.69052">
        <ele>1191.1</ele>
        <time>2020-05-24T08:54:26Z</time>
      </trkpt>
      <trkpt lat="45.9343" lon="3.69072">
        <ele>1194.05</ele>
        <time>2020-05-24T08:54:47Z</time>
      </trkpt>
      <trkpt lat="45.93428" lon="3.69071">
        <ele>1195.39</ele>
        <time>2020-05-24T08:54:54Z</time>
      </trkpt>
      <trkpt lat="45.93417" lon="3.69076">
        <ele>1196.48</ele>
        <time>2020-05-24T08:55:14Z</time>
      </trkpt>
      <trkpt lat="45.93406" lon="3.69087">
        <ele>1199.3</ele>
        <time>2020-05-24T08:55:34Z</time>
      </trkpt>
      <trkpt lat="45.93394" lon="3.69098">
        <ele>1202.37</ele>
        <time>2020-05-24T08:55:54Z</time>
      </trkpt>
      <trkpt lat="45.93386" lon="3.69098">
        <ele>1202.43</ele>
        <time>2020-05-24T08:56:12Z</time>
      </trkpt>
      <trkpt lat="45.93382" lon="3.691">
        <ele>1202.93</ele>
        <time>2020-05-24T08:56:42Z</time>
      </trkpt>
      <trkpt lat="45.93376" lon="3.69107">
        <ele>1205.66</ele>
        <time>2020-05-24T08:57:01Z</time>
      </trkpt>
      <trkpt lat="45.93367" lon="3.69122">
        <ele>1208.75</ele>
        <time>2020-05-24T08:57:20Z</time>
      </trkpt>
      <trkpt lat="45.93359" lon="3.69129">
        <ele>1211.82</ele>
        <time>2020-05-24T08:57:44Z</time>
      </trkpt>
      <trkpt lat="45.93354" lon="3.69148">
        <ele>1215.01</ele>
        <time>2020-05-24T08:58:00Z</time>
      </trkpt>
      <trkpt lat="45.93351" lon="3.6916">
        <ele>1217.09</ele>
        <time>2020-05-24T08:58:13Z</time>
      </trkpt>
      <trkpt lat="45.93341" lon="3.69175">
        <ele>1220.3</ele>
        <time>2020-05-24T08:58:36Z</time>
      </trkpt>
      <trkpt lat="45.9334" lon="3.69178">
        <ele>1221.02</ele>
        <time>2020-05-24T08:58:42Z</time>
      </trkpt>
      <trkpt lat="45.93331" lon="3.69194">
        <ele>1222.73</ele>
        <time>2020-05-24T08:59:01Z</time>
      </trkpt>
      <trkpt lat="45.93314" lon="3.69212">
        <ele>1225.42</ele>
        <time>2020-05-24T08:59:23Z</time>
      </trkpt>
      <trkpt lat="45.93305" lon="3.69218">
        <ele>1225.52</ele>
        <time>2020-05-24T08:59:48Z</time>
      </trkpt>
      <trkpt lat="45.93299" lon="3.69228">
        <ele>1228.61</ele>
        <time>2020-05-24T09:00:08Z</time>
      </trkpt>
      <trkpt lat="45.9329" lon="3.69246">
        <ele>1231.59</ele>
        <time>2020-05-24T09:00:29Z</time>
      </trkpt>
      <trkpt lat="45.93281" lon="3.6926">
        <ele>1234.49</ele>
        <time>2020-05-24T09:00:49Z</time>
      </trkpt>
      <trkpt lat="45.9327" lon="3.69273">
        <ele>1236.61</ele>
        <time>2020-05-24T09:01:10Z</time>
      </trkpt>
      <trkpt lat="45.93252" lon="3.69284">
        <ele>1239.45</ele>
        <time>2020-05-24T09:01:34Z</time>
      </trkpt>
      <trkpt lat="45.93238" lon="3.69294">
        <ele>1242.46</ele>
        <time>2020-05-24T09:01:55Z</time>
      </trkpt>
      <trkpt lat="45.93222" lon="3.69299">
        <ele>1244.78</ele>
        <time>2020-05-24T09:02:13Z</time>
      </trkpt>
      <trkpt lat="45.9321" lon="3.69316">
        <ele>1247.49</ele>
        <time>2020-05-24T09:02:30Z</time>
      </trkpt>
      <trkpt lat="45.932" lon="3.69324">
        <ele>1249.8</ele>
        <time>2020-05-24T09:02:45Z</time>
      </trkpt>
      <trkpt lat="45.93192" lon="3.69328">
        <ele>1251.01</ele>
        <time>2020-05-24T09:03:01Z</time>
      </trkpt>
      <trkpt lat="45.93191" lon="3.69327">
        <ele>1251.11</ele>
        <time>2020-05-24T09:03:28Z</time>
      </trkpt>
      <trkpt lat="45.9319" lon="3.69327">
        <ele>1251.29</ele>
        <time>2020-05-24T09:03:52Z</time>
      </trkpt>
      <trkpt lat="45.93191" lon="3.69327">
        <ele>1251.34</ele>
        <time>2020-05-24T09:04:12Z</time>
      </trkpt>
      <trkpt lat="45.93185" lon="3.6933">
        <ele>1252.86</ele>
        <time>2020-05-24T09:04:32Z</time>
      </trkpt>
      <trkpt lat="45.93176" lon="3.69339">
        <ele>1254.42</ele>
        <time>2020-05-24T09:04:46Z</time>
      </trkpt>
      <trkpt lat="45.93166" lon="3.69354">
        <ele>1256.83</ele>
        <time>2020-05-24T09:05:04Z</time>
      </trkpt>
      <trkpt lat="45.93162" lon="3.6936">
        <ele>1258.14</ele>
        <time>2020-05-24T09:05:21Z</time>
      </trkpt>
      <trkpt lat="45.93158" lon="3.69367">
        <ele>1258.79</ele>
        <time>2020-05-24T09:05:48Z</time>
      </trkpt>
      <trkpt lat="45.93149" lon="3.69376">
        <ele>1261.29</ele>
        <time>2020-05-24T09:06:04Z</time>
      </trkpt>
      <trkpt lat="45.93142" lon="3.69376">
        <ele>1262.71</ele>
        <time>2020-05-24T09:06:21Z</time>
      </trkpt>
      <trkpt lat="45.93141" lon="3.69377">
        <ele>1263.47</ele>
        <time>2020-05-24T09:06:42Z</time>
      </trkpt>
      <trkpt lat="45.93131" lon="3.69384">
        <ele>1265.33</ele>
        <time>2020-05-24T09:06:56Z</time>
      </trkpt>
      <trkpt lat="45.93121" lon="3.69386">
        <ele>1267.06</ele>
        <time>2020-05-24T09:07:12Z</time>
      </trkpt>
      <trkpt lat="45.93119" lon="3.69385">
        <ele>1267.6</ele>
        <time>2020-05-24T09:07:27Z</time>
      </trkpt>
      <trkpt lat="45.93119" lon="3.69384">
        <ele>1267.66</ele>
        <time>2020-05-24T09:07:28Z</time>
      </trkpt>
      <trkpt lat="45.93106" lon="3.69383">
        <ele>1269.04</ele>
        <time>2020-05-24T09:07:43Z</time>
      </trkpt>
      <trkpt lat="45.93104" lon="3.69385">
        <ele>1269.09</ele>
        <time>2020-05-24T09:07:45Z</time>
      </trkpt>
      <trkpt lat="45.931" lon="3.69388">
        <ele>1269.4</ele>
        <time>2020-05-24T09:07:50Z</time>
      </trkpt>
      <trkpt lat="45.93097" lon="3.69392">
        <ele>1269.74</ele>
        <time>2020-05-24T09:07:56Z</time>
      </trkpt>
      <trkpt lat="45.93091" lon="3.69394">
        <ele>1270.41</ele>
        <time>2020-05-24T09:08:11Z</time>
      </trkpt>
      <trkpt lat="45.93087" lon="3.69401">
        <ele>1270.35</ele>
        <time>2020-05-24T09:08:26Z</time>
      </trkpt>
      <trkpt lat="45.93086" lon="3.69401">
        <ele>1270.41</ele>
        <time>2020-05-24T09:08:27Z</time>
      </trkpt>
      <trkpt lat="45.9309" lon="3.69402">
        <ele>1269.72</ele>
        <time>2020-05-24T09:08:38Z</time>
      </trkpt>
      <trkpt lat="45.9309" lon="3.694">
        <ele>1269.94</ele>
        <time>2020-05-24T09:08:53Z</time>
      </trkpt>
      <trkpt lat="45.93089" lon="3.69398">
        <ele>1271.06</ele>
        <time>2020-05-24T09:09:20Z</time>
      </trkpt>
      <trkpt lat="45.93087" lon="3.69398">
        <ele>1270.87</ele>
        <time>2020-05-24T09:09:36Z</time>
      </trkpt>
      <trkpt lat="45.93087" lon="3.69399">
        <ele>1271.44</ele>
        <time>2020-05-24T09:10:07Z</time>
      </trkpt>
      <trkpt lat="45.93085" lon="3.69395">
        <ele>1271.5</ele>
        <time>2020-05-24T09:10:30Z</time>
      </trkpt>
      <trkpt lat="45.93086" lon="3.69399">
        <ele>1271.65</ele>
        <time>2020-05-24T09:10:51Z</time>
      </trkpt>
      <trkpt lat="45.93084" lon="3.694">
        <ele>1271.99</ele>
        <time>2020-05-24T09:11:16Z</time>
      </trkpt>
      <trkpt lat="45.93082" lon="3.69398">
        <ele>1272.59</ele>
        <time>2020-05-24T09:11:39Z</time>
      </trkpt>
      <trkpt lat="45.93074" lon="3.69395">
        <ele>1272.03</ele>
        <time>2020-05-24T09:11:53Z</time>
      </trkpt>
      <trkpt lat="45.93073" lon="3.69394">
        <ele>1271.99</ele>
        <time>2020-05-24T09:11:55Z</time>
      </trkpt>
      <trkpt lat="45.93069" lon="3.6939">
        <ele>1271.83</ele>
        <time>2020-05-24T09:11:59Z</time>
      </trkpt>
      <trkpt lat="45.93058" lon="3.69388">
        <ele>1271.13</ele>
        <time>2020-05-24T09:12:12Z</time>
      </trkpt>
      <trkpt lat="45.93054" lon="3.69389">
        <ele>1271.02</ele>
        <time>2020-05-24T09:12:28Z</time>
      </trkpt>
      <trkpt lat="45.93046" lon="3.69385">
        <ele>1270.75</ele>
        <time>2020-05-24T09:12:42Z</time>
      </trkpt>
      <trkpt lat="45.93046" lon="3.69384">
        <ele>1270.63</ele>
        <time>2020-05-24T09:13:03Z</time>
      </trkpt>
      <trkpt lat="45.93045" lon="3.69378">
        <ele>1270.69</ele>
        <time>2020-05-24T09:13:25Z</time>
      </trkpt>
      <trkpt lat="45.93045" lon="3.69378">
        <ele>1270.44</ele>
        <time>2020-05-24T09:13:50Z</time>
      </trkpt>
      <trkpt lat="45.93046" lon="3.69379">
        <ele>1271.21</ele>
        <time>2020-05-24T09:14:27Z</time>
      </trkpt>
      <trkpt lat="45.93046" lon="3.69379">
        <ele>1270.76</ele>
        <time>2020-05-24T09:14:52Z</time>
      </trkpt>
      <trkpt lat="45.93046" lon="3.6938">
        <ele>1270.9</ele>
        <time>2020-05-24T09:15:15Z</time>
      </trkpt>
      <trkpt lat="45.93045" lon="3.69382">
        <ele>1270.96</ele>
        <time>2020-05-24T09:15:42Z</time>
      </trkpt>
      <trkpt lat="45.93044" lon="3.69383">
        <ele>1271.56</ele>
        <time>2020-05-24T09:16:12Z</time>
      </trkpt>
      <trkpt lat="45.93044" lon="3.69381">
        <ele>1271.9</ele>
        <time>2020-05-24T09:16:46Z</time>
      </trkpt>
      <trkpt lat="45.93043" lon="3.6938">
        <ele>1271.76</ele>
        <time>2020-05-24T09:17:09Z</time>
      </trkpt>
      <trkpt lat="45.93045" lon="3.6938">
        <ele>1272.27</ele>
        <time>2020-05-24T09:17:33Z</time>
      </trkpt>
      <trkpt lat="45.93046" lon="3.6938">
        <ele>1272.24</ele>
        <time>2020-05-24T09:18:04Z</time>
      </trkpt>
      <trkpt lat="45.93045" lon="3.6938">
        <ele>1270.62</ele>
        <time>2020-05-24T09:18:08Z</time>
      </trkpt>
      <trkpt lat="45.93045" lon="3.6938">
        <ele>1272.63</ele>
        <time>2020-05-24T09:18:14Z</time>
      </trkpt>
      <trkpt lat="45.93044" lon="3.69379">
        <ele>1272.26</ele>
        <time>2020-05-24T09:18:38Z</time>
      </trkpt>
      <trkpt lat="45.93044" lon="3.69379">
        <ele>1270.92</ele>
        <time>2020-05-24T09:18:45Z</time>
      </trkpt>
      <trkpt lat="45.93043" lon="3.69379">
        <ele>1273.77</ele>
        <time>2020-05-24T09:18:54Z</time>
      </trkpt>
      <trkpt lat="45.93043" lon="3.69379">
        <ele>1272.27</ele>
        <time>2020-05-24T09:19:02Z</time>
      </trkpt>
      <trkpt lat="45.93043" lon="3.69379">
        <ele>1273.66</ele>
        <time>2020-05-24T09:19:18Z</time>
      </trkpt>
      <trkpt lat="45.93043" lon="3.6938">
        <ele>1275.2</ele>
        <time>2020-05-24T09:19:45Z</time>
      </trkpt>
      <trkpt lat="45.93043" lon="3.69379">
        <ele>1274.12</ele>
        <time>2020-05-24T09:20:27Z</time>
      </trkpt>
      <trkpt lat="45.93044" lon="3.6938">
        <ele>1273.11</ele>
        <time>2020-05-24T09:20:50Z</time>
      </trkpt>
      <trkpt lat="45.93044" lon="3.6938">
        <ele>1277.93</ele>
        <time>2020-05-24T09:20:54Z</time>
      </trkpt>
      <trkpt lat="45.93044" lon="3.6938">
        <ele>1277.94</ele>
        <time>2020-05-24T09:20:55Z</time>
      </trkpt>
      <trkpt lat="45.93044" lon="3.6938">
        <ele>1274.84</ele>
        <time>2020-05-24T09:21:05Z</time>
      </trkpt>
      <trkpt lat="45.93047" lon="3.6939">
        <ele>1274.59</ele>
        <time>2020-05-24T09:21:18Z</time>
      </trkpt>
      <trkpt lat="45.93048" lon="3.69394">
        <ele>1274.59</ele>
        <time>2020-05-24T09:21:24Z</time>
      </trkpt>
      <trkpt lat="45.9305" lon="3.69391">
        <ele>1274.56</ele>
        <time>2020-05-24T09:21:27Z</time>
      </trkpt>
      <trkpt lat="45.93054" lon="3.69389">
        <ele>1275.03</ele>
        <time>2020-05-24T09:21:31Z</time>
      </trkpt>
      <trkpt lat="45.93064" lon="3.69392">
        <ele>1277.14</ele>
        <time>2020-05-24T09:21:46Z</time>
      </trkpt>
      <trkpt lat="45.93066" lon="3.69392">
        <ele>1277.23</ele>
        <time>2020-05-24T09:21:48Z</time>
      </trkpt>
      <trkpt lat="45.93072" lon="3.69397">
        <ele>1277.51</ele>
        <time>2020-05-24T09:21:54Z</time>
      </trkpt>
      <trkpt lat="45.93078" lon="3.69412">
        <ele>1278.76</ele>
        <time>2020-05-24T09:22:08Z</time>
      </trkpt>
      <trkpt lat="45.93081" lon="3.69419">
        <ele>1277.23</ele>
        <time>2020-05-24T09:22:15Z</time>
      </trkpt>
      <trkpt lat="45.93081" lon="3.6942">
        <ele>1281.1</ele>
        <time>2020-05-24T09:22:24Z</time>
      </trkpt>
      <trkpt lat="45.93081" lon="3.6942">
        <ele>1280.94</ele>
        <time>2020-05-24T09:22:25Z</time>
      </trkpt>
      <trkpt lat="45.93081" lon="3.6942">
        <ele>1277.97</ele>
        <time>2020-05-24T09:22:29Z</time>
      </trkpt>
      <trkpt lat="45.9308" lon="3.69424">
        <ele>1278.39</ele>
        <time>2020-05-24T09:22:47Z</time>
      </trkpt>
      <trkpt lat="45.93081" lon="3.69424">
        <ele>1277.97</ele>
        <time>2020-05-24T09:23:02Z</time>
      </trkpt>
      <trkpt lat="45.9308" lon="3.69426">
        <ele>1278.39</ele>
        <time>2020-05-24T09:23:31Z</time>
      </trkpt>
      <trkpt lat="45.93079" lon="3.69422">
        <ele>1277.94</ele>
        <time>2020-05-24T09:23:46Z</time>
      </trkpt>
      <trkpt lat="45.93079" lon="3.6942">
        <ele>1278.03</ele>
        <time>2020-05-24T09:23:48Z</time>
      </trkpt>
      <trkpt lat="45.93077" lon="3.69407">
        <ele>1278.69</ele>
        <time>2020-05-24T09:23:58Z</time>
      </trkpt>
      <trkpt lat="45.93076" lon="3.69403">
        <ele>1279.22</ele>
        <time>2020-05-24T09:24:01Z</time>
      </trkpt>
      <trkpt lat="45.93072" lon="3.69395">
        <ele>1279.04</ele>
        <time>2020-05-24T09:24:09Z</time>
      </trkpt>
      <trkpt lat="45.93064" lon="3.69389">
        <ele>1278.42</ele>
        <time>2020-05-24T09:24:20Z</time>
      </trkpt>
      <trkpt lat="45.93054" lon="3.69388">
        <ele>1276.79</ele>
        <time>2020-05-24T09:24:33Z</time>
      </trkpt>
      <trkpt lat="45.9305" lon="3.6939">
        <ele>1277.39</ele>
        <time>2020-05-24T09:24:37Z</time>
      </trkpt>
      <trkpt lat="45.93045" lon="3.69396">
        <ele>1273.48</ele>
        <time>2020-05-24T09:24:44Z</time>
      </trkpt>
      <trkpt lat="45.93045" lon="3.69397">
        <ele>1274.98</ele>
        <time>2020-05-24T09:24:45Z</time>
      </trkpt>
      <trkpt lat="45.93041" lon="3.69399">
        <ele>1278.67</ele>
        <time>2020-05-24T09:24:50Z</time>
      </trkpt>
      <trkpt lat="45.9304" lon="3.69399">
        <ele>1278.14</ele>
        <time>2020-05-24T09:24:51Z</time>
      </trkpt>
      <trkpt lat="45.93038" lon="3.694">
        <ele>1275.47</ele>
        <time>2020-05-24T09:24:54Z</time>
      </trkpt>
      <trkpt lat="45.9303" lon="3.69401">
        <ele>1274.3</ele>
        <time>2020-05-24T09:25:02Z</time>
      </trkpt>
      <trkpt lat="45.9302" lon="3.69402">
        <ele>1272.44</ele>
        <time>2020-05-24T09:25:18Z</time>
      </trkpt>
      <trkpt lat="45.93017" lon="3.69402">
        <ele>1271.88</ele>
        <time>2020-05-24T09:25:27Z</time>
      </trkpt>
      <trkpt lat="45.93011" lon="3.69399">
        <ele>1270.39</ele>
        <time>2020-05-24T09:25:39Z</time>
      </trkpt>
      <trkpt lat="45.93006" lon="3.69397">
        <ele>1269.72</ele>
        <time>2020-05-24T09:25:53Z</time>
      </trkpt>
      <trkpt lat="45.92997" lon="3.69396">
        <ele>1267.33</ele>
        <time>2020-05-24T09:26:07Z</time>
      </trkpt>
      <trkpt lat="45.92992" lon="3.69395">
        <ele>1266.15</ele>
        <time>2020-05-24T09:26:19Z</time>
      </trkpt>
      <trkpt lat="45.92989" lon="3.69393">
        <ele>1265.04</ele>
        <time>2020-05-24T09:26:25Z</time>
      </trkpt>
      <trkpt lat="45.92979" lon="3.69389">
        <ele>1264.82</ele>
        <time>2020-05-24T09:26:40Z</time>
      </trkpt>
      <trkpt lat="45.92978" lon="3.69389">
        <ele>1263.71</ele>
        <time>2020-05-24T09:26:41Z</time>
      </trkpt>
      <trkpt lat="45.92977" lon="3.69388">
        <ele>1262.93</ele>
        <time>2020-05-24T09:26:43Z</time>
      </trkpt>
      <trkpt lat="45.92968" lon="3.69388">
        <ele>1260.02</ele>
        <time>2020-05-24T09:26:56Z</time>
      </trkpt>
      <trkpt lat="45.92961" lon="3.69389">
        <ele>1257.39</ele>
        <time>2020-05-24T09:27:13Z</time>
      </trkpt>
      <trkpt lat="45.9295" lon="3.69388">
        <ele>1254.36</ele>
        <time>2020-05-24T09:27:32Z</time>
      </trkpt>
      <trkpt lat="45.92945" lon="3.69386">
        <ele>1253.48</ele>
        <time>2020-05-24T09:27:49Z</time>
      </trkpt>
      <trkpt lat="45.92936" lon="3.69377">
        <ele>1250.62</ele>
        <time>2020-05-24T09:28:04Z</time>
      </trkpt>
      <trkpt lat="45.9293" lon="3.69381">
        <ele>1248.84</ele>
        <time>2020-05-24T09:28:17Z</time>
      </trkpt>
      <trkpt lat="45.92926" lon="3.69388">
        <ele>1247.14</ele>
        <time>2020-05-24T09:28:30Z</time>
      </trkpt>
      <trkpt lat="45.92918" lon="3.69391">
        <ele>1245.28</ele>
        <time>2020-05-24T09:28:51Z</time>
      </trkpt>
      <trkpt lat="45.9291" lon="3.69397">
        <ele>1242.51</ele>
        <time>2020-05-24T09:29:06Z</time>
      </trkpt>
      <trkpt lat="45.92902" lon="3.69392">
        <ele>1239.81</ele>
        <time>2020-05-24T09:29:23Z</time>
      </trkpt>
      <trkpt lat="45.92897" lon="3.69384">
        <ele>1237.84</ele>
        <time>2020-05-24T09:29:44Z</time>
      </trkpt>
      <trkpt lat="45.92892" lon="3.69375">
        <ele>1235.43</ele>
        <time>2020-05-24T09:30:02Z</time>
      </trkpt>
      <trkpt lat="45.92886" lon="3.69367">
        <ele>1232.86</ele>
        <time>2020-05-24T09:30:18Z</time>
      </trkpt>
      <trkpt lat="45.92878" lon="3.69369">
        <ele>1231.18</ele>
        <time>2020-05-24T09:30:32Z</time>
      </trkpt>
      <trkpt lat="45.9287" lon="3.69368">
        <ele>1228.82</ele>
        <time>2020-05-24T09:30:50Z</time>
      </trkpt>
      <trkpt lat="45.92862" lon="3.69366">
        <ele>1225.76</ele>
        <time>2020-05-24T09:31:04Z</time>
      </trkpt>
      <trkpt lat="45.92853" lon="3.69366">
        <ele>1222.68</ele>
        <time>2020-05-24T09:31:21Z</time>
      </trkpt>
      <trkpt lat="45.92844" lon="3.69365">
        <ele>1219.39</ele>
        <time>2020-05-24T09:31:34Z</time>
      </trkpt>
      <trkpt lat="45.92831" lon="3.69355">
        <ele>1216.69</ele>
        <time>2020-05-24T09:31:56Z</time>
      </trkpt>
      <trkpt lat="45.92821" lon="3.69357">
        <ele>1213.96</ele>
        <time>2020-05-24T09:32:12Z</time>
      </trkpt>
      <trkpt lat="45.92809" lon="3.69359">
        <ele>1210.51</ele>
        <time>2020-05-24T09:32:28Z</time>
      </trkpt>
      <trkpt lat="45.92808" lon="3.6936">
        <ele>1210.21</ele>
        <time>2020-05-24T09:32:29Z</time>
      </trkpt>
      <trkpt lat="45.92795" lon="3.6936">
        <ele>1208.02</ele>
        <time>2020-05-24T09:32:45Z</time>
      </trkpt>
      <trkpt lat="45.92785" lon="3.6935">
        <ele>1206.76</ele>
        <time>2020-05-24T09:33:01Z</time>
      </trkpt>
      <trkpt lat="45.92782" lon="3.69347">
        <ele>1206.6</ele>
        <time>2020-05-24T09:33:17Z</time>
      </trkpt>
      <trkpt lat="45.92779" lon="3.69346">
        <ele>1206.62</ele>
        <time>2020-05-24T09:33:20Z</time>
      </trkpt>
      <trkpt lat="45.92776" lon="3.69346">
        <ele>1205.22</ele>
        <time>2020-05-24T09:33:23Z</time>
      </trkpt>
      <trkpt lat="45.92769" lon="3.69346">
        <ele>1204.58</ele>
        <time>2020-05-24T09:33:38Z</time>
      </trkpt>
      <trkpt lat="45.92766" lon="3.69347">
        <ele>1204.22</ele>
        <time>2020-05-24T09:33:42Z</time>
      </trkpt>
      <trkpt lat="45.92756" lon="3.69347">
        <ele>1203.11</ele>
        <time>2020-05-24T09:33:53Z</time>
      </trkpt>
      <trkpt lat="45.9275" lon="3.69348">
        <ele>1202.34</ele>
        <time>2020-05-24T09:33:59Z</time>
      </trkpt>
      <trkpt lat="45.92736" lon="3.69347">
        <ele>1200.86</ele>
        <time>2020-05-24T09:34:11Z</time>
      </trkpt>
      <trkpt lat="45.92731" lon="3.69342">
        <ele>1200.16</ele>
        <time>2020-05-24T09:34:16Z</time>
      </trkpt>
      <trkpt lat="45.92719" lon="3.69344">
        <ele>1193.97</ele>
        <time>2020-05-24T09:34:29Z</time>
      </trkpt>
      <trkpt lat="45.92718" lon="3.69345">
        <ele>1189.2</ele>
        <time>2020-05-24T09:34:30Z</time>
      </trkpt>
      <trkpt lat="45.92718" lon="3.69345">
        <ele>1199.12</ele>
        <time>2020-05-24T09:34:31Z</time>
      </trkpt>
      <trkpt lat="45.92718" lon="3.69345">
        <ele>1199.3</ele>
        <time>2020-05-24T09:34:32Z</time>
      </trkpt>
      <trkpt lat="45.92716" lon="3.69344">
        <ele>1200.08</ele>
        <time>2020-05-24T09:34:45Z</time>
      </trkpt>
      <trkpt lat="45.92714" lon="3.69344">
        <ele>1205.06</ele>
        <time>2020-05-24T09:34:47Z</time>
      </trkpt>
      <trkpt lat="45.92714" lon="3.69344">
        <ele>1202.51</ele>
        <time>2020-05-24T09:34:48Z</time>
      </trkpt>
      <trkpt lat="45.92713" lon="3.69343">
        <ele>1199.79</ele>
        <time>2020-05-24T09:34:51Z</time>
      </trkpt>
      <trkpt lat="45.92712" lon="3.69356">
        <ele>1199.53</ele>
        <time>2020-05-24T09:35:05Z</time>
      </trkpt>
      <trkpt lat="45.92712" lon="3.69377">
        <ele>1200.26</ele>
        <time>2020-05-24T09:35:19Z</time>
      </trkpt>
      <trkpt lat="45.92713" lon="3.69382">
        <ele>1200.5</ele>
        <time>2020-05-24T09:35:22Z</time>
      </trkpt>
      <trkpt lat="45.92712" lon="3.69387">
        <ele>1200.56</ele>
        <time>2020-05-24T09:35:25Z</time>
      </trkpt>
      <trkpt lat="45.92712" lon="3.69394">
        <ele>1200.71</ele>
        <time>2020-05-24T09:35:29Z</time>
      </trkpt>
      <trkpt lat="45.92711" lon="3.69409">
        <ele>1199.88</ele>
        <time>2020-05-24T09:35:38Z</time>
      </trkpt>
      <trkpt lat="45.92707" lon="3.6943">
        <ele>1198.93</ele>
        <time>2020-05-24T09:35:53Z</time>
      </trkpt>
      <trkpt lat="45.92705" lon="3.69445">
        <ele>1198.09</ele>
        <time>2020-05-24T09:36:04Z</time>
      </trkpt>
      <trkpt lat="45.92703" lon="3.69462">
        <ele>1197</ele>
        <time>2020-05-24T09:36:16Z</time>
      </trkpt>
      <trkpt lat="45.92706" lon="3.69487">
        <ele>1195.55</ele>
        <time>2020-05-24T09:36:30Z</time>
      </trkpt>
      <trkpt lat="45.92714" lon="3.69508">
        <ele>1193.77</ele>
        <time>2020-05-24T09:36:47Z</time>
      </trkpt>
      <trkpt lat="45.92715" lon="3.6951">
        <ele>1194.42</ele>
        <time>2020-05-24T09:36:52Z</time>
      </trkpt>
      <trkpt lat="45.92713" lon="3.69519">
        <ele>1192.35</ele>
        <time>2020-05-24T09:36:59Z</time>
      </trkpt>
      <trkpt lat="45.92712" lon="3.6952">
        <ele>1193.92</ele>
        <time>2020-05-24T09:37:16Z</time>
      </trkpt>
      <trkpt lat="45.92711" lon="3.69521">
        <ele>1193.6</ele>
        <time>2020-05-24T09:37:17Z</time>
      </trkpt>
      <trkpt lat="45.9271" lon="3.69523">
        <ele>1193.07</ele>
        <time>2020-05-24T09:37:19Z</time>
      </trkpt>
      <trkpt lat="45.92704" lon="3.69527">
        <ele>1192.23</ele>
        <time>2020-05-24T09:37:33Z</time>
      </trkpt>
      <trkpt lat="45.92699" lon="3.69531">
        <ele>1191.28</ele>
        <time>2020-05-24T09:37:41Z</time>
      </trkpt>
      <trkpt lat="45.92684" lon="3.69539">
        <ele>1188.88</ele>
        <time>2020-05-24T09:37:57Z</time>
      </trkpt>
      <trkpt lat="45.92678" lon="3.69545">
        <ele>1188.5</ele>
        <time>2020-05-24T09:38:04Z</time>
      </trkpt>
      <trkpt lat="45.92671" lon="3.69552">
        <ele>1187.6</ele>
        <time>2020-05-24T09:38:11Z</time>
      </trkpt>
      <trkpt lat="45.92653" lon="3.6956">
        <ele>1185.18</ele>
        <time>2020-05-24T09:38:27Z</time>
      </trkpt>
      <trkpt lat="45.92645" lon="3.69562">
        <ele>1185.01</ele>
        <time>2020-05-24T09:38:37Z</time>
      </trkpt>
      <trkpt lat="45.92643" lon="3.69563">
        <ele>1184.82</ele>
        <time>2020-05-24T09:38:39Z</time>
      </trkpt>
      <trkpt lat="45.92635" lon="3.69566">
        <ele>1183.05</ele>
        <time>2020-05-24T09:38:47Z</time>
      </trkpt>
      <trkpt lat="45.92625" lon="3.6957">
        <ele>1182.15</ele>
        <time>2020-05-24T09:38:55Z</time>
      </trkpt>
      <trkpt lat="45.92614" lon="3.69569">
        <ele>1181.1</ele>
        <time>2020-05-24T09:39:05Z</time>
      </trkpt>
      <trkpt lat="45.92612" lon="3.69568">
        <ele>1179.96</ele>
        <time>2020-05-24T09:39:07Z</time>
      </trkpt>
      <trkpt lat="45.92596" lon="3.69561">
        <ele>1179.35</ele>
        <time>2020-05-24T09:39:20Z</time>
      </trkpt>
      <trkpt lat="45.9259" lon="3.69562">
        <ele>1179.02</ele>
        <time>2020-05-24T09:39:39Z</time>
      </trkpt>
      <trkpt lat="45.92576" lon="3.69561">
        <ele>1177.77</ele>
        <time>2020-05-24T09:39:54Z</time>
      </trkpt>
      <trkpt lat="45.92571" lon="3.6956">
        <ele>1177.15</ele>
        <time>2020-05-24T09:39:58Z</time>
      </trkpt>
      <trkpt lat="45.92554" lon="3.69558">
        <ele>1175.88</ele>
        <time>2020-05-24T09:40:11Z</time>
      </trkpt>
      <trkpt lat="45.92549" lon="3.69558">
        <ele>1175.32</ele>
        <time>2020-05-24T09:40:16Z</time>
      </trkpt>
      <trkpt lat="45.92541" lon="3.6956">
        <ele>1174.59</ele>
        <time>2020-05-24T09:40:22Z</time>
      </trkpt>
      <trkpt lat="45.92525" lon="3.6956">
        <ele>1172.2</ele>
        <time>2020-05-24T09:40:36Z</time>
      </trkpt>
      <trkpt lat="45.92511" lon="3.6956">
        <ele>1169.62</ele>
        <time>2020-05-24T09:40:50Z</time>
      </trkpt>
      <trkpt lat="45.92499" lon="3.6956">
        <ele>1167.59</ele>
        <time>2020-05-24T09:41:01Z</time>
      </trkpt>
      <trkpt lat="45.92486" lon="3.69558">
        <ele>1165.55</ele>
        <time>2020-05-24T09:41:16Z</time>
      </trkpt>
      <trkpt lat="45.92476" lon="3.69557">
        <ele>1164.52</ele>
        <time>2020-05-24T09:41:26Z</time>
      </trkpt>
      <trkpt lat="45.92459" lon="3.69557">
        <ele>1162.7</ele>
        <time>2020-05-24T09:41:41Z</time>
      </trkpt>
      <trkpt lat="45.92453" lon="3.69558">
        <ele>1162.57</ele>
        <time>2020-05-24T09:41:45Z</time>
      </trkpt>
      <trkpt lat="45.92437" lon="3.6956">
        <ele>1161.13</ele>
        <time>2020-05-24T09:41:58Z</time>
      </trkpt>
      <trkpt lat="45.92433" lon="3.69563">
        <ele>1160.67</ele>
        <time>2020-05-24T09:42:02Z</time>
      </trkpt>
      <trkpt lat="45.9242" lon="3.69571">
        <ele>1157.92</ele>
        <time>2020-05-24T09:42:15Z</time>
      </trkpt>
      <trkpt lat="45.92419" lon="3.69572">
        <ele>1158.75</ele>
        <time>2020-05-24T09:42:16Z</time>
      </trkpt>
      <trkpt lat="45.92406" lon="3.69586">
        <ele>1157.43</ele>
        <time>2020-05-24T09:42:31Z</time>
      </trkpt>
      <trkpt lat="45.92402" lon="3.6959">
        <ele>1157.23</ele>
        <time>2020-05-24T09:42:35Z</time>
      </trkpt>
      <trkpt lat="45.92385" lon="3.69603">
        <ele>1156.43</ele>
        <time>2020-05-24T09:42:50Z</time>
      </trkpt>
      <trkpt lat="45.92371" lon="3.6961">
        <ele>1156.11</ele>
        <time>2020-05-24T09:43:03Z</time>
      </trkpt>
      <trkpt lat="45.92369" lon="3.69628">
        <ele>1155.71</ele>
        <time>2020-05-24T09:43:17Z</time>
      </trkpt>
      <trkpt lat="45.92359" lon="3.69641">
        <ele>1155.73</ele>
        <time>2020-05-24T09:43:30Z</time>
      </trkpt>
      <trkpt lat="45.92353" lon="3.69647">
        <ele>1155.68</ele>
        <time>2020-05-24T09:43:35Z</time>
      </trkpt>
      <trkpt lat="45.9235" lon="3.69649">
        <ele>1155.06</ele>
        <time>2020-05-24T09:43:54Z</time>
      </trkpt>
      <trkpt lat="45.9235" lon="3.69648">
        <ele>1154.24</ele>
        <time>2020-05-24T09:44:05Z</time>
      </trkpt>
      <trkpt lat="45.9235" lon="3.69648">
        <ele>1155.63</ele>
        <time>2020-05-24T09:44:07Z</time>
      </trkpt>
      <trkpt lat="45.92346" lon="3.69651">
        <ele>1155.01</ele>
        <time>2020-05-24T09:44:26Z</time>
      </trkpt>
      <trkpt lat="45.92344" lon="3.69648">
        <ele>1155.18</ele>
        <time>2020-05-24T09:44:58Z</time>
      </trkpt>
      <trkpt lat="45.92342" lon="3.69655">
        <ele>1155.13</ele>
        <time>2020-05-24T09:45:08Z</time>
      </trkpt>
      <trkpt lat="45.92337" lon="3.69661">
        <ele>1155.02</ele>
        <time>2020-05-24T09:45:15Z</time>
      </trkpt>
      <trkpt lat="45.92334" lon="3.69666">
        <ele>1154.83</ele>
        <time>2020-05-24T09:45:19Z</time>
      </trkpt>
      <trkpt lat="45.92331" lon="3.69669">
        <ele>1154.67</ele>
        <time>2020-05-24T09:45:22Z</time>
      </trkpt>
      <trkpt lat="45.92323" lon="3.69685">
        <ele>1154.19</ele>
        <time>2020-05-24T09:45:37Z</time>
      </trkpt>
      <trkpt lat="45.92322" lon="3.69687">
        <ele>1154.58</ele>
        <time>2020-05-24T09:45:39Z</time>
      </trkpt>
      <trkpt lat="45.9232" lon="3.69692">
        <ele>1154.15</ele>
        <time>2020-05-24T09:45:49Z</time>
      </trkpt>
      <trkpt lat="45.92317" lon="3.69699">
        <ele>1150.69</ele>
        <time>2020-05-24T09:46:04Z</time>
      </trkpt>
      <trkpt lat="45.92317" lon="3.69699">
        <ele>1150.47</ele>
        <time>2020-05-24T09:46:05Z</time>
      </trkpt>
      <trkpt lat="45.92317" lon="3.69699">
        <ele>1153.71</ele>
        <time>2020-05-24T09:46:07Z</time>
      </trkpt>
      <trkpt lat="45.92317" lon="3.69701">
        <ele>1157.55</ele>
        <time>2020-05-24T09:46:14Z</time>
      </trkpt>
      <trkpt lat="45.92317" lon="3.69702">
        <ele>1156.31</ele>
        <time>2020-05-24T09:46:15Z</time>
      </trkpt>
      <trkpt lat="45.92317" lon="3.69704">
        <ele>1154.2</ele>
        <time>2020-05-24T09:46:17Z</time>
      </trkpt>
      <trkpt lat="45.92311" lon="3.69715">
        <ele>1153.72</ele>
        <time>2020-05-24T09:46:26Z</time>
      </trkpt>
      <trkpt lat="45.92307" lon="3.69731">
        <ele>1153.4</ele>
        <time>2020-05-24T09:46:40Z</time>
      </trkpt>
      <trkpt lat="45.92305" lon="3.69735">
        <ele>1152.98</ele>
        <time>2020-05-24T09:46:42Z</time>
      </trkpt>
      <trkpt lat="45.92298" lon="3.69755">
        <ele>1152.52</ele>
        <time>2020-05-24T09:46:54Z</time>
      </trkpt>
      <trkpt lat="45.92296" lon="3.69759">
        <ele>1152.42</ele>
        <time>2020-05-24T09:46:57Z</time>
      </trkpt>
      <trkpt lat="45.92282" lon="3.69774">
        <ele>1153.04</ele>
        <time>2020-05-24T09:47:11Z</time>
      </trkpt>
      <trkpt lat="45.92274" lon="3.69783">
        <ele>1152.97</ele>
        <time>2020-05-24T09:47:21Z</time>
      </trkpt>
      <trkpt lat="45.92268" lon="3.69789">
        <ele>1152.75</ele>
        <time>2020-05-24T09:47:26Z</time>
      </trkpt>
      <trkpt lat="45.92259" lon="3.69808">
        <ele>1151.64</ele>
        <time>2020-05-24T09:47:42Z</time>
      </trkpt>
      <trkpt lat="45.92257" lon="3.6981">
        <ele>1151.68</ele>
        <time>2020-05-24T09:47:44Z</time>
      </trkpt>
      <trkpt lat="45.92255" lon="3.69815">
        <ele>1151.5</ele>
        <time>2020-05-24T09:47:48Z</time>
      </trkpt>
      <trkpt lat="45.92253" lon="3.69824">
        <ele>1150.84</ele>
        <time>2020-05-24T09:47:55Z</time>
      </trkpt>
      <trkpt lat="45.92252" lon="3.69827">
        <ele>1150.8</ele>
        <time>2020-05-24T09:47:57Z</time>
      </trkpt>
      <trkpt lat="45.9224" lon="3.69839">
        <ele>1149.72</ele>
        <time>2020-05-24T09:48:16Z</time>
      </trkpt>
      <trkpt lat="45.92234" lon="3.69856">
        <ele>1148.26</ele>
        <time>2020-05-24T09:48:31Z</time>
      </trkpt>
      <trkpt lat="45.92223" lon="3.69857">
        <ele>1148.74</ele>
        <time>2020-05-24T09:48:52Z</time>
      </trkpt>
      <trkpt lat="45.92211" lon="3.69856">
        <ele>1149.25</ele>
        <time>2020-05-24T09:49:08Z</time>
      </trkpt>
      <trkpt lat="45.92209" lon="3.69853">
        <ele>1149.07</ele>
        <time>2020-05-24T09:49:13Z</time>
      </trkpt>
      <trkpt lat="45.922" lon="3.69859">
        <ele>1148.68</ele>
        <time>2020-05-24T09:49:27Z</time>
      </trkpt>
      <trkpt lat="45.92195" lon="3.69858">
        <ele>1148.29</ele>
        <time>2020-05-24T09:49:49Z</time>
      </trkpt>
      <trkpt lat="45.92184" lon="3.6986">
        <ele>1147.71</ele>
        <time>2020-05-24T09:50:04Z</time>
      </trkpt>
      <trkpt lat="45.92171" lon="3.69861">
        <ele>1146.69</ele>
        <time>2020-05-24T09:50:19Z</time>
      </trkpt>
      <trkpt lat="45.92161" lon="3.69864">
        <ele>1146.17</ele>
        <time>2020-05-24T09:50:27Z</time>
      </trkpt>
      <trkpt lat="45.92146" lon="3.69872">
        <ele>1145.66</ele>
        <time>2020-05-24T09:50:45Z</time>
      </trkpt>
      <trkpt lat="45.92141" lon="3.69872">
        <ele>1145.35</ele>
        <time>2020-05-24T09:50:55Z</time>
      </trkpt>
      <trkpt lat="45.92126" lon="3.69867">
        <ele>1144.68</ele>
        <time>2020-05-24T09:51:19Z</time>
      </trkpt>
      <trkpt lat="45.92109" lon="3.69876">
        <ele>1143.78</ele>
        <time>2020-05-24T09:51:34Z</time>
      </trkpt>
      <trkpt lat="45.92106" lon="3.69877">
        <ele>1142.6</ele>
        <time>2020-05-24T09:51:36Z</time>
      </trkpt>
      <trkpt lat="45.92091" lon="3.69881">
        <ele>1142.63</ele>
        <time>2020-05-24T09:51:50Z</time>
      </trkpt>
      <trkpt lat="45.92077" lon="3.6988">
        <ele>1141.48</ele>
        <time>2020-05-24T09:52:04Z</time>
      </trkpt>
      <trkpt lat="45.92056" lon="3.69876">
        <ele>1140.6</ele>
        <time>2020-05-24T09:52:26Z</time>
      </trkpt>
      <trkpt lat="45.92037" lon="3.69872">
        <ele>1138.51</ele>
        <time>2020-05-24T09:52:46Z</time>
      </trkpt>
      <trkpt lat="45.92018" lon="3.69866">
        <ele>1135.82</ele>
        <time>2020-05-24T09:53:09Z</time>
      </trkpt>
      <trkpt lat="45.91997" lon="3.69867">
        <ele>1132.87</ele>
        <time>2020-05-24T09:53:31Z</time>
      </trkpt>
      <trkpt lat="45.91982" lon="3.69875">
        <ele>1129.78</ele>
        <time>2020-05-24T09:53:48Z</time>
      </trkpt>
      <trkpt lat="45.9197" lon="3.6988">
        <ele>1126.78</ele>
        <time>2020-05-24T09:54:03Z</time>
      </trkpt>
      <trkpt lat="45.91969" lon="3.69878">
        <ele>1127.11</ele>
        <time>2020-05-24T09:54:19Z</time>
      </trkpt>
      <trkpt lat="45.91968" lon="3.69875">
        <ele>1126.99</ele>
        <time>2020-05-24T09:54:42Z</time>
      </trkpt>
      <trkpt lat="45.91957" lon="3.69877">
        <ele>1124.54</ele>
        <time>2020-05-24T09:54:58Z</time>
      </trkpt>
      <trkpt lat="45.91947" lon="3.6988">
        <ele>1122.53</ele>
        <time>2020-05-24T09:55:17Z</time>
      </trkpt>
      <trkpt lat="45.91935" lon="3.69885">
        <ele>1119.48</ele>
        <time>2020-05-24T09:55:35Z</time>
      </trkpt>
      <trkpt lat="45.91933" lon="3.69886">
        <ele>1115.48</ele>
        <time>2020-05-24T09:55:39Z</time>
      </trkpt>
      <trkpt lat="45.91932" lon="3.69887">
        <ele>1117.64</ele>
        <time>2020-05-24T09:55:40Z</time>
      </trkpt>
      <trkpt lat="45.91931" lon="3.69888">
        <ele>1119.35</ele>
        <time>2020-05-24T09:55:42Z</time>
      </trkpt>
      <trkpt lat="45.91922" lon="3.69889">
        <ele>1116.11</ele>
        <time>2020-05-24T09:55:52Z</time>
      </trkpt>
      <trkpt lat="45.91913" lon="3.69894">
        <ele>1113.1</ele>
        <time>2020-05-24T09:56:08Z</time>
      </trkpt>
      <trkpt lat="45.91898" lon="3.6989">
        <ele>1110.02</ele>
        <time>2020-05-24T09:56:27Z</time>
      </trkpt>
      <trkpt lat="45.9189" lon="3.69892">
        <ele>1107.13</ele>
        <time>2020-05-24T09:56:47Z</time>
      </trkpt>
      <trkpt lat="45.91878" lon="3.69894">
        <ele>1104.15</ele>
        <time>2020-05-24T09:57:06Z</time>
      </trkpt>
      <trkpt lat="45.91865" lon="3.69894">
        <ele>1101.1</ele>
        <time>2020-05-24T09:57:23Z</time>
      </trkpt>
      <trkpt lat="45.91862" lon="3.69892">
        <ele>1100.38</ele>
        <time>2020-05-24T09:57:28Z</time>
      </trkpt>
      <trkpt lat="45.91855" lon="3.69882">
        <ele>1098.91</ele>
        <time>2020-05-24T09:57:51Z</time>
      </trkpt>
      <trkpt lat="45.91844" lon="3.69882">
        <ele>1095.89</ele>
        <time>2020-05-24T09:58:17Z</time>
      </trkpt>
      <trkpt lat="45.91836" lon="3.69878">
        <ele>1092.71</ele>
        <time>2020-05-24T09:58:33Z</time>
      </trkpt>
      <trkpt lat="45.91835" lon="3.69875">
        <ele>1091.92</ele>
        <time>2020-05-24T09:58:38Z</time>
      </trkpt>
      <trkpt lat="45.91829" lon="3.69878">
        <ele>1088.58</ele>
        <time>2020-05-24T09:58:54Z</time>
      </trkpt>
      <trkpt lat="45.91828" lon="3.69878">
        <ele>1088.39</ele>
        <time>2020-05-24T09:58:55Z</time>
      </trkpt>
      <trkpt lat="45.91813" lon="3.69872">
        <ele>1085.17</ele>
        <time>2020-05-24T09:59:10Z</time>
      </trkpt>
      <trkpt lat="45.91803" lon="3.69869">
        <ele>1082.14</ele>
        <time>2020-05-24T09:59:21Z</time>
      </trkpt>
      <trkpt lat="45.91793" lon="3.69865">
        <ele>1079.89</ele>
        <time>2020-05-24T09:59:38Z</time>
      </trkpt>
      <trkpt lat="45.91785" lon="3.69874">
        <ele>1076.73</ele>
        <time>2020-05-24T09:59:56Z</time>
      </trkpt>
      <trkpt lat="45.91775" lon="3.69876">
        <ele>1073.6</ele>
        <time>2020-05-24T10:00:09Z</time>
      </trkpt>
      <trkpt lat="45.91766" lon="3.69881">
        <ele>1070.54</ele>
        <time>2020-05-24T10:00:24Z</time>
      </trkpt>
      <trkpt lat="45.91755" lon="3.6988">
        <ele>1067.32</ele>
        <time>2020-05-24T10:00:40Z</time>
      </trkpt>
      <trkpt lat="45.91749" lon="3.69877">
        <ele>1066.08</ele>
        <time>2020-05-24T10:01:00Z</time>
      </trkpt>
      <trkpt lat="45.91741" lon="3.69876">
        <ele>1062.89</ele>
        <time>2020-05-24T10:01:14Z</time>
      </trkpt>
      <trkpt lat="45.9174" lon="3.69875">
        <ele>1062.71</ele>
        <time>2020-05-24T10:01:15Z</time>
      </trkpt>
      <trkpt lat="45.91731" lon="3.69866">
        <ele>1059.48</ele>
        <time>2020-05-24T10:01:34Z</time>
      </trkpt>
      <trkpt lat="45.91723" lon="3.6986">
        <ele>1056.38</ele>
        <time>2020-05-24T10:01:51Z</time>
      </trkpt>
      <trkpt lat="45.91715" lon="3.69851">
        <ele>1053.71</ele>
        <time>2020-05-24T10:02:10Z</time>
      </trkpt>
      <trkpt lat="45.91705" lon="3.69842">
        <ele>1050.5</ele>
        <time>2020-05-24T10:02:28Z</time>
      </trkpt>
      <trkpt lat="45.91695" lon="3.69835">
        <ele>1047.37</ele>
        <time>2020-05-24T10:02:45Z</time>
      </trkpt>
      <trkpt lat="45.91684" lon="3.69829">
        <ele>1044.1</ele>
        <time>2020-05-24T10:03:02Z</time>
      </trkpt>
      <trkpt lat="45.91673" lon="3.69826">
        <ele>1041.02</ele>
        <time>2020-05-24T10:03:22Z</time>
      </trkpt>
      <trkpt lat="45.91663" lon="3.69823">
        <ele>1039.08</ele>
        <time>2020-05-24T10:03:41Z</time>
      </trkpt>
      <trkpt lat="45.91652" lon="3.69816">
        <ele>1036.2</ele>
        <time>2020-05-24T10:04:00Z</time>
      </trkpt>
      <trkpt lat="45.91644" lon="3.69799">
        <ele>1033.79</ele>
        <time>2020-05-24T10:04:20Z</time>
      </trkpt>
      <trkpt lat="45.91633" lon="3.69791">
        <ele>1032.35</ele>
        <time>2020-05-24T10:04:37Z</time>
      </trkpt>
      <trkpt lat="45.91622" lon="3.69778">
        <ele>1030.73</ele>
        <time>2020-05-24T10:04:55Z</time>
      </trkpt>
      <trkpt lat="45.91624" lon="3.69769">
        <ele>1030.84</ele>
        <time>2020-05-24T10:05:18Z</time>
      </trkpt>
      <trkpt lat="45.91618" lon="3.69762">
        <ele>1030.15</ele>
        <time>2020-05-24T10:05:39Z</time>
      </trkpt>
      <trkpt lat="45.9161" lon="3.69756">
        <ele>1029.5</ele>
        <time>2020-05-24T10:05:56Z</time>
      </trkpt>
      <trkpt lat="45.916" lon="3.69739">
        <ele>1027.57</ele>
        <time>2020-05-24T10:06:14Z</time>
      </trkpt>
      <trkpt lat="45.91595" lon="3.69733">
        <ele>1027.04</ele>
        <time>2020-05-24T10:06:22Z</time>
      </trkpt>
      <trkpt lat="45.91586" lon="3.69731">
        <ele>1023.78</ele>
        <time>2020-05-24T10:06:36Z</time>
      </trkpt>
      <trkpt lat="45.91571" lon="3.69745">
        <ele>1021.55</ele>
        <time>2020-05-24T10:06:55Z</time>
      </trkpt>
      <trkpt lat="45.91564" lon="3.69762">
        <ele>1018.95</ele>
        <time>2020-05-24T10:07:13Z</time>
      </trkpt>
      <trkpt lat="45.91552" lon="3.69772">
        <ele>1016.13</ele>
        <time>2020-05-24T10:07:28Z</time>
      </trkpt>
      <trkpt lat="45.91546" lon="3.6978">
        <ele>1014.95</ele>
        <time>2020-05-24T10:07:49Z</time>
      </trkpt>
      <trkpt lat="45.91545" lon="3.69791">
        <ele>1012.9</ele>
        <time>2020-05-24T10:08:06Z</time>
      </trkpt>
      <trkpt lat="45.91545" lon="3.69807">
        <ele>1010.25</ele>
        <time>2020-05-24T10:08:24Z</time>
      </trkpt>
      <trkpt lat="45.91543" lon="3.69825">
        <ele>1007.12</ele>
        <time>2020-05-24T10:08:41Z</time>
      </trkpt>
      <trkpt lat="45.91542" lon="3.69846">
        <ele>1004.01</ele>
        <time>2020-05-24T10:08:59Z</time>
      </trkpt>
      <trkpt lat="45.91544" lon="3.69868">
        <ele>1001.57</ele>
        <time>2020-05-24T10:09:16Z</time>
      </trkpt>
      <trkpt lat="45.91547" lon="3.69883">
        <ele>999.77</ele>
        <time>2020-05-24T10:09:28Z</time>
      </trkpt>
      <trkpt lat="45.91553" lon="3.69905">
        <ele>997.78</ele>
        <time>2020-05-24T10:09:45Z</time>
      </trkpt>
      <trkpt lat="45.91558" lon="3.69921">
        <ele>995.88</ele>
        <time>2020-05-24T10:10:01Z</time>
      </trkpt>
      <trkpt lat="45.9156" lon="3.6993">
        <ele>993.26</ele>
        <time>2020-05-24T10:10:20Z</time>
      </trkpt>
      <trkpt lat="45.91567" lon="3.69943">
        <ele>991.95</ele>
        <time>2020-05-24T10:10:41Z</time>
      </trkpt>
      <trkpt lat="45.91574" lon="3.69961">
        <ele>990.2</ele>
        <time>2020-05-24T10:10:57Z</time>
      </trkpt>
      <trkpt lat="45.91574" lon="3.69965">
        <ele>990.04</ele>
        <time>2020-05-24T10:11:00Z</time>
      </trkpt>
      <trkpt lat="45.91572" lon="3.69978">
        <ele>987.12</ele>
        <time>2020-05-24T10:11:21Z</time>
      </trkpt>
      <trkpt lat="45.91567" lon="3.69986">
        <ele>984.75</ele>
        <time>2020-05-24T10:11:41Z</time>
      </trkpt>
      <trkpt lat="45.91563" lon="3.69998">
        <ele>981.59</ele>
        <time>2020-05-24T10:12:02Z</time>
      </trkpt>
      <trkpt lat="45.91564" lon="3.70009">
        <ele>978.45</ele>
        <time>2020-05-24T10:12:17Z</time>
      </trkpt>
      <trkpt lat="45.91561" lon="3.70018">
        <ele>975.42</ele>
        <time>2020-05-24T10:12:29Z</time>
      </trkpt>
      <trkpt lat="45.91561" lon="3.70019">
        <ele>974.99</ele>
        <time>2020-05-24T10:12:50Z</time>
      </trkpt>
      <trkpt lat="45.91558" lon="3.70029">
        <ele>971.71</ele>
        <time>2020-05-24T10:13:02Z</time>
      </trkpt>
      <trkpt lat="45.91551" lon="3.70043">
        <ele>968.42</ele>
        <time>2020-05-24T10:13:18Z</time>
      </trkpt>
      <trkpt lat="45.91549" lon="3.70059">
        <ele>966.63</ele>
        <time>2020-05-24T10:13:36Z</time>
      </trkpt>
      <trkpt lat="45.9155" lon="3.70068">
        <ele>966.83</ele>
        <time>2020-05-24T10:14:02Z</time>
      </trkpt>
      <trkpt lat="45.91551" lon="3.70076">
        <ele>962.39</ele>
        <time>2020-05-24T10:14:15Z</time>
      </trkpt>
      <trkpt lat="45.91551" lon="3.70076">
        <ele>962.4</ele>
        <time>2020-05-24T10:14:16Z</time>
      </trkpt>
      <trkpt lat="45.91544" lon="3.70064">
        <ele>964.84</ele>
        <time>2020-05-24T10:14:37Z</time>
      </trkpt>
      <trkpt lat="45.91559" lon="3.70078">
        <ele>965.09</ele>
        <time>2020-05-24T10:15:01Z</time>
      </trkpt>
      <trkpt lat="45.91541" lon="3.70077">
        <ele>961.8</ele>
        <time>2020-05-24T10:15:17Z</time>
      </trkpt>
      <trkpt lat="45.9153" lon="3.70079">
        <ele>958.71</ele>
        <time>2020-05-24T10:15:30Z</time>
      </trkpt>
      <trkpt lat="45.91518" lon="3.7008">
        <ele>955.55</ele>
        <time>2020-05-24T10:15:45Z</time>
      </trkpt>
      <trkpt lat="45.91506" lon="3.70083">
        <ele>952.97</ele>
        <time>2020-05-24T10:16:01Z</time>
      </trkpt>
      <trkpt lat="45.91501" lon="3.70086">
        <ele>951.2</ele>
        <time>2020-05-24T10:16:08Z</time>
      </trkpt>
      <trkpt lat="45.915" lon="3.70087">
        <ele>952.35</ele>
        <time>2020-05-24T10:16:10Z</time>
      </trkpt>
      <trkpt lat="45.91494" lon="3.70095">
        <ele>949.5</ele>
        <time>2020-05-24T10:16:24Z</time>
      </trkpt>
      <trkpt lat="45.91493" lon="3.70095">
        <ele>945.48</ele>
        <time>2020-05-24T10:16:26Z</time>
      </trkpt>
      <trkpt lat="45.91493" lon="3.70096">
        <ele>949.76</ele>
        <time>2020-05-24T10:16:27Z</time>
      </trkpt>
      <trkpt lat="45.91492" lon="3.70096">
        <ele>946.74</ele>
        <time>2020-05-24T10:16:29Z</time>
      </trkpt>
      <trkpt lat="45.91491" lon="3.70096">
        <ele>947.62</ele>
        <time>2020-05-24T10:16:30Z</time>
      </trkpt>
      <trkpt lat="45.9149" lon="3.70098">
        <ele>948.45</ele>
        <time>2020-05-24T10:16:32Z</time>
      </trkpt>
      <trkpt lat="45.9148" lon="3.70106">
        <ele>945.04</ele>
        <time>2020-05-24T10:16:45Z</time>
      </trkpt>
      <trkpt lat="45.9147" lon="3.70107">
        <ele>946.26</ele>
        <time>2020-05-24T10:17:01Z</time>
      </trkpt>
      <trkpt lat="45.91465" lon="3.7011">
        <ele>944.31</ele>
        <time>2020-05-24T10:17:07Z</time>
      </trkpt>
      <trkpt lat="45.91458" lon="3.70121">
        <ele>940.92</ele>
        <time>2020-05-24T10:17:18Z</time>
      </trkpt>
      <trkpt lat="45.91454" lon="3.70128">
        <ele>939.79</ele>
        <time>2020-05-24T10:17:24Z</time>
      </trkpt>
      <trkpt lat="45.91452" lon="3.70132">
        <ele>940.45</ele>
        <time>2020-05-24T10:17:27Z</time>
      </trkpt>
      <trkpt lat="45.91446" lon="3.70139">
        <ele>941.73</ele>
        <time>2020-05-24T10:17:36Z</time>
      </trkpt>
      <trkpt lat="45.91444" lon="3.70136">
        <ele>939.44</ele>
        <time>2020-05-24T10:17:41Z</time>
      </trkpt>
      <trkpt lat="45.91435" lon="3.70139">
        <ele>937.82</ele>
        <time>2020-05-24T10:17:59Z</time>
      </trkpt>
      <trkpt lat="45.91438" lon="3.70138">
        <ele>937.09</ele>
        <time>2020-05-24T10:18:28Z</time>
      </trkpt>
      <trkpt lat="45.91436" lon="3.7014">
        <ele>933.73</ele>
        <time>2020-05-24T10:18:38Z</time>
      </trkpt>
      <trkpt lat="45.91435" lon="3.70141">
        <ele>940.78</ele>
        <time>2020-05-24T10:18:39Z</time>
      </trkpt>
      <trkpt lat="45.91434" lon="3.70141">
        <ele>939.73</ele>
        <time>2020-05-24T10:18:40Z</time>
      </trkpt>
      <trkpt lat="45.91434" lon="3.70142">
        <ele>936.52</ele>
        <time>2020-05-24T10:18:41Z</time>
      </trkpt>
      <trkpt lat="45.91433" lon="3.70142">
        <ele>936.37</ele>
        <time>2020-05-24T10:18:42Z</time>
      </trkpt>
      <trkpt lat="45.91431" lon="3.70145">
        <ele>932.24</ele>
        <time>2020-05-24T10:18:47Z</time>
      </trkpt>
      <trkpt lat="45.91431" lon="3.70145">
        <ele>933.61</ele>
        <time>2020-05-24T10:18:48Z</time>
      </trkpt>
      <trkpt lat="45.91431" lon="3.70146">
        <ele>936.9</ele>
        <time>2020-05-24T10:18:49Z</time>
      </trkpt>
      <trkpt lat="45.9143" lon="3.70146">
        <ele>935.74</ele>
        <time>2020-05-24T10:18:50Z</time>
      </trkpt>
      <trkpt lat="45.9142" lon="3.70148">
        <ele>934.14</ele>
        <time>2020-05-24T10:19:14Z</time>
      </trkpt>
      <trkpt lat="45.91408" lon="3.70154">
        <ele>930.86</ele>
        <time>2020-05-24T10:19:33Z</time>
      </trkpt>
      <trkpt lat="45.91406" lon="3.70155">
        <ele>935.19</ele>
        <time>2020-05-24T10:19:36Z</time>
      </trkpt>
      <trkpt lat="45.91406" lon="3.70156">
        <ele>935.19</ele>
        <time>2020-05-24T10:19:37Z</time>
      </trkpt>
      <trkpt lat="45.91402" lon="3.7016">
        <ele>932.81</ele>
        <time>2020-05-24T10:19:40Z</time>
      </trkpt>
      <trkpt lat="45.91401" lon="3.70165">
        <ele>932.63</ele>
        <time>2020-05-24T10:20:04Z</time>
      </trkpt>
      <trkpt lat="45.91398" lon="3.70168">
        <ele>931.44</ele>
        <time>2020-05-24T10:20:12Z</time>
      </trkpt>
      <trkpt lat="45.91393" lon="3.70181">
        <ele>929.96</ele>
        <time>2020-05-24T10:20:30Z</time>
      </trkpt>
      <trkpt lat="45.91392" lon="3.70181">
        <ele>930.12</ele>
        <time>2020-05-24T10:20:31Z</time>
      </trkpt>
      <trkpt lat="45.91383" lon="3.70182">
        <ele>927.24</ele>
        <time>2020-05-24T10:20:43Z</time>
      </trkpt>
      <trkpt lat="45.91382" lon="3.70182">
        <ele>923.96</ele>
        <time>2020-05-24T10:20:45Z</time>
      </trkpt>
      <trkpt lat="45.91382" lon="3.70182">
        <ele>927.08</ele>
        <time>2020-05-24T10:20:46Z</time>
      </trkpt>
      <trkpt lat="45.9138" lon="3.70182">
        <ele>927.96</ele>
        <time>2020-05-24T10:20:48Z</time>
      </trkpt>
      <trkpt lat="45.91376" lon="3.70183">
        <ele>926.1</ele>
        <time>2020-05-24T10:20:53Z</time>
      </trkpt>
      <trkpt lat="45.91364" lon="3.70186">
        <ele>922.79</ele>
        <time>2020-05-24T10:21:06Z</time>
      </trkpt>
      <trkpt lat="45.9136" lon="3.70187">
        <ele>923.39</ele>
        <time>2020-05-24T10:21:10Z</time>
      </trkpt>
      <trkpt lat="45.9135" lon="3.70187">
        <ele>921.81</ele>
        <time>2020-05-24T10:21:28Z</time>
      </trkpt>
      <trkpt lat="45.91342" lon="3.70186">
        <ele>921.09</ele>
        <time>2020-05-24T10:21:51Z</time>
      </trkpt>
      <trkpt lat="45.91341" lon="3.70186">
        <ele>908.29</ele>
        <time>2020-05-24T10:22:17Z</time>
      </trkpt>
      <trkpt lat="45.91342" lon="3.70186">
        <ele>926.62</ele>
        <time>2020-05-24T10:22:18Z</time>
      </trkpt>
      <trkpt lat="45.91342" lon="3.70185">
        <ele>926.54</ele>
        <time>2020-05-24T10:22:19Z</time>
      </trkpt>
      <trkpt lat="45.91342" lon="3.70184">
        <ele>922.81</ele>
        <time>2020-05-24T10:22:21Z</time>
      </trkpt>
      <trkpt lat="45.91342" lon="3.70183">
        <ele>921.81</ele>
        <time>2020-05-24T10:22:23Z</time>
      </trkpt>
      <trkpt lat="45.9134" lon="3.70164">
        <ele>923.5</ele>
        <time>2020-05-24T10:22:41Z</time>
      </trkpt>
      <trkpt lat="45.9134" lon="3.70163">
        <ele>924.43</ele>
        <time>2020-05-24T10:22:43Z</time>
      </trkpt>
      <trkpt lat="45.91333" lon="3.70155">
        <ele>925.21</ele>
        <time>2020-05-24T10:22:59Z</time>
      </trkpt>
      <trkpt lat="45.91331" lon="3.70154">
        <ele>925.66</ele>
        <time>2020-05-24T10:23:08Z</time>
      </trkpt>
      <trkpt lat="45.9133" lon="3.70158">
        <ele>922.97</ele>
        <time>2020-05-24T10:23:35Z</time>
      </trkpt>
      <trkpt lat="45.91324" lon="3.70156">
        <ele>921.9</ele>
        <time>2020-05-24T10:23:56Z</time>
      </trkpt>
      <trkpt lat="45.91321" lon="3.70154">
        <ele>922</ele>
        <time>2020-05-24T10:24:14Z</time>
      </trkpt>
      <trkpt lat="45.91317" lon="3.70155">
        <ele>921.59</ele>
        <time>2020-05-24T10:24:39Z</time>
      </trkpt>
      <trkpt lat="45.91319" lon="3.7015">
        <ele>922.2</ele>
        <time>2020-05-24T10:25:04Z</time>
      </trkpt>
      <trkpt lat="45.9132" lon="3.7015">
        <ele>920.68</ele>
        <time>2020-05-24T10:25:07Z</time>
      </trkpt>
      <trkpt lat="45.91319" lon="3.70148">
        <ele>921.8</ele>
        <time>2020-05-24T10:25:35Z</time>
      </trkpt>
      <trkpt lat="45.91318" lon="3.70151">
        <ele>920.4</ele>
        <time>2020-05-24T10:25:46Z</time>
      </trkpt>
      <trkpt lat="45.91316" lon="3.70155">
        <ele>922.79</ele>
        <time>2020-05-24T10:25:59Z</time>
      </trkpt>
      <trkpt lat="45.91315" lon="3.70157">
        <ele>921.17</ele>
        <time>2020-05-24T10:26:25Z</time>
      </trkpt>
      <trkpt lat="45.91315" lon="3.70156">
        <ele>922.65</ele>
        <time>2020-05-24T10:26:32Z</time>
      </trkpt>
      <trkpt lat="45.91314" lon="3.70156">
        <ele>921.85</ele>
        <time>2020-05-24T10:26:34Z</time>
      </trkpt>
      <trkpt lat="45.91315" lon="3.70155">
        <ele>921.28</ele>
        <time>2020-05-24T10:26:47Z</time>
      </trkpt>
      <trkpt lat="45.91316" lon="3.70153">
        <ele>922.29</ele>
        <time>2020-05-24T10:26:55Z</time>
      </trkpt>
      <trkpt lat="45.91318" lon="3.70153">
        <ele>922.39</ele>
        <time>2020-05-24T10:27:10Z</time>
      </trkpt>
      <trkpt lat="45.91318" lon="3.70155">
        <ele>923.04</ele>
        <time>2020-05-24T10:27:20Z</time>
      </trkpt>
      <trkpt lat="45.91316" lon="3.70157">
        <ele>922.04</ele>
        <time>2020-05-24T10:27:59Z</time>
      </trkpt>
      <trkpt lat="45.91312" lon="3.70153">
        <ele>922.42</ele>
        <time>2020-05-24T10:28:30Z</time>
      </trkpt>
      <trkpt lat="45.91312" lon="3.70146">
        <ele>922.67</ele>
        <time>2020-05-24T10:28:55Z</time>
      </trkpt>
      <trkpt lat="45.9131" lon="3.70145">
        <ele>922.55</ele>
        <time>2020-05-24T10:29:27Z</time>
      </trkpt>
      <trkpt lat="45.91312" lon="3.70149">
        <ele>922.64</ele>
        <time>2020-05-24T10:29:55Z</time>
      </trkpt>
      <trkpt lat="45.91312" lon="3.70156">
        <ele>922.6</ele>
        <time>2020-05-24T10:30:28Z</time>
      </trkpt>
      <trkpt lat="45.91315" lon="3.70151">
        <ele>922.75</ele>
        <time>2020-05-24T10:30:51Z</time>
      </trkpt>
      <trkpt lat="45.91315" lon="3.70152">
        <ele>919.63</ele>
        <time>2020-05-24T10:31:02Z</time>
      </trkpt>
      <trkpt lat="45.91315" lon="3.70153">
        <ele>923.76</ele>
        <time>2020-05-24T10:31:03Z</time>
      </trkpt>
      <trkpt lat="45.91315" lon="3.70153">
        <ele>922.85</ele>
        <time>2020-05-24T10:31:04Z</time>
      </trkpt>
      <trkpt lat="45.91315" lon="3.70152">
        <ele>921.81</ele>
        <time>2020-05-24T10:31:06Z</time>
      </trkpt>
      <trkpt lat="45.91314" lon="3.7015">
        <ele>918.3</ele>
        <time>2020-05-24T10:31:30Z</time>
      </trkpt>
      <trkpt lat="45.91313" lon="3.7015">
        <ele>923.24</ele>
        <time>2020-05-24T10:31:31Z</time>
      </trkpt>
      <trkpt lat="45.91313" lon="3.70149">
        <ele>921.85</ele>
        <time>2020-05-24T10:31:37Z</time>
      </trkpt>
      <trkpt lat="45.91318" lon="3.70154">
        <ele>922.39</ele>
        <time>2020-05-24T10:32:07Z</time>
      </trkpt>
      <trkpt lat="45.91318" lon="3.70153">
        <ele>920.65</ele>
        <time>2020-05-24T10:32:09Z</time>
      </trkpt>
      <trkpt lat="45.91318" lon="3.70153">
        <ele>924.45</ele>
        <time>2020-05-24T10:32:10Z</time>
      </trkpt>
      <trkpt lat="45.91318" lon="3.70152">
        <ele>923.35</ele>
        <time>2020-05-24T10:32:11Z</time>
      </trkpt>
      <trkpt lat="45.91319" lon="3.70152">
        <ele>922.51</ele>
        <time>2020-05-24T10:32:13Z</time>
      </trkpt>
      <trkpt lat="45.91318" lon="3.70151">
        <ele>921.31</ele>
        <time>2020-05-24T10:32:21Z</time>
      </trkpt>
      <trkpt lat="45.91316" lon="3.70146">
        <ele>922.19</ele>
        <time>2020-05-24T10:32:25Z</time>
      </trkpt>
      <trkpt lat="45.91315" lon="3.70147">
        <ele>917.86</ele>
        <time>2020-05-24T10:32:29Z</time>
      </trkpt>
      <trkpt lat="45.91315" lon="3.70146">
        <ele>927.02</ele>
        <time>2020-05-24T10:32:30Z</time>
      </trkpt>
      <trkpt lat="45.91315" lon="3.70146">
        <ele>925.43</ele>
        <time>2020-05-24T10:32:31Z</time>
      </trkpt>
      <trkpt lat="45.91315" lon="3.70146">
        <ele>922.4</ele>
        <time>2020-05-24T10:32:34Z</time>
      </trkpt>
      <trkpt lat="45.91313" lon="3.70144">
        <ele>922.62</ele>
        <time>2020-05-24T10:34:27Z</time>
      </trkpt>
      <trkpt lat="45.9131" lon="3.70138">
        <ele>922.95</ele>
        <time>2020-05-24T10:35:00Z</time>
      </trkpt>
      <trkpt lat="45.91309" lon="3.70145">
        <ele>923.17</ele>
        <time>2020-05-24T10:35:48Z</time>
      </trkpt>
      <trkpt lat="45.91318" lon="3.70157">
        <ele>922.16</ele>
        <time>2020-05-24T10:36:21Z</time>
      </trkpt>
      <trkpt lat="45.91319" lon="3.70157">
        <ele>923.76</ele>
        <time>2020-05-24T10:36:24Z</time>
      </trkpt>
      <trkpt lat="45.91312" lon="3.70154">
        <ele>924.46</ele>
        <time>2020-05-24T10:40:41Z</time>
      </trkpt>
      <trkpt lat="45.91314" lon="3.70151">
        <ele>921.3</ele>
        <time>2020-05-24T10:41:11Z</time>
      </trkpt>
      <trkpt lat="45.91314" lon="3.70152">
        <ele>922.17</ele>
        <time>2020-05-24T10:41:12Z</time>
      </trkpt>
      <trkpt lat="45.91313" lon="3.70153">
        <ele>926.69</ele>
        <time>2020-05-24T10:41:15Z</time>
      </trkpt>
      <trkpt lat="45.91313" lon="3.70153">
        <ele>925.8</ele>
        <time>2020-05-24T10:41:16Z</time>
      </trkpt>
      <trkpt lat="45.91314" lon="3.70153">
        <ele>921.31</ele>
        <time>2020-05-24T10:41:18Z</time>
      </trkpt>
      <trkpt lat="45.91315" lon="3.70154">
        <ele>922.42</ele>
        <time>2020-05-24T10:41:19Z</time>
      </trkpt>
      <trkpt lat="45.91316" lon="3.70154">
        <ele>924.1</ele>
        <time>2020-05-24T10:41:21Z</time>
      </trkpt>
      <trkpt lat="45.91314" lon="3.70152">
        <ele>923.62</ele>
        <time>2020-05-24T10:41:55Z</time>
      </trkpt>
      <trkpt lat="45.91315" lon="3.70158">
        <ele>923.81</ele>
        <time>2020-05-24T10:42:21Z</time>
      </trkpt>
      <trkpt lat="45.91319" lon="3.70157">
        <ele>923.98</ele>
        <time>2020-05-24T10:42:58Z</time>
      </trkpt>
      <trkpt lat="45.91318" lon="3.70157">
        <ele>924.42</ele>
        <time>2020-05-24T10:43:12Z</time>
      </trkpt>
      <trkpt lat="45.91316" lon="3.70148">
        <ele>920.07</ele>
        <time>2020-05-24T10:44:15Z</time>
      </trkpt>
      <trkpt lat="45.91316" lon="3.70148">
        <ele>924.44</ele>
        <time>2020-05-24T10:44:16Z</time>
      </trkpt>
      <trkpt lat="45.91316" lon="3.70148">
        <ele>924.42</ele>
        <time>2020-05-24T10:44:18Z</time>
      </trkpt>
      <trkpt lat="45.91314" lon="3.70154">
        <ele>921.72</ele>
        <time>2020-05-24T10:44:34Z</time>
      </trkpt>
      <trkpt lat="45.91313" lon="3.70148">
        <ele>923.72</ele>
        <time>2020-05-24T10:46:25Z</time>
      </trkpt>
      <trkpt lat="45.91308" lon="3.70146">
        <ele>924.02</ele>
        <time>2020-05-24T10:46:58Z</time>
      </trkpt>
      <trkpt lat="45.91312" lon="3.70145">
        <ele>923.02</ele>
        <time>2020-05-24T10:47:05Z</time>
      </trkpt>
      <trkpt lat="45.91317" lon="3.70148">
        <ele>926.11</ele>
        <time>2020-05-24T10:47:37Z</time>
      </trkpt>
      <trkpt lat="45.91317" lon="3.70148">
        <ele>925.84</ele>
        <time>2020-05-24T10:47:38Z</time>
      </trkpt>
      <trkpt lat="45.91317" lon="3.70149">
        <ele>921.1</ele>
        <time>2020-05-24T10:47:39Z</time>
      </trkpt>
      <trkpt lat="45.91317" lon="3.70149">
        <ele>924.76</ele>
        <time>2020-05-24T10:47:40Z</time>
      </trkpt>
      <trkpt lat="45.91318" lon="3.70149">
        <ele>922.87</ele>
        <time>2020-05-24T10:47:44Z</time>
      </trkpt>
      <trkpt lat="45.91319" lon="3.70151">
        <ele>926.39</ele>
        <time>2020-05-24T10:47:47Z</time>
      </trkpt>
      <trkpt lat="45.91318" lon="3.70153">
        <ele>923.31</ele>
        <time>2020-05-24T10:47:54Z</time>
      </trkpt>
      <trkpt lat="45.91318" lon="3.70155">
        <ele>924.13</ele>
        <time>2020-05-24T10:47:58Z</time>
      </trkpt>
      <trkpt lat="45.91316" lon="3.70152">
        <ele>923.96</ele>
        <time>2020-05-24T10:48:15Z</time>
      </trkpt>
      <trkpt lat="45.91314" lon="3.7015">
        <ele>912.69</ele>
        <time>2020-05-24T10:48:46Z</time>
      </trkpt>
      <trkpt lat="45.91317" lon="3.70149">
        <ele>927.66</ele>
        <time>2020-05-24T10:48:47Z</time>
      </trkpt>
      <trkpt lat="45.91316" lon="3.70149">
        <ele>924.47</ele>
        <time>2020-05-24T10:48:50Z</time>
      </trkpt>
      <trkpt lat="45.91319" lon="3.70154">
        <ele>920.49</ele>
        <time>2020-05-24T10:49:36Z</time>
      </trkpt>
      <trkpt lat="45.91319" lon="3.70154">
        <ele>925.62</ele>
        <time>2020-05-24T10:49:38Z</time>
      </trkpt>
      <trkpt lat="45.9132" lon="3.70152">
        <ele>923.81</ele>
        <time>2020-05-24T10:49:42Z</time>
      </trkpt>
      <trkpt lat="45.91316" lon="3.70148">
        <ele>922.2</ele>
        <time>2020-05-24T10:49:53Z</time>
      </trkpt>
      <trkpt lat="45.91316" lon="3.70147">
        <ele>924.79</ele>
        <time>2020-05-24T10:49:56Z</time>
      </trkpt>
      <trkpt lat="45.91314" lon="3.70147">
        <ele>924.5</ele>
        <time>2020-05-24T10:50:22Z</time>
      </trkpt>
      <trkpt lat="45.91316" lon="3.70148">
        <ele>923.92</ele>
        <time>2020-05-24T10:50:54Z</time>
      </trkpt>
      <trkpt lat="45.91317" lon="3.70149">
        <ele>923.91</ele>
        <time>2020-05-24T10:51:02Z</time>
      </trkpt>
      <trkpt lat="45.91316" lon="3.70152">
        <ele>924.09</ele>
        <time>2020-05-24T10:51:34Z</time>
      </trkpt>
      <trkpt lat="45.91318" lon="3.70149">
        <ele>923.75</ele>
        <time>2020-05-24T10:52:10Z</time>
      </trkpt>
      <trkpt lat="45.91318" lon="3.7015">
        <ele>919.16</ele>
        <time>2020-05-24T10:52:34Z</time>
      </trkpt>
      <trkpt lat="45.91317" lon="3.70149">
        <ele>923.78</ele>
        <time>2020-05-24T10:52:35Z</time>
      </trkpt>
      <trkpt lat="45.91317" lon="3.70147">
        <ele>923.95</ele>
        <time>2020-05-24T10:52:44Z</time>
      </trkpt>
      <trkpt lat="45.91318" lon="3.70146">
        <ele>908.55</ele>
        <time>2020-05-24T10:52:46Z</time>
      </trkpt>
      <trkpt lat="45.91318" lon="3.70146">
        <ele>918.93</ele>
        <time>2020-05-24T10:52:47Z</time>
      </trkpt>
      <trkpt lat="45.91319" lon="3.70147">
        <ele>923.93</ele>
        <time>2020-05-24T10:52:49Z</time>
      </trkpt>
      <trkpt lat="45.9132" lon="3.70148">
        <ele>936.1</ele>
        <time>2020-05-24T10:52:59Z</time>
      </trkpt>
      <trkpt lat="45.9132" lon="3.70148">
        <ele>929.56</ele>
        <time>2020-05-24T10:53:00Z</time>
      </trkpt>
      <trkpt lat="45.91319" lon="3.70149">
        <ele>925.16</ele>
        <time>2020-05-24T10:53:01Z</time>
      </trkpt>
      <trkpt lat="45.91318" lon="3.70149">
        <ele>924.5</ele>
        <time>2020-05-24T10:53:03Z</time>
      </trkpt>
      <trkpt lat="45.91317" lon="3.7015">
        <ele>924.33</ele>
        <time>2020-05-24T10:53:13Z</time>
      </trkpt>
      <trkpt lat="45.91318" lon="3.70143">
        <ele>925.41</ele>
        <time>2020-05-24T10:53:36Z</time>
      </trkpt>
      <trkpt lat="45.91318" lon="3.70144">
        <ele>923.54</ele>
        <time>2020-05-24T10:54:19Z</time>
      </trkpt>
      <trkpt lat="45.91316" lon="3.70154">
        <ele>923.05</ele>
        <time>2020-05-24T10:55:33Z</time>
      </trkpt>
      <trkpt lat="45.9132" lon="3.70148">
        <ele>925.06</ele>
        <time>2020-05-24T10:57:00Z</time>
      </trkpt>
      <trkpt lat="45.91319" lon="3.70148">
        <ele>925.02</ele>
        <time>2020-05-24T10:57:15Z</time>
      </trkpt>
      <trkpt lat="45.91319" lon="3.70148">
        <ele>923.99</ele>
        <time>2020-05-24T10:57:17Z</time>
      </trkpt>
      <trkpt lat="45.9132" lon="3.70146">
        <ele>923.84</ele>
        <time>2020-05-24T10:57:31Z</time>
      </trkpt>
      <trkpt lat="45.91327" lon="3.70151">
        <ele>923.83</ele>
        <time>2020-05-24T10:58:10Z</time>
      </trkpt>
      <trkpt lat="45.91325" lon="3.70152">
        <ele>922.29</ele>
        <time>2020-05-24T10:58:58Z</time>
      </trkpt>
      <trkpt lat="45.91324" lon="3.70149">
        <ele>921.06</ele>
        <time>2020-05-24T10:59:05Z</time>
      </trkpt>
      <trkpt lat="45.91323" lon="3.70148">
        <ele>922.48</ele>
        <time>2020-05-24T10:59:07Z</time>
      </trkpt>
      <trkpt lat="45.91323" lon="3.70148">
        <ele>922.04</ele>
        <time>2020-05-24T11:00:04Z</time>
      </trkpt>
      <trkpt lat="45.91323" lon="3.70149">
        <ele>921.44</ele>
        <time>2020-05-24T11:00:36Z</time>
      </trkpt>
      <trkpt lat="45.91321" lon="3.70149">
        <ele>922.22</ele>
        <time>2020-05-24T11:00:40Z</time>
      </trkpt>
      <trkpt lat="45.91322" lon="3.70146">
        <ele>921.23</ele>
        <time>2020-05-24T11:01:30Z</time>
      </trkpt>
      <trkpt lat="45.91321" lon="3.70145">
        <ele>921.15</ele>
        <time>2020-05-24T11:02:13Z</time>
      </trkpt>
      <trkpt lat="45.91317" lon="3.70146">
        <ele>918.92</ele>
        <time>2020-05-24T11:03:00Z</time>
      </trkpt>
      <trkpt lat="45.91317" lon="3.70146">
        <ele>922.13</ele>
        <time>2020-05-24T11:03:01Z</time>
      </trkpt>
      <trkpt lat="45.91316" lon="3.70147">
        <ele>921.57</ele>
        <time>2020-05-24T11:03:02Z</time>
      </trkpt>
      <trkpt lat="45.91325" lon="3.70136">
        <ele>920.77</ele>
        <time>2020-05-24T11:05:01Z</time>
      </trkpt>
      <trkpt lat="45.91323" lon="3.70143">
        <ele>919.26</ele>
        <time>2020-05-24T11:05:15Z</time>
      </trkpt>
      <trkpt lat="45.91322" lon="3.70137">
        <ele>919.92</ele>
        <time>2020-05-24T11:06:11Z</time>
      </trkpt>
      <trkpt lat="45.91317" lon="3.70146">
        <ele>919.04</ele>
        <time>2020-05-24T11:07:19Z</time>
      </trkpt>
      <trkpt lat="45.91318" lon="3.70147">
        <ele>923.64</ele>
        <time>2020-05-24T11:07:22Z</time>
      </trkpt>
      <trkpt lat="45.91318" lon="3.70147">
        <ele>922.56</ele>
        <time>2020-05-24T11:07:23Z</time>
      </trkpt>
      <trkpt lat="45.91319" lon="3.70147">
        <ele>919.16</ele>
        <time>2020-05-24T11:07:24Z</time>
      </trkpt>
      <trkpt lat="45.91319" lon="3.70147">
        <ele>919.77</ele>
        <time>2020-05-24T11:07:25Z</time>
      </trkpt>
      <trkpt lat="45.91319" lon="3.70145">
        <ele>921.21</ele>
        <time>2020-05-24T11:07:28Z</time>
      </trkpt>
      <trkpt lat="45.91319" lon="3.70144">
        <ele>919.37</ele>
        <time>2020-05-24T11:07:30Z</time>
      </trkpt>
      <trkpt lat="45.91321" lon="3.70146">
        <ele>921.49</ele>
        <time>2020-05-24T11:07:31Z</time>
      </trkpt>
      <trkpt lat="45.91334" lon="3.70149">
        <ele>922.83</ele>
        <time>2020-05-24T11:07:53Z</time>
      </trkpt>
      <trkpt lat="45.91337" lon="3.70146">
        <ele>919.67</ele>
        <time>2020-05-24T11:08:01Z</time>
      </trkpt>
      <trkpt lat="45.91337" lon="3.70144">
        <ele>923.18</ele>
        <time>2020-05-24T11:08:10Z</time>
      </trkpt>
      <trkpt lat="45.91337" lon="3.70143">
        <ele>922.47</ele>
        <time>2020-05-24T11:08:11Z</time>
      </trkpt>
      <trkpt lat="45.91338" lon="3.70128">
        <ele>922.29</ele>
        <time>2020-05-24T11:08:31Z</time>
      </trkpt>
      <trkpt lat="45.91338" lon="3.70126">
        <ele>923.17</ele>
        <time>2020-05-24T11:08:57Z</time>
      </trkpt>
      <trkpt lat="45.91337" lon="3.70127">
        <ele>922.54</ele>
        <time>2020-05-24T11:09:03Z</time>
      </trkpt>
      <trkpt lat="45.91334" lon="3.70138">
        <ele>923.3</ele>
        <time>2020-05-24T11:09:21Z</time>
      </trkpt>
      <trkpt lat="45.91333" lon="3.7014">
        <ele>923.72</ele>
        <time>2020-05-24T11:09:27Z</time>
      </trkpt>
      <trkpt lat="45.91337" lon="3.70138">
        <ele>923.54</ele>
        <time>2020-05-24T11:09:51Z</time>
      </trkpt>
      <trkpt lat="45.91337" lon="3.70136">
        <ele>923.71</ele>
        <time>2020-05-24T11:09:57Z</time>
      </trkpt>
      <trkpt lat="45.91336" lon="3.70137">
        <ele>923.12</ele>
        <time>2020-05-24T11:10:07Z</time>
      </trkpt>
      <trkpt lat="45.91335" lon="3.70126">
        <ele>924.51</ele>
        <time>2020-05-24T11:10:19Z</time>
      </trkpt>
      <trkpt lat="45.91336" lon="3.70125">
        <ele>920.83</ele>
        <time>2020-05-24T11:10:23Z</time>
      </trkpt>
      <trkpt lat="45.91337" lon="3.70125">
        <ele>921.65</ele>
        <time>2020-05-24T11:10:31Z</time>
      </trkpt>
      <trkpt lat="45.91338" lon="3.70129">
        <ele>922.9</ele>
        <time>2020-05-24T11:10:43Z</time>
      </trkpt>
      <trkpt lat="45.9134" lon="3.70129">
        <ele>923.31</ele>
        <time>2020-05-24T11:10:47Z</time>
      </trkpt>
      <trkpt lat="45.91344" lon="3.70129">
        <ele>919.58</ele>
        <time>2020-05-24T11:10:54Z</time>
      </trkpt>
      <trkpt lat="45.91344" lon="3.7013">
        <ele>922.62</ele>
        <time>2020-05-24T11:10:55Z</time>
      </trkpt>
      <trkpt lat="45.91345" lon="3.70132">
        <ele>921.42</ele>
        <time>2020-05-24T11:11:01Z</time>
      </trkpt>
      <trkpt lat="45.91345" lon="3.70135">
        <ele>920.29</ele>
        <time>2020-05-24T11:11:03Z</time>
      </trkpt>
      <trkpt lat="45.91346" lon="3.70138">
        <ele>920.46</ele>
        <time>2020-05-24T11:11:08Z</time>
      </trkpt>
      <trkpt lat="45.91349" lon="3.70141">
        <ele>918.69</ele>
        <time>2020-05-24T11:11:16Z</time>
      </trkpt>
      <trkpt lat="45.91349" lon="3.70143">
        <ele>918.55</ele>
        <time>2020-05-24T11:11:28Z</time>
      </trkpt>
      <trkpt lat="45.91351" lon="3.70145">
        <ele>919.86</ele>
        <time>2020-05-24T11:11:31Z</time>
      </trkpt>
      <trkpt lat="45.91353" lon="3.70148">
        <ele>920.81</ele>
        <time>2020-05-24T11:11:36Z</time>
      </trkpt>
      <trkpt lat="45.91356" lon="3.70154">
        <ele>917.93</ele>
        <time>2020-05-24T11:11:39Z</time>
      </trkpt>
      <trkpt lat="45.91367" lon="3.7016">
        <ele>921.14</ele>
        <time>2020-05-24T11:11:48Z</time>
      </trkpt>
      <trkpt lat="45.91374" lon="3.70156">
        <ele>919.12</ele>
        <time>2020-05-24T11:12:00Z</time>
      </trkpt>
      <trkpt lat="45.91376" lon="3.70154">
        <ele>925.35</ele>
        <time>2020-05-24T11:12:03Z</time>
      </trkpt>
      <trkpt lat="45.91376" lon="3.70153">
        <ele>924.63</ele>
        <time>2020-05-24T11:12:04Z</time>
      </trkpt>
      <trkpt lat="45.91381" lon="3.70149">
        <ele>925.23</ele>
        <time>2020-05-24T11:12:15Z</time>
      </trkpt>
      <trkpt lat="45.91387" lon="3.70146">
        <ele>925.8</ele>
        <time>2020-05-24T11:12:27Z</time>
      </trkpt>
      <trkpt lat="45.91388" lon="3.70143">
        <ele>925.67</ele>
        <time>2020-05-24T11:12:35Z</time>
      </trkpt>
      <trkpt lat="45.91397" lon="3.70137">
        <ele>926.49</ele>
        <time>2020-05-24T11:13:04Z</time>
      </trkpt>
      <trkpt lat="45.91396" lon="3.70145">
        <ele>926.05</ele>
        <time>2020-05-24T11:13:15Z</time>
      </trkpt>
      <trkpt lat="45.91396" lon="3.70159">
        <ele>924.84</ele>
        <time>2020-05-24T11:13:45Z</time>
      </trkpt>
      <trkpt lat="45.91392" lon="3.70159">
        <ele>925.34</ele>
        <time>2020-05-24T11:13:59Z</time>
      </trkpt>
      <trkpt lat="45.91391" lon="3.70161">
        <ele>925.85</ele>
        <time>2020-05-24T11:14:03Z</time>
      </trkpt>
      <trkpt lat="45.91393" lon="3.7017">
        <ele>925.82</ele>
        <time>2020-05-24T11:14:27Z</time>
      </trkpt>
      <trkpt lat="45.91405" lon="3.70178">
        <ele>927.56</ele>
        <time>2020-05-24T11:14:48Z</time>
      </trkpt>
      <trkpt lat="45.91422" lon="3.70189">
        <ele>929.15</ele>
        <time>2020-05-24T11:15:10Z</time>
      </trkpt>
      <trkpt lat="45.91437" lon="3.70192">
        <ele>930.44</ele>
        <time>2020-05-24T11:15:29Z</time>
      </trkpt>
      <trkpt lat="45.91448" lon="3.70196">
        <ele>929.84</ele>
        <time>2020-05-24T11:15:45Z</time>
      </trkpt>
      <trkpt lat="45.91464" lon="3.70196">
        <ele>930.75</ele>
        <time>2020-05-24T11:16:05Z</time>
      </trkpt>
      <trkpt lat="45.91468" lon="3.70198">
        <ele>932.01</ele>
        <time>2020-05-24T11:16:09Z</time>
      </trkpt>
      <trkpt lat="45.91482" lon="3.70205">
        <ele>927.88</ele>
        <time>2020-05-24T11:16:24Z</time>
      </trkpt>
      <trkpt lat="45.91483" lon="3.70206">
        <ele>935.84</ele>
        <time>2020-05-24T11:16:25Z</time>
      </trkpt>
      <trkpt lat="45.91484" lon="3.70207">
        <ele>933.88</ele>
        <time>2020-05-24T11:16:26Z</time>
      </trkpt>
      <trkpt lat="45.91486" lon="3.70208">
        <ele>932.13</ele>
        <time>2020-05-24T11:16:28Z</time>
      </trkpt>
      <trkpt lat="45.91498" lon="3.70213">
        <ele>932.3</ele>
        <time>2020-05-24T11:16:40Z</time>
      </trkpt>
      <trkpt lat="45.91513" lon="3.7022">
        <ele>932.6</ele>
        <time>2020-05-24T11:16:57Z</time>
      </trkpt>
      <trkpt lat="45.91523" lon="3.7023">
        <ele>933.49</ele>
        <time>2020-05-24T11:17:07Z</time>
      </trkpt>
      <trkpt lat="45.91537" lon="3.70249">
        <ele>933.52</ele>
        <time>2020-05-24T11:17:22Z</time>
      </trkpt>
      <trkpt lat="45.9154" lon="3.7025">
        <ele>933.72</ele>
        <time>2020-05-24T11:17:42Z</time>
      </trkpt>
      <trkpt lat="45.91544" lon="3.70253">
        <ele>933.97</ele>
        <time>2020-05-24T11:18:14Z</time>
      </trkpt>
      <trkpt lat="45.9155" lon="3.7026">
        <ele>934.02</ele>
        <time>2020-05-24T11:18:22Z</time>
      </trkpt>
      <trkpt lat="45.91568" lon="3.70273">
        <ele>934.77</ele>
        <time>2020-05-24T11:18:39Z</time>
      </trkpt>
      <trkpt lat="45.91573" lon="3.70277">
        <ele>935.35</ele>
        <time>2020-05-24T11:18:56Z</time>
      </trkpt>
      <trkpt lat="45.91576" lon="3.7028">
        <ele>935.79</ele>
        <time>2020-05-24T11:19:09Z</time>
      </trkpt>
      <trkpt lat="45.91596" lon="3.70302">
        <ele>936.45</ele>
        <time>2020-05-24T11:19:28Z</time>
      </trkpt>
      <trkpt lat="45.91612" lon="3.70318">
        <ele>935.03</ele>
        <time>2020-05-24T11:19:43Z</time>
      </trkpt>
      <trkpt lat="45.91628" lon="3.70326">
        <ele>934.77</ele>
        <time>2020-05-24T11:19:59Z</time>
      </trkpt>
      <trkpt lat="45.91652" lon="3.70334">
        <ele>934.98</ele>
        <time>2020-05-24T11:20:21Z</time>
      </trkpt>
      <trkpt lat="45.91659" lon="3.70337">
        <ele>935.32</ele>
        <time>2020-05-24T11:20:27Z</time>
      </trkpt>
      <trkpt lat="45.91681" lon="3.70343">
        <ele>934.96</ele>
        <time>2020-05-24T11:20:43Z</time>
      </trkpt>
      <trkpt lat="45.91699" lon="3.70356">
        <ele>935.11</ele>
        <time>2020-05-24T11:20:57Z</time>
      </trkpt>
      <trkpt lat="45.91709" lon="3.70373">
        <ele>935.76</ele>
        <time>2020-05-24T11:21:10Z</time>
      </trkpt>
      <trkpt lat="45.91715" lon="3.70393">
        <ele>935.71</ele>
        <time>2020-05-24T11:21:24Z</time>
      </trkpt>
      <trkpt lat="45.91725" lon="3.70423">
        <ele>936.48</ele>
        <time>2020-05-24T11:21:45Z</time>
      </trkpt>
      <trkpt lat="45.91741" lon="3.7045">
        <ele>936.49</ele>
        <time>2020-05-24T11:22:04Z</time>
      </trkpt>
      <trkpt lat="45.91756" lon="3.70461">
        <ele>936</ele>
        <time>2020-05-24T11:22:18Z</time>
      </trkpt>
      <trkpt lat="45.91759" lon="3.70463">
        <ele>936.5</ele>
        <time>2020-05-24T11:22:20Z</time>
      </trkpt>
      <trkpt lat="45.91768" lon="3.70469">
        <ele>936.01</ele>
        <time>2020-05-24T11:22:28Z</time>
      </trkpt>
      <trkpt lat="45.91787" lon="3.70476">
        <ele>935.99</ele>
        <time>2020-05-24T11:22:45Z</time>
      </trkpt>
      <trkpt lat="45.91802" lon="3.70481">
        <ele>936.58</ele>
        <time>2020-05-24T11:22:58Z</time>
      </trkpt>
      <trkpt lat="45.9181" lon="3.70481">
        <ele>935.61</ele>
        <time>2020-05-24T11:23:06Z</time>
      </trkpt>
      <trkpt lat="45.9182" lon="3.70482">
        <ele>936.61</ele>
        <time>2020-05-24T11:23:19Z</time>
      </trkpt>
      <trkpt lat="45.91835" lon="3.70483">
        <ele>936.22</ele>
        <time>2020-05-24T11:23:33Z</time>
      </trkpt>
      <trkpt lat="45.91858" lon="3.70481">
        <ele>937.44</ele>
        <time>2020-05-24T11:23:53Z</time>
      </trkpt>
      <trkpt lat="45.91886" lon="3.70482">
        <ele>938.3</ele>
        <time>2020-05-24T11:24:13Z</time>
      </trkpt>
      <trkpt lat="45.91902" lon="3.70477">
        <ele>938.78</ele>
        <time>2020-05-24T11:24:24Z</time>
      </trkpt>
      <trkpt lat="45.91905" lon="3.70476">
        <ele>938.85</ele>
        <time>2020-05-24T11:24:26Z</time>
      </trkpt>
      <trkpt lat="45.91909" lon="3.70474">
        <ele>938.94</ele>
        <time>2020-05-24T11:24:29Z</time>
      </trkpt>
      <trkpt lat="45.91917" lon="3.70471">
        <ele>939.12</ele>
        <time>2020-05-24T11:24:34Z</time>
      </trkpt>
      <trkpt lat="45.91929" lon="3.70465">
        <ele>939.03</ele>
        <time>2020-05-24T11:24:45Z</time>
      </trkpt>
      <trkpt lat="45.91938" lon="3.70464">
        <ele>939.32</ele>
        <time>2020-05-24T11:24:52Z</time>
      </trkpt>
      <trkpt lat="45.91958" lon="3.70477">
        <ele>938.52</ele>
        <time>2020-05-24T11:25:12Z</time>
      </trkpt>
      <trkpt lat="45.91969" lon="3.70487">
        <ele>939.93</ele>
        <time>2020-05-24T11:25:24Z</time>
      </trkpt>
      <trkpt lat="45.91982" lon="3.70488">
        <ele>941.64</ele>
        <time>2020-05-24T11:25:44Z</time>
      </trkpt>
      <trkpt lat="45.9199" lon="3.70507">
        <ele>944.07</ele>
        <time>2020-05-24T11:26:03Z</time>
      </trkpt>
      <trkpt lat="45.91993" lon="3.70525">
        <ele>946.06</ele>
        <time>2020-05-24T11:26:17Z</time>
      </trkpt>
      <trkpt lat="45.91998" lon="3.70539">
        <ele>947.74</ele>
        <time>2020-05-24T11:26:36Z</time>
      </trkpt>
      <trkpt lat="45.92001" lon="3.70551">
        <ele>949.93</ele>
        <time>2020-05-24T11:26:52Z</time>
      </trkpt>
      <trkpt lat="45.92007" lon="3.70574">
        <ele>953.42</ele>
        <time>2020-05-24T11:27:13Z</time>
      </trkpt>
      <trkpt lat="45.92008" lon="3.70576">
        <ele>953.91</ele>
        <time>2020-05-24T11:27:18Z</time>
      </trkpt>
      <trkpt lat="45.92007" lon="3.70598">
        <ele>957.23</ele>
        <time>2020-05-24T11:27:39Z</time>
      </trkpt>
      <trkpt lat="45.92004" lon="3.70615">
        <ele>959.44</ele>
        <time>2020-05-24T11:28:02Z</time>
      </trkpt>
      <trkpt lat="45.92004" lon="3.70612">
        <ele>960.06</ele>
        <time>2020-05-24T11:28:25Z</time>
      </trkpt>
      <trkpt lat="45.92003" lon="3.70618">
        <ele>959.13</ele>
        <time>2020-05-24T11:28:39Z</time>
      </trkpt>
      <trkpt lat="45.92006" lon="3.70622">
        <ele>960.48</ele>
        <time>2020-05-24T11:29:07Z</time>
      </trkpt>
      <trkpt lat="45.92005" lon="3.70637">
        <ele>961.03</ele>
        <time>2020-05-24T11:29:30Z</time>
      </trkpt>
      <trkpt lat="45.92011" lon="3.70643">
        <ele>963.61</ele>
        <time>2020-05-24T11:29:53Z</time>
      </trkpt>
      <trkpt lat="45.92017" lon="3.70649">
        <ele>966.67</ele>
        <time>2020-05-24T11:30:13Z</time>
      </trkpt>
      <trkpt lat="45.92018" lon="3.70649">
        <ele>967.02</ele>
        <time>2020-05-24T11:30:15Z</time>
      </trkpt>
      <trkpt lat="45.92027" lon="3.70654">
        <ele>969.6</ele>
        <time>2020-05-24T11:30:37Z</time>
      </trkpt>
      <trkpt lat="45.92033" lon="3.70661">
        <ele>972.72</ele>
        <time>2020-05-24T11:30:57Z</time>
      </trkpt>
      <trkpt lat="45.92037" lon="3.7067">
        <ele>975.89</ele>
        <time>2020-05-24T11:31:12Z</time>
      </trkpt>
      <trkpt lat="45.92042" lon="3.70682">
        <ele>978.66</ele>
        <time>2020-05-24T11:31:34Z</time>
      </trkpt>
      <trkpt lat="45.92045" lon="3.70695">
        <ele>981.57</ele>
        <time>2020-05-24T11:31:53Z</time>
      </trkpt>
      <trkpt lat="45.92049" lon="3.70707">
        <ele>984.62</ele>
        <time>2020-05-24T11:32:13Z</time>
      </trkpt>
      <trkpt lat="45.92053" lon="3.70726">
        <ele>987.72</ele>
        <time>2020-05-24T11:32:35Z</time>
      </trkpt>
      <trkpt lat="45.92058" lon="3.70745">
        <ele>990.8</ele>
        <time>2020-05-24T11:32:58Z</time>
      </trkpt>
      <trkpt lat="45.92065" lon="3.70761">
        <ele>993.43</ele>
        <time>2020-05-24T11:33:22Z</time>
      </trkpt>
      <trkpt lat="45.92071" lon="3.70777">
        <ele>996.48</ele>
        <time>2020-05-24T11:33:44Z</time>
      </trkpt>
      <trkpt lat="45.92078" lon="3.70795">
        <ele>999.57</ele>
        <time>2020-05-24T11:34:10Z</time>
      </trkpt>
      <trkpt lat="45.92078" lon="3.70828">
        <ele>1001.25</ele>
        <time>2020-05-24T11:34:33Z</time>
      </trkpt>
      <trkpt lat="45.92082" lon="3.7085">
        <ele>1003.94</ele>
        <time>2020-05-24T11:34:58Z</time>
      </trkpt>
      <trkpt lat="45.92086" lon="3.70869">
        <ele>1006.74</ele>
        <time>2020-05-24T11:35:19Z</time>
      </trkpt>
      <trkpt lat="45.92088" lon="3.70881">
        <ele>1008.67</ele>
        <time>2020-05-24T11:35:34Z</time>
      </trkpt>
      <trkpt lat="45.92093" lon="3.70897">
        <ele>1011.33</ele>
        <time>2020-05-24T11:35:55Z</time>
      </trkpt>
      <trkpt lat="45.92097" lon="3.7091">
        <ele>1014.7</ele>
        <time>2020-05-24T11:36:13Z</time>
      </trkpt>
      <trkpt lat="45.92105" lon="3.70926">
        <ele>1017.4</ele>
        <time>2020-05-24T11:36:34Z</time>
      </trkpt>
      <trkpt lat="45.9211" lon="3.70942">
        <ele>1020.42</ele>
        <time>2020-05-24T11:36:55Z</time>
      </trkpt>
      <trkpt lat="45.92117" lon="3.70959">
        <ele>1023.59</ele>
        <time>2020-05-24T11:37:17Z</time>
      </trkpt>
      <trkpt lat="45.92124" lon="3.70977">
        <ele>1025.82</ele>
        <time>2020-05-24T11:37:37Z</time>
      </trkpt>
      <trkpt lat="45.92125" lon="3.70982">
        <ele>1027.92</ele>
        <time>2020-05-24T11:37:58Z</time>
      </trkpt>
      <trkpt lat="45.92131" lon="3.70998">
        <ele>1030.47</ele>
        <time>2020-05-24T11:38:18Z</time>
      </trkpt>
      <trkpt lat="45.92135" lon="3.71017">
        <ele>1032.27</ele>
        <time>2020-05-24T11:38:36Z</time>
      </trkpt>
      <trkpt lat="45.92135" lon="3.71021">
        <ele>1032.63</ele>
        <time>2020-05-24T11:38:40Z</time>
      </trkpt>
      <trkpt lat="45.9214" lon="3.71034">
        <ele>1034.89</ele>
        <time>2020-05-24T11:38:55Z</time>
      </trkpt>
      <trkpt lat="45.92144" lon="3.7104">
        <ele>1036.01</ele>
        <time>2020-05-24T11:39:07Z</time>
      </trkpt>
      <trkpt lat="45.92148" lon="3.71043">
        <ele>1036.63</ele>
        <time>2020-05-24T11:39:12Z</time>
      </trkpt>
      <trkpt lat="45.92151" lon="3.71051">
        <ele>1039.89</ele>
        <time>2020-05-24T11:39:32Z</time>
      </trkpt>
      <trkpt lat="45.92157" lon="3.71068">
        <ele>1042.94</ele>
        <time>2020-05-24T11:39:59Z</time>
      </trkpt>
      <trkpt lat="45.92169" lon="3.71096">
        <ele>1046.08</ele>
        <time>2020-05-24T11:40:24Z</time>
      </trkpt>
      <trkpt lat="45.92165" lon="3.71107">
        <ele>1044.64</ele>
        <time>2020-05-24T11:40:44Z</time>
      </trkpt>
      <trkpt lat="45.92164" lon="3.71102">
        <ele>1045.18</ele>
        <time>2020-05-24T11:41:17Z</time>
      </trkpt>
      <trkpt lat="45.92162" lon="3.71102">
        <ele>1047.1</ele>
        <time>2020-05-24T11:41:30Z</time>
      </trkpt>
      <trkpt lat="45.92162" lon="3.71105">
        <ele>1030.8</ele>
        <time>2020-05-24T11:41:41Z</time>
      </trkpt>
      <trkpt lat="45.92163" lon="3.71104">
        <ele>1050.1</ele>
        <time>2020-05-24T11:41:43Z</time>
      </trkpt>
      <trkpt lat="45.92164" lon="3.71104">
        <ele>1048.7</ele>
        <time>2020-05-24T11:41:47Z</time>
      </trkpt>
      <trkpt lat="45.92165" lon="3.71108">
        <ele>1040.74</ele>
        <time>2020-05-24T11:41:58Z</time>
      </trkpt>
      <trkpt lat="45.92165" lon="3.71109">
        <ele>1052.98</ele>
        <time>2020-05-24T11:41:59Z</time>
      </trkpt>
      <trkpt lat="45.92165" lon="3.71109">
        <ele>1048.21</ele>
        <time>2020-05-24T11:42:00Z</time>
      </trkpt>
      <trkpt lat="45.92165" lon="3.71109">
        <ele>1034.61</ele>
        <time>2020-05-24T11:42:01Z</time>
      </trkpt>
      <trkpt lat="45.92165" lon="3.7111">
        <ele>1044.25</ele>
        <time>2020-05-24T11:42:02Z</time>
      </trkpt>
      <trkpt lat="45.92165" lon="3.71109">
        <ele>1048.75</ele>
        <time>2020-05-24T11:42:03Z</time>
      </trkpt>
      <trkpt lat="45.92165" lon="3.71109">
        <ele>1057.94</ele>
        <time>2020-05-24T11:42:04Z</time>
      </trkpt>
      <trkpt lat="45.92165" lon="3.7111">
        <ele>1055.7</ele>
        <time>2020-05-24T11:42:05Z</time>
      </trkpt>
      <trkpt lat="45.92166" lon="3.7111">
        <ele>1052.04</ele>
        <time>2020-05-24T11:42:06Z</time>
      </trkpt>
      <trkpt lat="45.92166" lon="3.7111">
        <ele>1050.04</ele>
        <time>2020-05-24T11:42:07Z</time>
      </trkpt>
      <trkpt lat="45.92166" lon="3.71116">
        <ele>1049.58</ele>
        <time>2020-05-24T11:42:30Z</time>
      </trkpt>
      <trkpt lat="45.92169" lon="3.71135">
        <ele>1052.62</ele>
        <time>2020-05-24T11:42:51Z</time>
      </trkpt>
      <trkpt lat="45.9217" lon="3.71141">
        <ele>1051.42</ele>
        <time>2020-05-24T11:42:59Z</time>
      </trkpt>
      <trkpt lat="45.9217" lon="3.71142">
        <ele>1054.07</ele>
        <time>2020-05-24T11:43:02Z</time>
      </trkpt>
      <trkpt lat="45.92168" lon="3.71141">
        <ele>1053.67</ele>
        <time>2020-05-24T11:43:09Z</time>
      </trkpt>
      <trkpt lat="45.92164" lon="3.71153">
        <ele>1054.63</ele>
        <time>2020-05-24T11:43:36Z</time>
      </trkpt>
      <trkpt lat="45.92165" lon="3.71163">
        <ele>1056.15</ele>
        <time>2020-05-24T11:43:58Z</time>
      </trkpt>
      <trkpt lat="45.92167" lon="3.71163">
        <ele>1056.47</ele>
        <time>2020-05-24T11:44:20Z</time>
      </trkpt>
      <trkpt lat="45.92173" lon="3.71172">
        <ele>1059.38</ele>
        <time>2020-05-24T11:44:40Z</time>
      </trkpt>
      <trkpt lat="45.92175" lon="3.71179">
        <ele>1062.09</ele>
        <time>2020-05-24T11:44:57Z</time>
      </trkpt>
      <trkpt lat="45.92175" lon="3.71185">
        <ele>1063.07</ele>
        <time>2020-05-24T11:45:04Z</time>
      </trkpt>
      <trkpt lat="45.92174" lon="3.7119">
        <ele>1063.98</ele>
        <time>2020-05-24T11:45:26Z</time>
      </trkpt>
      <trkpt lat="45.92174" lon="3.71202">
        <ele>1066.33</ele>
        <time>2020-05-24T11:45:42Z</time>
      </trkpt>
      <trkpt lat="45.92175" lon="3.71214">
        <ele>1069.7</ele>
        <time>2020-05-24T11:46:04Z</time>
      </trkpt>
      <trkpt lat="45.92177" lon="3.71223">
        <ele>1071.35</ele>
        <time>2020-05-24T11:46:13Z</time>
      </trkpt>
      <trkpt lat="45.92179" lon="3.71242">
        <ele>1074.53</ele>
        <time>2020-05-24T11:46:37Z</time>
      </trkpt>
      <trkpt lat="45.9218" lon="3.71244">
        <ele>1075</ele>
        <time>2020-05-24T11:46:40Z</time>
      </trkpt>
      <trkpt lat="45.92177" lon="3.71264">
        <ele>1077.63</ele>
        <time>2020-05-24T11:47:01Z</time>
      </trkpt>
      <trkpt lat="45.92175" lon="3.71277">
        <ele>1080.07</ele>
        <time>2020-05-24T11:47:19Z</time>
      </trkpt>
      <trkpt lat="45.92175" lon="3.71279">
        <ele>1080.44</ele>
        <time>2020-05-24T11:47:24Z</time>
      </trkpt>
      <trkpt lat="45.9218" lon="3.71299">
        <ele>1083.46</ele>
        <time>2020-05-24T11:47:45Z</time>
      </trkpt>
      <trkpt lat="45.92182" lon="3.71317">
        <ele>1086.54</ele>
        <time>2020-05-24T11:48:04Z</time>
      </trkpt>
      <trkpt lat="45.92181" lon="3.71334">
        <ele>1088.7</ele>
        <time>2020-05-24T11:48:23Z</time>
      </trkpt>
      <trkpt lat="45.92179" lon="3.7134">
        <ele>1088.4</ele>
        <time>2020-05-24T11:48:35Z</time>
      </trkpt>
      <trkpt lat="45.92174" lon="3.71343">
        <ele>1088.7</ele>
        <time>2020-05-24T11:49:10Z</time>
      </trkpt>
      <trkpt lat="45.92174" lon="3.71341">
        <ele>1088.42</ele>
        <time>2020-05-24T11:49:21Z</time>
      </trkpt>
      <trkpt lat="45.92179" lon="3.71358">
        <ele>1090.53</ele>
        <time>2020-05-24T11:49:40Z</time>
      </trkpt>
      <trkpt lat="45.92182" lon="3.71384">
        <ele>1093.77</ele>
        <time>2020-05-24T11:49:59Z</time>
      </trkpt>
      <trkpt lat="45.92184" lon="3.71415">
        <ele>1095.72</ele>
        <time>2020-05-24T11:50:21Z</time>
      </trkpt>
      <trkpt lat="45.92182" lon="3.71419">
        <ele>1090.85</ele>
        <time>2020-05-24T11:50:28Z</time>
      </trkpt>
      <trkpt lat="45.92182" lon="3.71419">
        <ele>1090.85</ele>
        <time>2020-05-24T11:50:29Z</time>
      </trkpt>
      <trkpt lat="45.92181" lon="3.71419">
        <ele>1095.46</ele>
        <time>2020-05-24T11:50:33Z</time>
      </trkpt>
      <trkpt lat="45.9218" lon="3.71419">
        <ele>1095.2</ele>
        <time>2020-05-24T11:50:34Z</time>
      </trkpt>
      <trkpt lat="45.92172" lon="3.7141">
        <ele>1094.92</ele>
        <time>2020-05-24T11:51:01Z</time>
      </trkpt>
      <trkpt lat="45.92169" lon="3.71408">
        <ele>1094.32</ele>
        <time>2020-05-24T11:51:15Z</time>
      </trkpt>
      <trkpt lat="45.92171" lon="3.71414">
        <ele>1093.97</ele>
        <time>2020-05-24T11:51:43Z</time>
      </trkpt>
      <trkpt lat="45.92173" lon="3.71416">
        <ele>1095.38</ele>
        <time>2020-05-24T11:51:52Z</time>
      </trkpt>
      <trkpt lat="45.92176" lon="3.71415">
        <ele>1095.78</ele>
        <time>2020-05-24T11:51:55Z</time>
      </trkpt>
      <trkpt lat="45.92178" lon="3.71417">
        <ele>1095.55</ele>
        <time>2020-05-24T11:52:22Z</time>
      </trkpt>
      <trkpt lat="45.92174" lon="3.71417">
        <ele>1095.55</ele>
        <time>2020-05-24T11:52:48Z</time>
      </trkpt>
      <trkpt lat="45.92174" lon="3.71415">
        <ele>1095.53</ele>
        <time>2020-05-24T11:52:56Z</time>
      </trkpt>
      <trkpt lat="45.92178" lon="3.7142">
        <ele>1095.17</ele>
        <time>2020-05-24T11:53:06Z</time>
      </trkpt>
      <trkpt lat="45.92182" lon="3.71423">
        <ele>1094.38</ele>
        <time>2020-05-24T11:53:34Z</time>
      </trkpt>
      <trkpt lat="45.92182" lon="3.71424">
        <ele>1098.81</ele>
        <time>2020-05-24T11:53:46Z</time>
      </trkpt>
      <trkpt lat="45.92182" lon="3.71424">
        <ele>1098.1</ele>
        <time>2020-05-24T11:53:47Z</time>
      </trkpt>
      <trkpt lat="45.92184" lon="3.71423">
        <ele>1094.79</ele>
        <time>2020-05-24T11:53:50Z</time>
      </trkpt>
      <trkpt lat="45.92183" lon="3.71421">
        <ele>1095.64</ele>
        <time>2020-05-24T11:54:02Z</time>
      </trkpt>
      <trkpt lat="45.92186" lon="3.71417">
        <ele>1095.3</ele>
        <time>2020-05-24T11:54:26Z</time>
      </trkpt>
      <trkpt lat="45.92186" lon="3.7143">
        <ele>1096.28</ele>
        <time>2020-05-24T11:54:38Z</time>
      </trkpt>
      <trkpt lat="45.92184" lon="3.71446">
        <ele>1097.87</ele>
        <time>2020-05-24T11:54:48Z</time>
      </trkpt>
      <trkpt lat="45.92184" lon="3.7145">
        <ele>1098.04</ele>
        <time>2020-05-24T11:54:50Z</time>
      </trkpt>
      <trkpt lat="45.92182" lon="3.71483">
        <ele>1099.5</ele>
        <time>2020-05-24T11:55:11Z</time>
      </trkpt>
      <trkpt lat="45.92183" lon="3.71503">
        <ele>1100.32</ele>
        <time>2020-05-24T11:55:24Z</time>
      </trkpt>
      <trkpt lat="45.92187" lon="3.71524">
        <ele>1101.42</ele>
        <time>2020-05-24T11:55:39Z</time>
      </trkpt>
      <trkpt lat="45.92191" lon="3.71541">
        <ele>1102.39</ele>
        <time>2020-05-24T11:55:50Z</time>
      </trkpt>
      <trkpt lat="45.92207" lon="3.71565">
        <ele>1105.02</ele>
        <time>2020-05-24T11:56:13Z</time>
      </trkpt>
      <trkpt lat="45.92223" lon="3.71576">
        <ele>1107.68</ele>
        <time>2020-05-24T11:56:37Z</time>
      </trkpt>
      <trkpt lat="45.92223" lon="3.71577">
        <ele>1107.64</ele>
        <time>2020-05-24T11:56:40Z</time>
      </trkpt>
      <trkpt lat="45.9222" lon="3.71576">
        <ele>1107</ele>
        <time>2020-05-24T11:57:04Z</time>
      </trkpt>
      <trkpt lat="45.92221" lon="3.71578">
        <ele>1107.54</ele>
        <time>2020-05-24T11:57:24Z</time>
      </trkpt>
      <trkpt lat="45.92229" lon="3.71591">
        <ele>1109.21</ele>
        <time>2020-05-24T11:57:40Z</time>
      </trkpt>
      <trkpt lat="45.92233" lon="3.71599">
        <ele>1109.9</ele>
        <time>2020-05-24T11:57:46Z</time>
      </trkpt>
      <trkpt lat="45.92233" lon="3.71611">
        <ele>1110.8</ele>
        <time>2020-05-24T11:58:00Z</time>
      </trkpt>
      <trkpt lat="45.92239" lon="3.71627">
        <ele>1110.6</ele>
        <time>2020-05-24T11:58:09Z</time>
      </trkpt>
      <trkpt lat="45.92244" lon="3.71634">
        <ele>1110.67</ele>
        <time>2020-05-24T11:58:17Z</time>
      </trkpt>
      <trkpt lat="45.92245" lon="3.71639">
        <ele>1111.47</ele>
        <time>2020-05-24T11:58:21Z</time>
      </trkpt>
      <trkpt lat="45.92246" lon="3.71641">
        <ele>1111.84</ele>
        <time>2020-05-24T11:58:23Z</time>
      </trkpt>
      <trkpt lat="45.92247" lon="3.71647">
        <ele>1112.98</ele>
        <time>2020-05-24T11:58:28Z</time>
      </trkpt>
      <trkpt lat="45.9225" lon="3.71674">
        <ele>1113.79</ele>
        <time>2020-05-24T11:58:44Z</time>
      </trkpt>
      <trkpt lat="45.9225" lon="3.71676">
        <ele>1113.8</ele>
        <time>2020-05-24T11:58:45Z</time>
      </trkpt>
      <trkpt lat="45.9225" lon="3.71685">
        <ele>1114.12</ele>
        <time>2020-05-24T11:58:50Z</time>
      </trkpt>
      <trkpt lat="45.92253" lon="3.71697">
        <ele>1115.48</ele>
        <time>2020-05-24T11:58:57Z</time>
      </trkpt>
      <trkpt lat="45.92257" lon="3.71721">
        <ele>1115.9</ele>
        <time>2020-05-24T11:59:12Z</time>
      </trkpt>
      <trkpt lat="45.92261" lon="3.71753">
        <ele>1118.22</ele>
        <time>2020-05-24T11:59:31Z</time>
      </trkpt>
      <trkpt lat="45.92264" lon="3.71778">
        <ele>1117.97</ele>
        <time>2020-05-24T11:59:47Z</time>
      </trkpt>
      <trkpt lat="45.92265" lon="3.71788">
        <ele>1118.6</ele>
        <time>2020-05-24T11:59:53Z</time>
      </trkpt>
      <trkpt lat="45.92266" lon="3.71793">
        <ele>1118.85</ele>
        <time>2020-05-24T11:59:56Z</time>
      </trkpt>
      <trkpt lat="45.92269" lon="3.71822">
        <ele>1118.71</ele>
        <time>2020-05-24T12:00:15Z</time>
      </trkpt>
      <trkpt lat="45.92272" lon="3.71838">
        <ele>1119.18</ele>
        <time>2020-05-24T12:00:24Z</time>
      </trkpt>
      <trkpt lat="45.92282" lon="3.7187">
        <ele>1120</ele>
        <time>2020-05-24T12:00:42Z</time>
      </trkpt>
      <trkpt lat="45.92285" lon="3.71889">
        <ele>1120.43</ele>
        <time>2020-05-24T12:00:51Z</time>
      </trkpt>
      <trkpt lat="45.92288" lon="3.71903">
        <ele>1120.4</ele>
        <time>2020-05-24T12:01:03Z</time>
      </trkpt>
      <trkpt lat="45.9229" lon="3.7191">
        <ele>1120.33</ele>
        <time>2020-05-24T12:01:09Z</time>
      </trkpt>
      <trkpt lat="45.92292" lon="3.71919">
        <ele>1120.26</ele>
        <time>2020-05-24T12:01:14Z</time>
      </trkpt>
      <trkpt lat="45.92295" lon="3.7195">
        <ele>1120.95</ele>
        <time>2020-05-24T12:01:30Z</time>
      </trkpt>
      <trkpt lat="45.92298" lon="3.71976">
        <ele>1121.84</ele>
        <time>2020-05-24T12:01:46Z</time>
      </trkpt>
      <trkpt lat="45.923" lon="3.71987">
        <ele>1122.22</ele>
        <time>2020-05-24T12:01:57Z</time>
      </trkpt>
      <trkpt lat="45.92299" lon="3.71991">
        <ele>1122.28</ele>
        <time>2020-05-24T12:01:59Z</time>
      </trkpt>
      <trkpt lat="45.92299" lon="3.71999">
        <ele>1122.43</ele>
        <time>2020-05-24T12:02:02Z</time>
      </trkpt>
      <trkpt lat="45.92296" lon="3.72025">
        <ele>1123.19</ele>
        <time>2020-05-24T12:02:17Z</time>
      </trkpt>
      <trkpt lat="45.92293" lon="3.72041">
        <ele>1123.54</ele>
        <time>2020-05-24T12:02:27Z</time>
      </trkpt>
      <trkpt lat="45.92289" lon="3.72063">
        <ele>1124.44</ele>
        <time>2020-05-24T12:02:41Z</time>
      </trkpt>
      <trkpt lat="45.92289" lon="3.7207">
        <ele>1124.83</ele>
        <time>2020-05-24T12:02:45Z</time>
      </trkpt>
      <trkpt lat="45.92285" lon="3.72091">
        <ele>1125.54</ele>
        <time>2020-05-24T12:03:00Z</time>
      </trkpt>
      <trkpt lat="45.92287" lon="3.72099">
        <ele>1125.52</ele>
        <time>2020-05-24T12:03:06Z</time>
      </trkpt>
      <trkpt lat="45.92287" lon="3.72108">
        <ele>1127.14</ele>
        <time>2020-05-24T12:03:25Z</time>
      </trkpt>
      <trkpt lat="45.92286" lon="3.72109">
        <ele>1125.82</ele>
        <time>2020-05-24T12:03:27Z</time>
      </trkpt>
      <trkpt lat="45.92286" lon="3.72114">
        <ele>1125.86</ele>
        <time>2020-05-24T12:03:50Z</time>
      </trkpt>
      <trkpt lat="45.92289" lon="3.72113">
        <ele>1126.53</ele>
        <time>2020-05-24T12:04:12Z</time>
      </trkpt>
      <trkpt lat="45.92292" lon="3.72112">
        <ele>1126.54</ele>
        <time>2020-05-24T12:04:14Z</time>
      </trkpt>
      <trkpt lat="45.92298" lon="3.72106">
        <ele>1126.26</ele>
        <time>2020-05-24T12:04:22Z</time>
      </trkpt>
      <trkpt lat="45.92302" lon="3.72099">
        <ele>1126.35</ele>
        <time>2020-05-24T12:04:28Z</time>
      </trkpt>
      <trkpt lat="45.92304" lon="3.72094">
        <ele>1126.13</ele>
        <time>2020-05-24T12:04:31Z</time>
      </trkpt>
      <trkpt lat="45.92308" lon="3.72078">
        <ele>1126.31</ele>
        <time>2020-05-24T12:04:52Z</time>
      </trkpt>
      <trkpt lat="45.9231" lon="3.72072">
        <ele>1126.3</ele>
        <time>2020-05-24T12:05:08Z</time>
      </trkpt>
      <trkpt lat="45.92313" lon="3.72067">
        <ele>1126.6</ele>
        <time>2020-05-24T12:05:14Z</time>
      </trkpt>
      <trkpt lat="45.92315" lon="3.7206">
        <ele>1126.93</ele>
        <time>2020-05-24T12:05:18Z</time>
      </trkpt>
      <trkpt lat="45.92314" lon="3.72047">
        <ele>1126.97</ele>
        <time>2020-05-24T12:05:26Z</time>
      </trkpt>
      <trkpt lat="45.92322" lon="3.72031">
        <ele>1126.97</ele>
        <time>2020-05-24T12:05:34Z</time>
      </trkpt>
      <trkpt lat="45.92327" lon="3.72016">
        <ele>1127.19</ele>
        <time>2020-05-24T12:05:42Z</time>
      </trkpt>
      <trkpt lat="45.9233" lon="3.72006">
        <ele>1126.78</ele>
        <time>2020-05-24T12:05:48Z</time>
      </trkpt>
      <trkpt lat="45.92337" lon="3.71993">
        <ele>1127.44</ele>
        <time>2020-05-24T12:05:58Z</time>
      </trkpt>
      <trkpt lat="45.9235" lon="3.71972">
        <ele>1128.67</ele>
        <time>2020-05-24T12:06:20Z</time>
      </trkpt>
      <trkpt lat="45.92351" lon="3.71965">
        <ele>1130.46</ele>
        <time>2020-05-24T12:06:26Z</time>
      </trkpt>
      <trkpt lat="45.92358" lon="3.71944">
        <ele>1129.86</ele>
        <time>2020-05-24T12:06:44Z</time>
      </trkpt>
      <trkpt lat="45.92365" lon="3.71925">
        <ele>1130.65</ele>
        <time>2020-05-24T12:07:00Z</time>
      </trkpt>
      <trkpt lat="45.92366" lon="3.7192">
        <ele>1126.99</ele>
        <time>2020-05-24T12:07:04Z</time>
      </trkpt>
      <trkpt lat="45.92367" lon="3.71919">
        <ele>1133.76</ele>
        <time>2020-05-24T12:07:05Z</time>
      </trkpt>
      <trkpt lat="45.92375" lon="3.71894">
        <ele>1133.23</ele>
        <time>2020-05-24T12:07:18Z</time>
      </trkpt>
      <trkpt lat="45.92387" lon="3.71869">
        <ele>1135.28</ele>
        <time>2020-05-24T12:07:33Z</time>
      </trkpt>
      <trkpt lat="45.92394" lon="3.71845">
        <ele>1137.41</ele>
        <time>2020-05-24T12:07:51Z</time>
      </trkpt>
      <trkpt lat="45.92401" lon="3.71821">
        <ele>1140.49</ele>
        <time>2020-05-24T12:08:10Z</time>
      </trkpt>
      <trkpt lat="45.92406" lon="3.71792">
        <ele>1143.56</ele>
        <time>2020-05-24T12:08:30Z</time>
      </trkpt>
      <trkpt lat="45.9241" lon="3.71767">
        <ele>1145.43</ele>
        <time>2020-05-24T12:08:49Z</time>
      </trkpt>
      <trkpt lat="45.92405" lon="3.71727">
        <ele>1146.37</ele>
        <time>2020-05-24T12:09:09Z</time>
      </trkpt>
      <trkpt lat="45.92405" lon="3.71698">
        <ele>1147.13</ele>
        <time>2020-05-24T12:09:24Z</time>
      </trkpt>
      <trkpt lat="45.92406" lon="3.71681">
        <ele>1147.66</ele>
        <time>2020-05-24T12:09:33Z</time>
      </trkpt>
      <trkpt lat="45.92407" lon="3.71656">
        <ele>1148.33</ele>
        <time>2020-05-24T12:09:46Z</time>
      </trkpt>
      <trkpt lat="45.92411" lon="3.71631">
        <ele>1149.48</ele>
        <time>2020-05-24T12:10:02Z</time>
      </trkpt>
      <trkpt lat="45.92415" lon="3.71612">
        <ele>1151</ele>
        <time>2020-05-24T12:10:15Z</time>
      </trkpt>
      <trkpt lat="45.9242" lon="3.71588">
        <ele>1152.54</ele>
        <time>2020-05-24T12:10:33Z</time>
      </trkpt>
      <trkpt lat="45.92421" lon="3.7158">
        <ele>1153.91</ele>
        <time>2020-05-24T12:10:38Z</time>
      </trkpt>
      <trkpt lat="45.92427" lon="3.71551">
        <ele>1156.42</ele>
        <time>2020-05-24T12:10:57Z</time>
      </trkpt>
      <trkpt lat="45.92435" lon="3.71531">
        <ele>1158.03</ele>
        <time>2020-05-24T12:11:13Z</time>
      </trkpt>
      <trkpt lat="45.92444" lon="3.71513">
        <ele>1159.88</ele>
        <time>2020-05-24T12:11:27Z</time>
      </trkpt>
      <trkpt lat="45.92457" lon="3.71498">
        <ele>1162.96</ele>
        <time>2020-05-24T12:11:45Z</time>
      </trkpt>
      <trkpt lat="45.92467" lon="3.71488">
        <ele>1164.5</ele>
        <time>2020-05-24T12:11:54Z</time>
      </trkpt>
      <trkpt lat="45.92478" lon="3.71474">
        <ele>1165.45</ele>
        <time>2020-05-24T12:12:06Z</time>
      </trkpt>
      <trkpt lat="45.92484" lon="3.71462">
        <ele>1166.37</ele>
        <time>2020-05-24T12:12:14Z</time>
      </trkpt>
      <trkpt lat="45.92484" lon="3.71456">
        <ele>1166.63</ele>
        <time>2020-05-24T12:12:17Z</time>
      </trkpt>
      <trkpt lat="45.9249" lon="3.71443">
        <ele>1167.6</ele>
        <time>2020-05-24T12:12:25Z</time>
      </trkpt>
      <trkpt lat="45.92493" lon="3.71436">
        <ele>1168.14</ele>
        <time>2020-05-24T12:12:29Z</time>
      </trkpt>
      <trkpt lat="45.92501" lon="3.7143">
        <ele>1168.37</ele>
        <time>2020-05-24T12:12:47Z</time>
      </trkpt>
      <trkpt lat="45.925" lon="3.71427">
        <ele>1166.84</ele>
        <time>2020-05-24T12:13:18Z</time>
      </trkpt>
      <trkpt lat="45.925" lon="3.71426">
        <ele>1168.05</ele>
        <time>2020-05-24T12:13:24Z</time>
      </trkpt>
      <trkpt lat="45.925" lon="3.71424">
        <ele>1166.52</ele>
        <time>2020-05-24T12:13:28Z</time>
      </trkpt>
      <trkpt lat="45.925" lon="3.71424">
        <ele>1167.8</ele>
        <time>2020-05-24T12:14:00Z</time>
      </trkpt>
      <trkpt lat="45.925" lon="3.71424">
        <ele>1167.87</ele>
        <time>2020-05-24T12:14:33Z</time>
      </trkpt>
      <trkpt lat="45.92501" lon="3.71425">
        <ele>1168.54</ele>
        <time>2020-05-24T12:14:57Z</time>
      </trkpt>
      <trkpt lat="45.92499" lon="3.71428">
        <ele>1167.23</ele>
        <time>2020-05-24T12:15:30Z</time>
      </trkpt>
      <trkpt lat="45.92501" lon="3.71429">
        <ele>1167.47</ele>
        <time>2020-05-24T12:15:57Z</time>
      </trkpt>
      <trkpt lat="45.92502" lon="3.7143">
        <ele>1167.69</ele>
        <time>2020-05-24T12:16:26Z</time>
      </trkpt>
      <trkpt lat="45.92502" lon="3.71429">
        <ele>1168.37</ele>
        <time>2020-05-24T12:16:58Z</time>
      </trkpt>
      <trkpt lat="45.92502" lon="3.71426">
        <ele>1167.99</ele>
        <time>2020-05-24T12:17:26Z</time>
      </trkpt>
      <trkpt lat="45.92504" lon="3.71421">
        <ele>1168.38</ele>
        <time>2020-05-24T12:17:29Z</time>
      </trkpt>
      <trkpt lat="45.92505" lon="3.71419">
        <ele>1168.5</ele>
        <time>2020-05-24T12:17:31Z</time>
      </trkpt>
      <trkpt lat="45.92513" lon="3.71394">
        <ele>1169.72</ele>
        <time>2020-05-24T12:17:49Z</time>
      </trkpt>
      <trkpt lat="45.92512" lon="3.71379">
        <ele>1170.08</ele>
        <time>2020-05-24T12:18:06Z</time>
      </trkpt>
      <trkpt lat="45.92513" lon="3.71372">
        <ele>1170.27</ele>
        <time>2020-05-24T12:18:11Z</time>
      </trkpt>
      <trkpt lat="45.92515" lon="3.71365">
        <ele>1170.62</ele>
        <time>2020-05-24T12:18:16Z</time>
      </trkpt>
      <trkpt lat="45.92523" lon="3.71333">
        <ele>1171.67</ele>
        <time>2020-05-24T12:18:36Z</time>
      </trkpt>
      <trkpt lat="45.92528" lon="3.71313">
        <ele>1171.98</ele>
        <time>2020-05-24T12:18:47Z</time>
      </trkpt>
      <trkpt lat="45.9253" lon="3.71307">
        <ele>1171.72</ele>
        <time>2020-05-24T12:18:51Z</time>
      </trkpt>
      <trkpt lat="45.92532" lon="3.71285">
        <ele>1171.65</ele>
        <time>2020-05-24T12:19:02Z</time>
      </trkpt>
      <trkpt lat="45.92534" lon="3.71278">
        <ele>1172.81</ele>
        <time>2020-05-24T12:19:06Z</time>
      </trkpt>
      <trkpt lat="45.92536" lon="3.7127">
        <ele>1173.54</ele>
        <time>2020-05-24T12:19:11Z</time>
      </trkpt>
      <trkpt lat="45.92541" lon="3.71247">
        <ele>1173.63</ele>
        <time>2020-05-24T12:19:25Z</time>
      </trkpt>
      <trkpt lat="45.92547" lon="3.71228">
        <ele>1174.36</ele>
        <time>2020-05-24T12:19:38Z</time>
      </trkpt>
      <trkpt lat="45.92547" lon="3.71227">
        <ele>1174.18</ele>
        <time>2020-05-24T12:19:40Z</time>
      </trkpt>
      <trkpt lat="45.92549" lon="3.71209">
        <ele>1174.77</ele>
        <time>2020-05-24T12:19:51Z</time>
      </trkpt>
      <trkpt lat="45.92552" lon="3.71188">
        <ele>1175.1</ele>
        <time>2020-05-24T12:20:01Z</time>
      </trkpt>
      <trkpt lat="45.92553" lon="3.71183">
        <ele>1175.1</ele>
        <time>2020-05-24T12:20:04Z</time>
      </trkpt>
      <trkpt lat="45.92559" lon="3.71166">
        <ele>1175.37</ele>
        <time>2020-05-24T12:20:10Z</time>
      </trkpt>
      <trkpt lat="45.92563" lon="3.71153">
        <ele>1175.75</ele>
        <time>2020-05-24T12:20:17Z</time>
      </trkpt>
      <trkpt lat="45.9257" lon="3.71141">
        <ele>1175.23</ele>
        <time>2020-05-24T12:20:26Z</time>
      </trkpt>
      <trkpt lat="45.92573" lon="3.71139">
        <ele>1175.15</ele>
        <time>2020-05-24T12:20:28Z</time>
      </trkpt>
      <trkpt lat="45.92576" lon="3.71135">
        <ele>1174.98</ele>
        <time>2020-05-24T12:20:32Z</time>
      </trkpt>
      <trkpt lat="45.92578" lon="3.71125">
        <ele>1174.64</ele>
        <time>2020-05-24T12:20:37Z</time>
      </trkpt>
      <trkpt lat="45.92589" lon="3.71096">
        <ele>1173.47</ele>
        <time>2020-05-24T12:20:52Z</time>
      </trkpt>
      <trkpt lat="45.9259" lon="3.71092">
        <ele>1173.52</ele>
        <time>2020-05-24T12:20:54Z</time>
      </trkpt>
      <trkpt lat="45.92593" lon="3.71083">
        <ele>1173.17</ele>
        <time>2020-05-24T12:20:58Z</time>
      </trkpt>
      <trkpt lat="45.92606" lon="3.71057">
        <ele>1172.46</ele>
        <time>2020-05-24T12:21:12Z</time>
      </trkpt>
      <trkpt lat="45.92613" lon="3.71053">
        <ele>1172.41</ele>
        <time>2020-05-24T12:21:17Z</time>
      </trkpt>
      <trkpt lat="45.92623" lon="3.71047">
        <ele>1172.29</ele>
        <time>2020-05-24T12:21:25Z</time>
      </trkpt>
      <trkpt lat="45.92627" lon="3.71037">
        <ele>1172.01</ele>
        <time>2020-05-24T12:21:30Z</time>
      </trkpt>
      <trkpt lat="45.92632" lon="3.7103">
        <ele>1171.92</ele>
        <time>2020-05-24T12:21:34Z</time>
      </trkpt>
      <trkpt lat="45.92635" lon="3.71024">
        <ele>1171.84</ele>
        <time>2020-05-24T12:21:38Z</time>
      </trkpt>
      <trkpt lat="45.92649" lon="3.71">
        <ele>1171.7</ele>
        <time>2020-05-24T12:21:55Z</time>
      </trkpt>
      <trkpt lat="45.92651" lon="3.70997">
        <ele>1171.54</ele>
        <time>2020-05-24T12:21:58Z</time>
      </trkpt>
      <trkpt lat="45.92654" lon="3.7099">
        <ele>1171.49</ele>
        <time>2020-05-24T12:22:03Z</time>
      </trkpt>
      <trkpt lat="45.92665" lon="3.70969">
        <ele>1171.29</ele>
        <time>2020-05-24T12:22:17Z</time>
      </trkpt>
      <trkpt lat="45.92669" lon="3.70962">
        <ele>1171.29</ele>
        <time>2020-05-24T12:22:23Z</time>
      </trkpt>
      <trkpt lat="45.9268" lon="3.70943">
        <ele>1171.27</ele>
        <time>2020-05-24T12:22:37Z</time>
      </trkpt>
      <trkpt lat="45.92683" lon="3.7094">
        <ele>1170.68</ele>
        <time>2020-05-24T12:22:55Z</time>
      </trkpt>
      <trkpt lat="45.92692" lon="3.70934">
        <ele>1170.59</ele>
        <time>2020-05-24T12:23:13Z</time>
      </trkpt>
      <trkpt lat="45.92706" lon="3.70917">
        <ele>1170.49</ele>
        <time>2020-05-24T12:23:29Z</time>
      </trkpt>
      <trkpt lat="45.92709" lon="3.70925">
        <ele>1169.33</ele>
        <time>2020-05-24T12:23:45Z</time>
      </trkpt>
      <trkpt lat="45.9271" lon="3.70932">
        <ele>1168.14</ele>
        <time>2020-05-24T12:24:05Z</time>
      </trkpt>
      <trkpt lat="45.9271" lon="3.7093">
        <ele>1169.08</ele>
        <time>2020-05-24T12:24:28Z</time>
      </trkpt>
      <trkpt lat="45.92712" lon="3.70924">
        <ele>1169.38</ele>
        <time>2020-05-24T12:24:50Z</time>
      </trkpt>
      <trkpt lat="45.92716" lon="3.70911">
        <ele>1169.35</ele>
        <time>2020-05-24T12:25:00Z</time>
      </trkpt>
      <trkpt lat="45.92724" lon="3.70908">
        <ele>1169.41</ele>
        <time>2020-05-24T12:25:11Z</time>
      </trkpt>
      <trkpt lat="45.92743" lon="3.70901">
        <ele>1169.3</ele>
        <time>2020-05-24T12:25:28Z</time>
      </trkpt>
      <trkpt lat="45.9275" lon="3.70898">
        <ele>1169.22</ele>
        <time>2020-05-24T12:25:35Z</time>
      </trkpt>
      <trkpt lat="45.92757" lon="3.70896">
        <ele>1169.42</ele>
        <time>2020-05-24T12:25:41Z</time>
      </trkpt>
      <trkpt lat="45.92776" lon="3.70893">
        <ele>1169.16</ele>
        <time>2020-05-24T12:25:55Z</time>
      </trkpt>
      <trkpt lat="45.92789" lon="3.70888">
        <ele>1168.81</ele>
        <time>2020-05-24T12:26:07Z</time>
      </trkpt>
      <trkpt lat="45.92795" lon="3.70884">
        <ele>1168.87</ele>
        <time>2020-05-24T12:26:13Z</time>
      </trkpt>
      <trkpt lat="45.92803" lon="3.70881">
        <ele>1168.39</ele>
        <time>2020-05-24T12:26:19Z</time>
      </trkpt>
      <trkpt lat="45.92816" lon="3.70878">
        <ele>1168.6</ele>
        <time>2020-05-24T12:26:30Z</time>
      </trkpt>
      <trkpt lat="45.92829" lon="3.70872">
        <ele>1167.51</ele>
        <time>2020-05-24T12:26:43Z</time>
      </trkpt>
      <trkpt lat="45.92852" lon="3.70867">
        <ele>1166.68</ele>
        <time>2020-05-24T12:26:58Z</time>
      </trkpt>
      <trkpt lat="45.92865" lon="3.70862">
        <ele>1166.21</ele>
        <time>2020-05-24T12:27:11Z</time>
      </trkpt>
      <trkpt lat="45.92883" lon="3.70853">
        <ele>1165.4</ele>
        <time>2020-05-24T12:27:31Z</time>
      </trkpt>
      <trkpt lat="45.929" lon="3.70838">
        <ele>1165.26</ele>
        <time>2020-05-24T12:27:51Z</time>
      </trkpt>
      <trkpt lat="45.92912" lon="3.70825">
        <ele>1164.79</ele>
        <time>2020-05-24T12:28:05Z</time>
      </trkpt>
      <trkpt lat="45.92914" lon="3.70824">
        <ele>1164.8</ele>
        <time>2020-05-24T12:28:07Z</time>
      </trkpt>
      <trkpt lat="45.92922" lon="3.70815">
        <ele>1165.24</ele>
        <time>2020-05-24T12:28:17Z</time>
      </trkpt>
      <trkpt lat="45.92925" lon="3.70811">
        <ele>1165.2</ele>
        <time>2020-05-24T12:28:21Z</time>
      </trkpt>
      <trkpt lat="45.92931" lon="3.70803">
        <ele>1165.33</ele>
        <time>2020-05-24T12:28:28Z</time>
      </trkpt>
      <trkpt lat="45.92938" lon="3.70794">
        <ele>1165.18</ele>
        <time>2020-05-24T12:28:35Z</time>
      </trkpt>
      <trkpt lat="45.92953" lon="3.70793">
        <ele>1165.33</ele>
        <time>2020-05-24T12:28:40Z</time>
      </trkpt>
      <trkpt lat="45.92971" lon="3.70781">
        <ele>1165.65</ele>
        <time>2020-05-24T12:28:54Z</time>
      </trkpt>
      <trkpt lat="45.92975" lon="3.70774">
        <ele>1165.7</ele>
        <time>2020-05-24T12:28:58Z</time>
      </trkpt>
      <trkpt lat="45.92978" lon="3.70755">
        <ele>1166.19</ele>
        <time>2020-05-24T12:29:07Z</time>
      </trkpt>
      <trkpt lat="45.92988" lon="3.70743">
        <ele>1166.98</ele>
        <time>2020-05-24T12:29:20Z</time>
      </trkpt>
      <trkpt lat="45.93017" lon="3.70734">
        <ele>1168.36</ele>
        <time>2020-05-24T12:29:39Z</time>
      </trkpt>
      <trkpt lat="45.93043" lon="3.70731">
        <ele>1170.24</ele>
        <time>2020-05-24T12:30:01Z</time>
      </trkpt>
      <trkpt lat="45.9305" lon="3.70735">
        <ele>1171.28</ele>
        <time>2020-05-24T12:30:28Z</time>
      </trkpt>
      <trkpt lat="45.93061" lon="3.70744">
        <ele>1171.94</ele>
        <time>2020-05-24T12:30:43Z</time>
      </trkpt>
      <trkpt lat="45.93077" lon="3.70752">
        <ele>1173.07</ele>
        <time>2020-05-24T12:30:59Z</time>
      </trkpt>
      <trkpt lat="45.93095" lon="3.70757">
        <ele>1174</ele>
        <time>2020-05-24T12:31:18Z</time>
      </trkpt>
      <trkpt lat="45.93108" lon="3.70759">
        <ele>1175.59</ele>
        <time>2020-05-24T12:31:33Z</time>
      </trkpt>
      <trkpt lat="45.93125" lon="3.70761">
        <ele>1177.03</ele>
        <time>2020-05-24T12:31:50Z</time>
      </trkpt>
      <trkpt lat="45.93144" lon="3.70756">
        <ele>1178.58</ele>
        <time>2020-05-24T12:32:09Z</time>
      </trkpt>
      <trkpt lat="45.93172" lon="3.70751">
        <ele>1179.56</ele>
        <time>2020-05-24T12:32:29Z</time>
      </trkpt>
      <trkpt lat="45.93181" lon="3.70748">
        <ele>1180.14</ele>
        <time>2020-05-24T12:32:34Z</time>
      </trkpt>
      <trkpt lat="45.9319" lon="3.70748">
        <ele>1181.18</ele>
        <time>2020-05-24T12:32:42Z</time>
      </trkpt>
      <trkpt lat="45.93197" lon="3.70747">
        <ele>1180.66</ele>
        <time>2020-05-24T12:33:04Z</time>
      </trkpt>
      <trkpt lat="45.93209" lon="3.70734">
        <ele>1182.69</ele>
        <time>2020-05-24T12:33:27Z</time>
      </trkpt>
      <trkpt lat="45.9322" lon="3.70725">
        <ele>1182.79</ele>
        <time>2020-05-24T12:33:39Z</time>
      </trkpt>
      <trkpt lat="45.93232" lon="3.70716">
        <ele>1183.82</ele>
        <time>2020-05-24T12:33:51Z</time>
      </trkpt>
      <trkpt lat="45.93242" lon="3.70706">
        <ele>1184.19</ele>
        <time>2020-05-24T12:34:03Z</time>
      </trkpt>
      <trkpt lat="45.93256" lon="3.7069">
        <ele>1184.15</ele>
        <time>2020-05-24T12:34:18Z</time>
      </trkpt>
      <trkpt lat="45.93259" lon="3.70684">
        <ele>1184.31</ele>
        <time>2020-05-24T12:34:23Z</time>
      </trkpt>
      <trkpt lat="45.93262" lon="3.70679">
        <ele>1184.38</ele>
        <time>2020-05-24T12:34:27Z</time>
      </trkpt>
      <trkpt lat="45.9328" lon="3.70663">
        <ele>1183.93</ele>
        <time>2020-05-24T12:34:41Z</time>
      </trkpt>
      <trkpt lat="45.93286" lon="3.70653">
        <ele>1183.74</ele>
        <time>2020-05-24T12:34:49Z</time>
      </trkpt>
      <trkpt lat="45.93295" lon="3.70643">
        <ele>1183.77</ele>
        <time>2020-05-24T12:34:58Z</time>
      </trkpt>
      <trkpt lat="45.93296" lon="3.70635">
        <ele>1183.6</ele>
        <time>2020-05-24T12:35:03Z</time>
      </trkpt>
      <trkpt lat="45.93308" lon="3.70623">
        <ele>1183.88</ele>
        <time>2020-05-24T12:35:13Z</time>
      </trkpt>
      <trkpt lat="45.9332" lon="3.70614">
        <ele>1183.82</ele>
        <time>2020-05-24T12:35:21Z</time>
      </trkpt>
      <trkpt lat="45.93323" lon="3.70611">
        <ele>1183.59</ele>
        <time>2020-05-24T12:35:23Z</time>
      </trkpt>
      <trkpt lat="45.93339" lon="3.70601">
        <ele>1183.06</ele>
        <time>2020-05-24T12:35:34Z</time>
      </trkpt>
      <trkpt lat="45.93343" lon="3.70595">
        <ele>1183.27</ele>
        <time>2020-05-24T12:35:39Z</time>
      </trkpt>
      <trkpt lat="45.93353" lon="3.70571">
        <ele>1182.65</ele>
        <time>2020-05-24T12:35:53Z</time>
      </trkpt>
      <trkpt lat="45.93353" lon="3.70567">
        <ele>1182.63</ele>
        <time>2020-05-24T12:35:55Z</time>
      </trkpt>
      <trkpt lat="45.93364" lon="3.70561">
        <ele>1183.76</ele>
        <time>2020-05-24T12:36:01Z</time>
      </trkpt>
      <trkpt lat="45.9338" lon="3.70561">
        <ele>1182.29</ele>
        <time>2020-05-24T12:36:16Z</time>
      </trkpt>
      <trkpt lat="45.93386" lon="3.70564">
        <ele>1182.1</ele>
        <time>2020-05-24T12:36:43Z</time>
      </trkpt>
      <trkpt lat="45.93397" lon="3.70565">
        <ele>1180.94</ele>
        <time>2020-05-24T12:37:03Z</time>
      </trkpt>
      <trkpt lat="45.93415" lon="3.70571">
        <ele>1180.3</ele>
        <time>2020-05-24T12:37:24Z</time>
      </trkpt>
      <trkpt lat="45.93418" lon="3.70572">
        <ele>1180.52</ele>
        <time>2020-05-24T12:37:27Z</time>
      </trkpt>
      <trkpt lat="45.93421" lon="3.70573">
        <ele>1179.59</ele>
        <time>2020-05-24T12:37:29Z</time>
      </trkpt>
      <trkpt lat="45.93432" lon="3.70582">
        <ele>1179.17</ele>
        <time>2020-05-24T12:37:46Z</time>
      </trkpt>
      <trkpt lat="45.93435" lon="3.70584">
        <ele>1179.08</ele>
        <time>2020-05-24T12:37:49Z</time>
      </trkpt>
      <trkpt lat="45.93451" lon="3.70598">
        <ele>1177.95</ele>
        <time>2020-05-24T12:38:05Z</time>
      </trkpt>
      <trkpt lat="45.93464" lon="3.7061">
        <ele>1176.81</ele>
        <time>2020-05-24T12:38:20Z</time>
      </trkpt>
      <trkpt lat="45.93467" lon="3.70613">
        <ele>1176.65</ele>
        <time>2020-05-24T12:38:23Z</time>
      </trkpt>
      <trkpt lat="45.93474" lon="3.70622">
        <ele>1176.19</ele>
        <time>2020-05-24T12:38:30Z</time>
      </trkpt>
      <trkpt lat="45.93485" lon="3.70637">
        <ele>1175.04</ele>
        <time>2020-05-24T12:38:45Z</time>
      </trkpt>
      <trkpt lat="45.9349" lon="3.70642">
        <ele>1174.98</ele>
        <time>2020-05-24T12:38:50Z</time>
      </trkpt>
      <trkpt lat="45.93498" lon="3.70654">
        <ele>1173.84</ele>
        <time>2020-05-24T12:38:59Z</time>
      </trkpt>
      <trkpt lat="45.93499" lon="3.70659">
        <ele>1173.52</ele>
        <time>2020-05-24T12:39:03Z</time>
      </trkpt>
      <trkpt lat="45.93509" lon="3.70672">
        <ele>1172.72</ele>
        <time>2020-05-24T12:39:12Z</time>
      </trkpt>
      <trkpt lat="45.93517" lon="3.70694">
        <ele>1171.08</ele>
        <time>2020-05-24T12:39:28Z</time>
      </trkpt>
      <trkpt lat="45.93527" lon="3.70711">
        <ele>1169.76</ele>
        <time>2020-05-24T12:39:41Z</time>
      </trkpt>
      <trkpt lat="45.93529" lon="3.70719">
        <ele>1169.18</ele>
        <time>2020-05-24T12:39:47Z</time>
      </trkpt>
      <trkpt lat="45.93536" lon="3.70736">
        <ele>1167.91</ele>
        <time>2020-05-24T12:40:01Z</time>
      </trkpt>
      <trkpt lat="45.93546" lon="3.70756">
        <ele>1166.88</ele>
        <time>2020-05-24T12:40:14Z</time>
      </trkpt>
      <trkpt lat="45.93553" lon="3.7077">
        <ele>1165.55</ele>
        <time>2020-05-24T12:40:25Z</time>
      </trkpt>
      <trkpt lat="45.9356" lon="3.70794">
        <ele>1164.12</ele>
        <time>2020-05-24T12:40:38Z</time>
      </trkpt>
      <trkpt lat="45.93566" lon="3.7082">
        <ele>1162.44</ele>
        <time>2020-05-24T12:40:57Z</time>
      </trkpt>
      <trkpt lat="45.93571" lon="3.70849">
        <ele>1159.33</ele>
        <time>2020-05-24T12:41:16Z</time>
      </trkpt>
      <trkpt lat="45.9357" lon="3.70889">
        <ele>1156.76</ele>
        <time>2020-05-24T12:41:39Z</time>
      </trkpt>
      <trkpt lat="45.93575" lon="3.70924">
        <ele>1153.91</ele>
        <time>2020-05-24T12:42:02Z</time>
      </trkpt>
      <trkpt lat="45.93581" lon="3.70953">
        <ele>1150.86</ele>
        <time>2020-05-24T12:42:20Z</time>
      </trkpt>
      <trkpt lat="45.93586" lon="3.70993">
        <ele>1148.3</ele>
        <time>2020-05-24T12:42:42Z</time>
      </trkpt>
      <trkpt lat="45.9359" lon="3.71011">
        <ele>1146.52</ele>
        <time>2020-05-24T12:42:56Z</time>
      </trkpt>
      <trkpt lat="45.93599" lon="3.71041">
        <ele>1144.67</ele>
        <time>2020-05-24T12:43:17Z</time>
      </trkpt>
      <trkpt lat="45.93607" lon="3.71062">
        <ele>1143.06</ele>
        <time>2020-05-24T12:43:34Z</time>
      </trkpt>
      <trkpt lat="45.93618" lon="3.71071">
        <ele>1141.77</ele>
        <time>2020-05-24T12:43:47Z</time>
      </trkpt>
      <trkpt lat="45.93621" lon="3.71085">
        <ele>1141.34</ele>
        <time>2020-05-24T12:44:03Z</time>
      </trkpt>
      <trkpt lat="45.93628" lon="3.71099">
        <ele>1139.26</ele>
        <time>2020-05-24T12:44:17Z</time>
      </trkpt>
      <trkpt lat="45.93644" lon="3.71127">
        <ele>1136.88</ele>
        <time>2020-05-24T12:44:41Z</time>
      </trkpt>
      <trkpt lat="45.93662" lon="3.71158">
        <ele>1135.6</ele>
        <time>2020-05-24T12:45:02Z</time>
      </trkpt>
      <trkpt lat="45.93674" lon="3.71186">
        <ele>1134.72</ele>
        <time>2020-05-24T12:45:20Z</time>
      </trkpt>
      <trkpt lat="45.93676" lon="3.71189">
        <ele>1134.62</ele>
        <time>2020-05-24T12:45:22Z</time>
      </trkpt>
      <trkpt lat="45.9368" lon="3.71194">
        <ele>1134.23</ele>
        <time>2020-05-24T12:45:27Z</time>
      </trkpt>
      <trkpt lat="45.93682" lon="3.71195">
        <ele>1134.16</ele>
        <time>2020-05-24T12:45:30Z</time>
      </trkpt>
      <trkpt lat="45.93701" lon="3.71203">
        <ele>1132.21</ele>
        <time>2020-05-24T12:45:49Z</time>
      </trkpt>
      <trkpt lat="45.93713" lon="3.71215">
        <ele>1129.37</ele>
        <time>2020-05-24T12:46:08Z</time>
      </trkpt>
      <trkpt lat="45.93726" lon="3.71233">
        <ele>1126.3</ele>
        <time>2020-05-24T12:46:29Z</time>
      </trkpt>
      <trkpt lat="45.93736" lon="3.71244">
        <ele>1123.24</ele>
        <time>2020-05-24T12:46:44Z</time>
      </trkpt>
      <trkpt lat="45.9375" lon="3.71264">
        <ele>1120.21</ele>
        <time>2020-05-24T12:47:06Z</time>
      </trkpt>
      <trkpt lat="45.93757" lon="3.71281">
        <ele>1117.05</ele>
        <time>2020-05-24T12:47:24Z</time>
      </trkpt>
      <trkpt lat="45.93777" lon="3.71303">
        <ele>1113.9</ele>
        <time>2020-05-24T12:47:40Z</time>
      </trkpt>
      <trkpt lat="45.9379" lon="3.7133">
        <ele>1110.87</ele>
        <time>2020-05-24T12:47:59Z</time>
      </trkpt>
      <trkpt lat="45.93801" lon="3.71348">
        <ele>1107.85</ele>
        <time>2020-05-24T12:48:19Z</time>
      </trkpt>
      <trkpt lat="45.93809" lon="3.71363">
        <ele>1104.82</ele>
        <time>2020-05-24T12:48:35Z</time>
      </trkpt>
      <trkpt lat="45.93817" lon="3.71376">
        <ele>1101.58</ele>
        <time>2020-05-24T12:48:52Z</time>
      </trkpt>
      <trkpt lat="45.93824" lon="3.71392">
        <ele>1098.99</ele>
        <time>2020-05-24T12:49:10Z</time>
      </trkpt>
      <trkpt lat="45.93829" lon="3.71401">
        <ele>1097.29</ele>
        <time>2020-05-24T12:49:18Z</time>
      </trkpt>
      <trkpt lat="45.93843" lon="3.71431">
        <ele>1094.99</ele>
        <time>2020-05-24T12:49:38Z</time>
      </trkpt>
      <trkpt lat="45.93851" lon="3.71451">
        <ele>1092.1</ele>
        <time>2020-05-24T12:49:50Z</time>
      </trkpt>
      <trkpt lat="45.9386" lon="3.71456">
        <ele>1089.91</ele>
        <time>2020-05-24T12:50:01Z</time>
      </trkpt>
      <trkpt lat="45.93872" lon="3.71446">
        <ele>1089.6</ele>
        <time>2020-05-24T12:50:13Z</time>
      </trkpt>
      <trkpt lat="45.93878" lon="3.71445">
        <ele>1089.83</ele>
        <time>2020-05-24T12:50:16Z</time>
      </trkpt>
      <trkpt lat="45.93882" lon="3.71447">
        <ele>1089.53</ele>
        <time>2020-05-24T12:50:20Z</time>
      </trkpt>
      <trkpt lat="45.93895" lon="3.71448">
        <ele>1089.5</ele>
        <time>2020-05-24T12:50:46Z</time>
      </trkpt>
      <trkpt lat="45.93894" lon="3.71439">
        <ele>1088.96</ele>
        <time>2020-05-24T12:51:14Z</time>
      </trkpt>
      <trkpt lat="45.93899" lon="3.71442">
        <ele>1089.04</ele>
        <time>2020-05-24T12:51:41Z</time>
      </trkpt>
      <trkpt lat="45.93893" lon="3.71446">
        <ele>1088.87</ele>
        <time>2020-05-24T12:52:10Z</time>
      </trkpt>
      <trkpt lat="45.93891" lon="3.71445">
        <ele>1089.37</ele>
        <time>2020-05-24T12:52:38Z</time>
      </trkpt>
      <trkpt lat="45.93896" lon="3.71425">
        <ele>1090.07</ele>
        <time>2020-05-24T12:53:00Z</time>
      </trkpt>
      <trkpt lat="45.93906" lon="3.71389">
        <ele>1089.45</ele>
        <time>2020-05-24T12:53:24Z</time>
      </trkpt>
      <trkpt lat="45.93912" lon="3.7137">
        <ele>1089.77</ele>
        <time>2020-05-24T12:53:43Z</time>
      </trkpt>
      <trkpt lat="45.93917" lon="3.7135">
        <ele>1090.22</ele>
        <time>2020-05-24T12:54:03Z</time>
      </trkpt>
      <trkpt lat="45.93922" lon="3.71317">
        <ele>1090.29</ele>
        <time>2020-05-24T12:54:26Z</time>
      </trkpt>
      <trkpt lat="45.93926" lon="3.71284">
        <ele>1090.56</ele>
        <time>2020-05-24T12:54:49Z</time>
      </trkpt>
      <trkpt lat="45.93928" lon="3.71243">
        <ele>1090.57</ele>
        <time>2020-05-24T12:55:11Z</time>
      </trkpt>
      <trkpt lat="45.93936" lon="3.71207">
        <ele>1089.84</ele>
        <time>2020-05-24T12:55:35Z</time>
      </trkpt>
      <trkpt lat="45.93941" lon="3.71192">
        <ele>1088.43</ele>
        <time>2020-05-24T12:55:45Z</time>
      </trkpt>
      <trkpt lat="45.93949" lon="3.71163">
        <ele>1087.43</ele>
        <time>2020-05-24T12:56:02Z</time>
      </trkpt>
      <trkpt lat="45.93951" lon="3.71129">
        <ele>1087.23</ele>
        <time>2020-05-24T12:56:18Z</time>
      </trkpt>
      <trkpt lat="45.9395" lon="3.71126">
        <ele>1087.22</ele>
        <time>2020-05-24T12:56:19Z</time>
      </trkpt>
      <trkpt lat="45.9395" lon="3.71118">
        <ele>1087.26</ele>
        <time>2020-05-24T12:56:22Z</time>
      </trkpt>
      <trkpt lat="45.93949" lon="3.71114">
        <ele>1086.88</ele>
        <time>2020-05-24T12:56:24Z</time>
      </trkpt>
      <trkpt lat="45.93954" lon="3.71086">
        <ele>1085.81</ele>
        <time>2020-05-24T12:56:37Z</time>
      </trkpt>
      <trkpt lat="45.93951" lon="3.71066">
        <ele>1085.22</ele>
        <time>2020-05-24T12:56:43Z</time>
      </trkpt>
      <trkpt lat="45.93954" lon="3.71057">
        <ele>1084.18</ele>
        <time>2020-05-24T12:56:50Z</time>
      </trkpt>
      <trkpt lat="45.93955" lon="3.71049">
        <ele>1084.32</ele>
        <time>2020-05-24T12:56:55Z</time>
      </trkpt>
      <trkpt lat="45.93954" lon="3.71046">
        <ele>1083.82</ele>
        <time>2020-05-24T12:56:57Z</time>
      </trkpt>
      <trkpt lat="45.93955" lon="3.71028">
        <ele>1083.34</ele>
        <time>2020-05-24T12:57:11Z</time>
      </trkpt>
      <trkpt lat="45.93963" lon="3.70991">
        <ele>1082.99</ele>
        <time>2020-05-24T12:57:34Z</time>
      </trkpt>
      <trkpt lat="45.93959" lon="3.70962">
        <ele>1082.71</ele>
        <time>2020-05-24T12:57:53Z</time>
      </trkpt>
      <trkpt lat="45.93959" lon="3.70927">
        <ele>1083.01</ele>
        <time>2020-05-24T12:58:13Z</time>
      </trkpt>
      <trkpt lat="45.93962" lon="3.70892">
        <ele>1084.31</ele>
        <time>2020-05-24T12:58:33Z</time>
      </trkpt>
      <trkpt lat="45.9397" lon="3.70873">
        <ele>1084.79</ele>
        <time>2020-05-24T12:58:51Z</time>
      </trkpt>
      <trkpt lat="45.93973" lon="3.7085">
        <ele>1086.36</ele>
        <time>2020-05-24T12:59:07Z</time>
      </trkpt>
      <trkpt lat="45.93976" lon="3.70831">
        <ele>1088.52</ele>
        <time>2020-05-24T12:59:19Z</time>
      </trkpt>
      <trkpt lat="45.93976" lon="3.70823">
        <ele>1088.74</ele>
        <time>2020-05-24T12:59:23Z</time>
      </trkpt>
      <trkpt lat="45.93974" lon="3.70791">
        <ele>1089.63</ele>
        <time>2020-05-24T12:59:44Z</time>
      </trkpt>
      <trkpt lat="45.93976" lon="3.70783">
        <ele>1089.73</ele>
        <time>2020-05-24T12:59:48Z</time>
      </trkpt>
      <trkpt lat="45.93977" lon="3.70765">
        <ele>1089.93</ele>
        <time>2020-05-24T12:59:57Z</time>
      </trkpt>
      <trkpt lat="45.93972" lon="3.70739">
        <ele>1090.5</ele>
        <time>2020-05-24T13:00:11Z</time>
      </trkpt>
      <trkpt lat="45.9397" lon="3.7071">
        <ele>1090.8</ele>
        <time>2020-05-24T13:00:31Z</time>
      </trkpt>
      <trkpt lat="45.93968" lon="3.70673">
        <ele>1091.63</ele>
        <time>2020-05-24T13:00:54Z</time>
      </trkpt>
      <trkpt lat="45.93964" lon="3.70646">
        <ele>1092.3</ele>
        <time>2020-05-24T13:01:15Z</time>
      </trkpt>
      <trkpt lat="45.93962" lon="3.70619">
        <ele>1092.47</ele>
        <time>2020-05-24T13:01:34Z</time>
      </trkpt>
      <trkpt lat="45.93956" lon="3.70587">
        <ele>1092.26</ele>
        <time>2020-05-24T13:01:52Z</time>
      </trkpt>
      <trkpt lat="45.93954" lon="3.70559">
        <ele>1092.07</ele>
        <time>2020-05-24T13:02:05Z</time>
      </trkpt>
      <trkpt lat="45.93953" lon="3.7054">
        <ele>1092.34</ele>
        <time>2020-05-24T13:02:13Z</time>
      </trkpt>
      <trkpt lat="45.9395" lon="3.70512">
        <ele>1092.92</ele>
        <time>2020-05-24T13:02:26Z</time>
      </trkpt>
      <trkpt lat="45.93959" lon="3.70488">
        <ele>1092.29</ele>
        <time>2020-05-24T13:02:47Z</time>
      </trkpt>
      <trkpt lat="45.93959" lon="3.70484">
        <ele>1092.56</ele>
        <time>2020-05-24T13:02:56Z</time>
      </trkpt>
      <trkpt lat="45.93962" lon="3.70479">
        <ele>1092.45</ele>
        <time>2020-05-24T13:03:01Z</time>
      </trkpt>
      <trkpt lat="45.93959" lon="3.70475">
        <ele>1092.43</ele>
        <time>2020-05-24T13:03:29Z</time>
      </trkpt>
      <trkpt lat="45.9396" lon="3.70474">
        <ele>1092.52</ele>
        <time>2020-05-24T13:03:31Z</time>
      </trkpt>
      <trkpt lat="45.93959" lon="3.7046">
        <ele>1091.25</ele>
        <time>2020-05-24T13:03:58Z</time>
      </trkpt>
      <trkpt lat="45.93965" lon="3.70459">
        <ele>1091.63</ele>
        <time>2020-05-24T13:04:03Z</time>
      </trkpt>
      <trkpt lat="45.93965" lon="3.70452">
        <ele>1091.52</ele>
        <time>2020-05-24T13:04:26Z</time>
      </trkpt>
      <trkpt lat="45.93958" lon="3.70445">
        <ele>1091.62</ele>
        <time>2020-05-24T13:04:37Z</time>
      </trkpt>
      <trkpt lat="45.93957" lon="3.70442">
        <ele>1091.39</ele>
        <time>2020-05-24T13:04:48Z</time>
      </trkpt>
      <trkpt lat="45.93965" lon="3.70441">
        <ele>1092.85</ele>
        <time>2020-05-24T13:05:03Z</time>
      </trkpt>
      <trkpt lat="45.93973" lon="3.70439">
        <ele>1093.58</ele>
        <time>2020-05-24T13:05:11Z</time>
      </trkpt>
      <trkpt lat="45.93984" lon="3.70429">
        <ele>1095.31</ele>
        <time>2020-05-24T13:05:31Z</time>
      </trkpt>
      <trkpt lat="45.93992" lon="3.70401">
        <ele>1097.54</ele>
        <time>2020-05-24T13:05:52Z</time>
      </trkpt>
      <trkpt lat="45.94004" lon="3.70378">
        <ele>1099.74</ele>
        <time>2020-05-24T13:06:14Z</time>
      </trkpt>
      <trkpt lat="45.94014" lon="3.70358">
        <ele>1100.24</ele>
        <time>2020-05-24T13:06:30Z</time>
      </trkpt>
      <trkpt lat="45.94026" lon="3.70355">
        <ele>1101.91</ele>
        <time>2020-05-24T13:06:49Z</time>
      </trkpt>
      <trkpt lat="45.94038" lon="3.7034">
        <ele>1104.37</ele>
        <time>2020-05-24T13:07:08Z</time>
      </trkpt>
      <trkpt lat="45.9405" lon="3.70317">
        <ele>1106.79</ele>
        <time>2020-05-24T13:07:26Z</time>
      </trkpt>
      <trkpt lat="45.9406" lon="3.70312">
        <ele>1108.65</ele>
        <time>2020-05-24T13:07:42Z</time>
      </trkpt>
      <trkpt lat="45.94061" lon="3.70312">
        <ele>1108.72</ele>
        <time>2020-05-24T13:07:43Z</time>
      </trkpt>
      <trkpt lat="45.94072" lon="3.70309">
        <ele>1109.3</ele>
        <time>2020-05-24T13:08:11Z</time>
      </trkpt>
      <trkpt lat="45.94072" lon="3.70311">
        <ele>1109.19</ele>
        <time>2020-05-24T13:08:27Z</time>
      </trkpt>
      <trkpt lat="45.94071" lon="3.70308">
        <ele>1109.9</ele>
        <time>2020-05-24T13:08:54Z</time>
      </trkpt>
      <trkpt lat="45.94074" lon="3.70311">
        <ele>1110.46</ele>
        <time>2020-05-24T13:09:15Z</time>
      </trkpt>
      <trkpt lat="45.94077" lon="3.70318">
        <ele>1110.6</ele>
        <time>2020-05-24T13:09:50Z</time>
      </trkpt>
      <trkpt lat="45.94082" lon="3.70321">
        <ele>1110.38</ele>
        <time>2020-05-24T13:10:10Z</time>
      </trkpt>
      <trkpt lat="45.9409" lon="3.70332">
        <ele>1108.98</ele>
        <time>2020-05-24T13:10:30Z</time>
      </trkpt>
      <trkpt lat="45.94099" lon="3.7035">
        <ele>1108.19</ele>
        <time>2020-05-24T13:10:50Z</time>
      </trkpt>
      <trkpt lat="45.94111" lon="3.70384">
        <ele>1105.8</ele>
        <time>2020-05-24T13:11:12Z</time>
      </trkpt>
      <trkpt lat="45.94118" lon="3.70402">
        <ele>1105.17</ele>
        <time>2020-05-24T13:11:22Z</time>
      </trkpt>
      <trkpt lat="45.94119" lon="3.70406">
        <ele>1105.24</ele>
        <time>2020-05-24T13:11:24Z</time>
      </trkpt>
      <trkpt lat="45.94126" lon="3.7043">
        <ele>1104.49</ele>
        <time>2020-05-24T13:11:36Z</time>
      </trkpt>
      <trkpt lat="45.94136" lon="3.70457">
        <ele>1103.92</ele>
        <time>2020-05-24T13:11:51Z</time>
      </trkpt>
      <trkpt lat="45.94143" lon="3.70467">
        <ele>1103.67</ele>
        <time>2020-05-24T13:11:58Z</time>
      </trkpt>
      <trkpt lat="45.94145" lon="3.70469">
        <ele>1103.55</ele>
        <time>2020-05-24T13:12:00Z</time>
      </trkpt>
      <trkpt lat="45.94159" lon="3.70492">
        <ele>1102.64</ele>
        <time>2020-05-24T13:12:16Z</time>
      </trkpt>
      <trkpt lat="45.9416" lon="3.70495">
        <ele>1102.46</ele>
        <time>2020-05-24T13:12:18Z</time>
      </trkpt>
      <trkpt lat="45.94162" lon="3.70504">
        <ele>1102.4</ele>
        <time>2020-05-24T13:12:24Z</time>
      </trkpt>
      <trkpt lat="45.94163" lon="3.70511">
        <ele>1102.38</ele>
        <time>2020-05-24T13:12:28Z</time>
      </trkpt>
      <trkpt lat="45.94171" lon="3.70533">
        <ele>1101.91</ele>
        <time>2020-05-24T13:12:42Z</time>
      </trkpt>
      <trkpt lat="45.94174" lon="3.70539">
        <ele>1101.65</ele>
        <time>2020-05-24T13:12:45Z</time>
      </trkpt>
      <trkpt lat="45.94176" lon="3.70547">
        <ele>1101.26</ele>
        <time>2020-05-24T13:12:49Z</time>
      </trkpt>
      <trkpt lat="45.94187" lon="3.70573">
        <ele>1100.22</ele>
        <time>2020-05-24T13:13:05Z</time>
      </trkpt>
      <trkpt lat="45.94197" lon="3.70598">
        <ele>1099.26</ele>
        <time>2020-05-24T13:13:20Z</time>
      </trkpt>
      <trkpt lat="45.942" lon="3.70603">
        <ele>1099.18</ele>
        <time>2020-05-24T13:13:22Z</time>
      </trkpt>
      <trkpt lat="45.94205" lon="3.70611">
        <ele>1099.14</ele>
        <time>2020-05-24T13:13:27Z</time>
      </trkpt>
      <trkpt lat="45.94215" lon="3.70624">
        <ele>1098.54</ele>
        <time>2020-05-24T13:13:36Z</time>
      </trkpt>
      <trkpt lat="45.94219" lon="3.70633">
        <ele>1098.53</ele>
        <time>2020-05-24T13:13:42Z</time>
      </trkpt>
      <trkpt lat="45.94221" lon="3.70638">
        <ele>1098.45</ele>
        <time>2020-05-24T13:13:46Z</time>
      </trkpt>
      <trkpt lat="45.94223" lon="3.70648">
        <ele>1098.36</ele>
        <time>2020-05-24T13:14:01Z</time>
      </trkpt>
      <trkpt lat="45.94228" lon="3.70659">
        <ele>1097.8</ele>
        <time>2020-05-24T13:14:24Z</time>
      </trkpt>
      <trkpt lat="45.94236" lon="3.70678">
        <ele>1096.27</ele>
        <time>2020-05-24T13:14:40Z</time>
      </trkpt>
      <trkpt lat="45.94236" lon="3.70681">
        <ele>1091.84</ele>
        <time>2020-05-24T13:14:44Z</time>
      </trkpt>
      <trkpt lat="45.94236" lon="3.70683">
        <ele>1094.72</ele>
        <time>2020-05-24T13:14:45Z</time>
      </trkpt>
      <trkpt lat="45.94235" lon="3.70679">
        <ele>1093.3</ele>
        <time>2020-05-24T13:15:48Z</time>
      </trkpt>
      <trkpt lat="45.94235" lon="3.70675">
        <ele>1097.48</ele>
        <time>2020-05-24T13:15:51Z</time>
      </trkpt>
      <trkpt lat="45.94236" lon="3.70674">
        <ele>1097.6</ele>
        <time>2020-05-24T13:15:52Z</time>
      </trkpt>
      <trkpt lat="45.94244" lon="3.70675">
        <ele>1098.1</ele>
        <time>2020-05-24T13:16:01Z</time>
      </trkpt>
      <trkpt lat="45.94248" lon="3.70675">
        <ele>1097.26</ele>
        <time>2020-05-24T13:16:07Z</time>
      </trkpt>
      <trkpt lat="45.94257" lon="3.7068">
        <ele>1096.78</ele>
        <time>2020-05-24T13:16:16Z</time>
      </trkpt>
      <trkpt lat="45.94264" lon="3.70687">
        <ele>1096.28</ele>
        <time>2020-05-24T13:16:30Z</time>
      </trkpt>
      <trkpt lat="45.94279" lon="3.70699">
        <ele>1095.03</ele>
        <time>2020-05-24T13:16:47Z</time>
      </trkpt>
      <trkpt lat="45.94292" lon="3.70711">
        <ele>1094.6</ele>
        <time>2020-05-24T13:17:00Z</time>
      </trkpt>
      <trkpt lat="45.94297" lon="3.70716">
        <ele>1093.85</ele>
        <time>2020-05-24T13:17:06Z</time>
      </trkpt>
      <trkpt lat="45.94314" lon="3.70727">
        <ele>1091.9</ele>
        <time>2020-05-24T13:17:22Z</time>
      </trkpt>
      <trkpt lat="45.94329" lon="3.70737">
        <ele>1089.58</ele>
        <time>2020-05-24T13:17:36Z</time>
      </trkpt>
      <trkpt lat="45.94341" lon="3.70741">
        <ele>1086.95</ele>
        <time>2020-05-24T13:17:48Z</time>
      </trkpt>
      <trkpt lat="45.94353" lon="3.7074">
        <ele>1085.69</ele>
        <time>2020-05-24T13:17:58Z</time>
      </trkpt>
      <trkpt lat="45.9436" lon="3.70742">
        <ele>1084.34</ele>
        <time>2020-05-24T13:18:05Z</time>
      </trkpt>
      <trkpt lat="45.94364" lon="3.70746">
        <ele>1083.7</ele>
        <time>2020-05-24T13:18:21Z</time>
      </trkpt>
      <trkpt lat="45.94371" lon="3.70747">
        <ele>1082.47</ele>
        <time>2020-05-24T13:18:37Z</time>
      </trkpt>
      <trkpt lat="45.94378" lon="3.70747">
        <ele>1081.81</ele>
        <time>2020-05-24T13:18:54Z</time>
      </trkpt>
      <trkpt lat="45.94379" lon="3.70748">
        <ele>1081.66</ele>
        <time>2020-05-24T13:18:55Z</time>
      </trkpt>
      <trkpt lat="45.94391" lon="3.70754">
        <ele>1078.43</ele>
        <time>2020-05-24T13:19:12Z</time>
      </trkpt>
      <trkpt lat="45.94409" lon="3.70757">
        <ele>1075.35</ele>
        <time>2020-05-24T13:19:31Z</time>
      </trkpt>
      <trkpt lat="45.94425" lon="3.70776">
        <ele>1072.27</ele>
        <time>2020-05-24T13:19:51Z</time>
      </trkpt>
      <trkpt lat="45.94437" lon="3.70788">
        <ele>1069.08</ele>
        <time>2020-05-24T13:20:10Z</time>
      </trkpt>
      <trkpt lat="45.94449" lon="3.70795">
        <ele>1067.23</ele>
        <time>2020-05-24T13:20:22Z</time>
      </trkpt>
      <trkpt lat="45.9446" lon="3.70804">
        <ele>1065.16</ele>
        <time>2020-05-24T13:20:33Z</time>
      </trkpt>
      <trkpt lat="45.94478" lon="3.70809">
        <ele>1064.14</ele>
        <time>2020-05-24T13:20:46Z</time>
      </trkpt>
      <trkpt lat="45.94492" lon="3.7081">
        <ele>1062.24</ele>
        <time>2020-05-24T13:20:57Z</time>
      </trkpt>
      <trkpt lat="45.94506" lon="3.70812">
        <ele>1059.76</ele>
        <time>2020-05-24T13:21:10Z</time>
      </trkpt>
      <trkpt lat="45.94512" lon="3.70812">
        <ele>1061.85</ele>
        <time>2020-05-24T13:21:16Z</time>
      </trkpt>
      <trkpt lat="45.94526" lon="3.70811">
        <ele>1061.07</ele>
        <time>2020-05-24T13:21:29Z</time>
      </trkpt>
      <trkpt lat="45.94549" lon="3.70806">
        <ele>1060</ele>
        <time>2020-05-24T13:21:47Z</time>
      </trkpt>
      <trkpt lat="45.94564" lon="3.70806">
        <ele>1058.71</ele>
        <time>2020-05-24T13:21:57Z</time>
      </trkpt>
      <trkpt lat="45.94583" lon="3.70808">
        <ele>1057.6</ele>
        <time>2020-05-24T13:22:11Z</time>
      </trkpt>
      <trkpt lat="45.94599" lon="3.7081">
        <ele>1056.71</ele>
        <time>2020-05-24T13:22:24Z</time>
      </trkpt>
      <trkpt lat="45.94607" lon="3.70809">
        <ele>1056.26</ele>
        <time>2020-05-24T13:22:31Z</time>
      </trkpt>
      <trkpt lat="45.94631" lon="3.70814">
        <ele>1055.18</ele>
        <time>2020-05-24T13:22:47Z</time>
      </trkpt>
      <trkpt lat="45.94663" lon="3.7082">
        <ele>1053.98</ele>
        <time>2020-05-24T13:23:09Z</time>
      </trkpt>
      <trkpt lat="45.94668" lon="3.70821">
        <ele>1053.65</ele>
        <time>2020-05-24T13:23:12Z</time>
      </trkpt>
      <trkpt lat="45.94683" lon="3.70823">
        <ele>1051.56</ele>
        <time>2020-05-24T13:23:23Z</time>
      </trkpt>
      <trkpt lat="45.94703" lon="3.70823">
        <ele>1049.45</ele>
        <time>2020-05-24T13:23:37Z</time>
      </trkpt>
      <trkpt lat="45.94716" lon="3.70816">
        <ele>1048.74</ele>
        <time>2020-05-24T13:23:48Z</time>
      </trkpt>
      <trkpt lat="45.94736" lon="3.70797">
        <ele>1047.89</ele>
        <time>2020-05-24T13:24:05Z</time>
      </trkpt>
      <trkpt lat="45.9475" lon="3.70781">
        <ele>1046.08</ele>
        <time>2020-05-24T13:24:18Z</time>
      </trkpt>
      <trkpt lat="45.94764" lon="3.70772">
        <ele>1044.13</ele>
        <time>2020-05-24T13:24:31Z</time>
      </trkpt>
      <trkpt lat="45.94781" lon="3.70756">
        <ele>1041.06</ele>
        <time>2020-05-24T13:24:49Z</time>
      </trkpt>
      <trkpt lat="45.94783" lon="3.70754">
        <ele>1040.86</ele>
        <time>2020-05-24T13:24:51Z</time>
      </trkpt>
      <trkpt lat="45.94801" lon="3.70739">
        <ele>1038.67</ele>
        <time>2020-05-24T13:25:06Z</time>
      </trkpt>
      <trkpt lat="45.94809" lon="3.70728">
        <ele>1038.38</ele>
        <time>2020-05-24T13:25:15Z</time>
      </trkpt>
      <trkpt lat="45.94821" lon="3.70707">
        <ele>1037.86</ele>
        <time>2020-05-24T13:25:28Z</time>
      </trkpt>
      <trkpt lat="45.94822" lon="3.70704">
        <ele>1037.78</ele>
        <time>2020-05-24T13:25:30Z</time>
      </trkpt>
      <trkpt lat="45.94826" lon="3.70698">
        <ele>1037.62</ele>
        <time>2020-05-24T13:25:34Z</time>
      </trkpt>
      <trkpt lat="45.94832" lon="3.70684">
        <ele>1037.77</ele>
        <time>2020-05-24T13:25:43Z</time>
      </trkpt>
      <trkpt lat="45.94834" lon="3.70678">
        <ele>1037.86</ele>
        <time>2020-05-24T13:25:54Z</time>
      </trkpt>
      <trkpt lat="45.9484" lon="3.70667">
        <ele>1037.62</ele>
        <time>2020-05-24T13:26:02Z</time>
      </trkpt>
      <trkpt lat="45.94844" lon="3.70652">
        <ele>1037.5</ele>
        <time>2020-05-24T13:26:11Z</time>
      </trkpt>
      <trkpt lat="45.94848" lon="3.70647">
        <ele>1037.44</ele>
        <time>2020-05-24T13:26:16Z</time>
      </trkpt>
      <trkpt lat="45.94857" lon="3.70621">
        <ele>1037.44</ele>
        <time>2020-05-24T13:26:31Z</time>
      </trkpt>
      <trkpt lat="45.94857" lon="3.70619">
        <ele>1037.45</ele>
        <time>2020-05-24T13:26:32Z</time>
      </trkpt>
      <trkpt lat="45.94858" lon="3.70615">
        <ele>1037.28</ele>
        <time>2020-05-24T13:26:34Z</time>
      </trkpt>
      <trkpt lat="45.94859" lon="3.70609">
        <ele>1037.32</ele>
        <time>2020-05-24T13:26:38Z</time>
      </trkpt>
      <trkpt lat="45.9486" lon="3.706">
        <ele>1037.89</ele>
        <time>2020-05-24T13:26:44Z</time>
      </trkpt>
      <trkpt lat="45.94865" lon="3.70575">
        <ele>1037.8</ele>
        <time>2020-05-24T13:26:59Z</time>
      </trkpt>
      <trkpt lat="45.94867" lon="3.70559">
        <ele>1037.57</ele>
        <time>2020-05-24T13:27:08Z</time>
      </trkpt>
      <trkpt lat="45.94874" lon="3.70538">
        <ele>1037.46</ele>
        <time>2020-05-24T13:27:23Z</time>
      </trkpt>
      <trkpt lat="45.94876" lon="3.70535">
        <ele>1037.39</ele>
        <time>2020-05-24T13:27:38Z</time>
      </trkpt>
      <trkpt lat="45.94877" lon="3.70532">
        <ele>1037.18</ele>
        <time>2020-05-24T13:27:40Z</time>
      </trkpt>
      <trkpt lat="45.94878" lon="3.70526">
        <ele>1036.85</ele>
        <time>2020-05-24T13:27:44Z</time>
      </trkpt>
      <trkpt lat="45.9488" lon="3.70524">
        <ele>1036.8</ele>
        <time>2020-05-24T13:27:46Z</time>
      </trkpt>
      <trkpt lat="45.94881" lon="3.70519">
        <ele>1036.63</ele>
        <time>2020-05-24T13:27:49Z</time>
      </trkpt>
      <trkpt lat="45.94885" lon="3.70509">
        <ele>1035.63</ele>
        <time>2020-05-24T13:27:56Z</time>
      </trkpt>
      <trkpt lat="45.94888" lon="3.70504">
        <ele>1035.2</ele>
        <time>2020-05-24T13:28:00Z</time>
      </trkpt>
      <trkpt lat="45.9489" lon="3.70495">
        <ele>1035.33</ele>
        <time>2020-05-24T13:28:17Z</time>
      </trkpt>
      <trkpt lat="45.94889" lon="3.70499">
        <ele>1035.7</ele>
        <time>2020-05-24T13:28:36Z</time>
      </trkpt>
      <trkpt lat="45.94889" lon="3.70502">
        <ele>1036.23</ele>
        <time>2020-05-24T13:29:00Z</time>
      </trkpt>
      <trkpt lat="45.9489" lon="3.70496">
        <ele>1035.59</ele>
        <time>2020-05-24T13:29:17Z</time>
      </trkpt>
      <trkpt lat="45.94897" lon="3.70491">
        <ele>1035.29</ele>
        <time>2020-05-24T13:29:25Z</time>
      </trkpt>
      <trkpt lat="45.94903" lon="3.70483">
        <ele>1034.55</ele>
        <time>2020-05-24T13:29:39Z</time>
      </trkpt>
      <trkpt lat="45.94903" lon="3.70489">
        <ele>1034.88</ele>
        <time>2020-05-24T13:30:07Z</time>
      </trkpt>
      <trkpt lat="45.94903" lon="3.70483">
        <ele>1034.59</ele>
        <time>2020-05-24T13:30:22Z</time>
      </trkpt>
      <trkpt lat="45.94909" lon="3.70483">
        <ele>1033.7</ele>
        <time>2020-05-24T13:30:39Z</time>
      </trkpt>
      <trkpt lat="45.94915" lon="3.7048">
        <ele>1033.21</ele>
        <time>2020-05-24T13:31:00Z</time>
      </trkpt>
      <trkpt lat="45.94917" lon="3.70483">
        <ele>1033.36</ele>
        <time>2020-05-24T13:31:25Z</time>
      </trkpt>
      <trkpt lat="45.94919" lon="3.70483">
        <ele>1032.94</ele>
        <time>2020-05-24T13:31:43Z</time>
      </trkpt>
      <trkpt lat="45.94918" lon="3.70484">
        <ele>1033.14</ele>
        <time>2020-05-24T13:32:06Z</time>
      </trkpt>
      <trkpt lat="45.94917" lon="3.70485">
        <ele>1033.69</ele>
        <time>2020-05-24T13:32:30Z</time>
      </trkpt>
      <trkpt lat="45.94907" lon="3.70479">
        <ele>1034.97</ele>
        <time>2020-05-24T13:32:50Z</time>
      </trkpt>
      <trkpt lat="45.94905" lon="3.70472">
        <ele>1034.55</ele>
        <time>2020-05-24T13:33:11Z</time>
      </trkpt>
      <trkpt lat="45.94905" lon="3.70474">
        <ele>1035.32</ele>
        <time>2020-05-24T13:33:35Z</time>
      </trkpt>
      <trkpt lat="45.94909" lon="3.7047">
        <ele>1034.21</ele>
        <time>2020-05-24T13:34:03Z</time>
      </trkpt>
      <trkpt lat="45.94916" lon="3.70459">
        <ele>1033.57</ele>
        <time>2020-05-24T13:34:22Z</time>
      </trkpt>
      <trkpt lat="45.94919" lon="3.70452">
        <ele>1030.31</ele>
        <time>2020-05-24T13:34:33Z</time>
      </trkpt>
      <trkpt lat="45.9492" lon="3.70449">
        <ele>1030.15</ele>
        <time>2020-05-24T13:34:37Z</time>
      </trkpt>
      <trkpt lat="45.94921" lon="3.70441">
        <ele>1029.44</ele>
        <time>2020-05-24T13:34:57Z</time>
      </trkpt>
      <trkpt lat="45.94924" lon="3.70435">
        <ele>1028.52</ele>
        <time>2020-05-24T13:35:11Z</time>
      </trkpt>
      <trkpt lat="45.94926" lon="3.70413">
        <ele>1025.83</ele>
        <time>2020-05-24T13:35:34Z</time>
      </trkpt>
      <trkpt lat="45.9493" lon="3.70396">
        <ele>1022.9</ele>
        <time>2020-05-24T13:35:56Z</time>
      </trkpt>
      <trkpt lat="45.94934" lon="3.7038">
        <ele>1019.89</ele>
        <time>2020-05-24T13:36:18Z</time>
      </trkpt>
      <trkpt lat="45.9494" lon="3.70365">
        <ele>1017.87</ele>
        <time>2020-05-24T13:36:36Z</time>
      </trkpt>
      <trkpt lat="45.94945" lon="3.7035">
        <ele>1015.51</ele>
        <time>2020-05-24T13:36:54Z</time>
      </trkpt>
      <trkpt lat="45.94944" lon="3.7034">
        <ele>1013.63</ele>
        <time>2020-05-24T13:37:09Z</time>
      </trkpt>
      <trkpt lat="45.94942" lon="3.70326">
        <ele>1011.7</ele>
        <time>2020-05-24T13:37:22Z</time>
      </trkpt>
      <trkpt lat="45.94946" lon="3.70312">
        <ele>1010.2</ele>
        <time>2020-05-24T13:37:37Z</time>
      </trkpt>
      <trkpt lat="45.94944" lon="3.70297">
        <ele>1009.44</ele>
        <time>2020-05-24T13:37:44Z</time>
      </trkpt>
      <trkpt lat="45.94941" lon="3.70277">
        <ele>1009.53</ele>
        <time>2020-05-24T13:38:04Z</time>
      </trkpt>
      <trkpt lat="45.94943" lon="3.70256">
        <ele>1007.43</ele>
        <time>2020-05-24T13:38:25Z</time>
      </trkpt>
      <trkpt lat="45.94944" lon="3.70232">
        <ele>1004.96</ele>
        <time>2020-05-24T13:38:41Z</time>
      </trkpt>
      <trkpt lat="45.94944" lon="3.70211">
        <ele>1002.99</ele>
        <time>2020-05-24T13:38:59Z</time>
      </trkpt>
      <trkpt lat="45.94944" lon="3.70208">
        <ele>1002.93</ele>
        <time>2020-05-24T13:39:01Z</time>
      </trkpt>
      <trkpt lat="45.94942" lon="3.70182">
        <ele>1001.16</ele>
        <time>2020-05-24T13:39:18Z</time>
      </trkpt>
      <trkpt lat="45.94943" lon="3.70176">
        <ele>1000.29</ele>
        <time>2020-05-24T13:39:22Z</time>
      </trkpt>
      <trkpt lat="45.94943" lon="3.70157">
        <ele>999.75</ele>
        <time>2020-05-24T13:39:34Z</time>
      </trkpt>
      <trkpt lat="45.94938" lon="3.70131">
        <ele>998.83</ele>
        <time>2020-05-24T13:39:50Z</time>
      </trkpt>
      <trkpt lat="45.94935" lon="3.70115">
        <ele>999.33</ele>
        <time>2020-05-24T13:40:01Z</time>
      </trkpt>
      <trkpt lat="45.94932" lon="3.70088">
        <ele>999.16</ele>
        <time>2020-05-24T13:40:25Z</time>
      </trkpt>
      <trkpt lat="45.94927" lon="3.70055">
        <ele>1000.08</ele>
        <time>2020-05-24T13:40:44Z</time>
      </trkpt>
      <trkpt lat="45.94926" lon="3.70051">
        <ele>1000.39</ele>
        <time>2020-05-24T13:40:46Z</time>
      </trkpt>
      <trkpt lat="45.94923" lon="3.70028">
        <ele>1002.09</ele>
        <time>2020-05-24T13:41:02Z</time>
      </trkpt>
      <trkpt lat="45.94918" lon="3.69993">
        <ele>1003.21</ele>
        <time>2020-05-24T13:41:24Z</time>
      </trkpt>
      <trkpt lat="45.94917" lon="3.69952">
        <ele>1001.35</ele>
        <time>2020-05-24T13:41:49Z</time>
      </trkpt>
      <trkpt lat="45.94915" lon="3.69938">
        <ele>999.66</ele>
        <time>2020-05-24T13:41:56Z</time>
      </trkpt>
      <trkpt lat="45.94916" lon="3.69914">
        <ele>998.89</ele>
        <time>2020-05-24T13:42:10Z</time>
      </trkpt>
      <trkpt lat="45.94918" lon="3.69894">
        <ele>998.76</ele>
        <time>2020-05-24T13:42:22Z</time>
      </trkpt>
      <trkpt lat="45.94918" lon="3.6989">
        <ele>998.86</ele>
        <time>2020-05-24T13:42:24Z</time>
      </trkpt>
      <trkpt lat="45.94923" lon="3.69866">
        <ele>998.26</ele>
        <time>2020-05-24T13:42:40Z</time>
      </trkpt>
      <trkpt lat="45.94927" lon="3.69832">
        <ele>996.83</ele>
        <time>2020-05-24T13:43:02Z</time>
      </trkpt>
      <trkpt lat="45.94933" lon="3.69826">
        <ele>996.61</ele>
        <time>2020-05-24T13:43:13Z</time>
      </trkpt>
      <trkpt lat="45.94935" lon="3.69813">
        <ele>996</ele>
        <time>2020-05-24T13:43:25Z</time>
      </trkpt>
      <trkpt lat="45.94941" lon="3.69788">
        <ele>995.18</ele>
        <time>2020-05-24T13:43:44Z</time>
      </trkpt>
      <trkpt lat="45.94951" lon="3.69765">
        <ele>992.99</ele>
        <time>2020-05-24T13:44:03Z</time>
      </trkpt>
      <trkpt lat="45.94954" lon="3.69751">
        <ele>992.35</ele>
        <time>2020-05-24T13:44:16Z</time>
      </trkpt>
      <trkpt lat="45.94962" lon="3.69731">
        <ele>990.51</ele>
        <time>2020-05-24T13:44:35Z</time>
      </trkpt>
      <trkpt lat="45.94966" lon="3.69725">
        <ele>989.81</ele>
        <time>2020-05-24T13:44:41Z</time>
      </trkpt>
      <trkpt lat="45.94978" lon="3.69705">
        <ele>987.6</ele>
        <time>2020-05-24T13:44:57Z</time>
      </trkpt>
      <trkpt lat="45.94982" lon="3.69698">
        <ele>985.9</ele>
        <time>2020-05-24T13:45:05Z</time>
      </trkpt>
      <trkpt lat="45.95014" lon="3.69692">
        <ele>986.09</ele>
        <time>2020-05-24T13:45:39Z</time>
      </trkpt>
      <trkpt lat="45.94998" lon="3.69689">
        <ele>985.29</ele>
        <time>2020-05-24T13:46:03Z</time>
      </trkpt>
      <trkpt lat="45.95001" lon="3.69685">
        <ele>984.2</ele>
        <time>2020-05-24T13:46:29Z</time>
      </trkpt>
      <trkpt lat="45.95005" lon="3.69677">
        <ele>981.54</ele>
        <time>2020-05-24T13:46:43Z</time>
      </trkpt>
      <trkpt lat="45.95015" lon="3.69664">
        <ele>978.47</ele>
        <time>2020-05-24T13:47:04Z</time>
      </trkpt>
      <trkpt lat="45.95024" lon="3.69658">
        <ele>975.61</ele>
        <time>2020-05-24T13:47:15Z</time>
      </trkpt>
      <trkpt lat="45.95024" lon="3.69659">
        <ele>977.07</ele>
        <time>2020-05-24T13:47:19Z</time>
      </trkpt>
      <trkpt lat="45.95034" lon="3.69654">
        <ele>972.84</ele>
        <time>2020-05-24T13:47:36Z</time>
      </trkpt>
      <trkpt lat="45.95042" lon="3.69646">
        <ele>972.17</ele>
        <time>2020-05-24T13:47:53Z</time>
      </trkpt>
      <trkpt lat="45.95051" lon="3.69643">
        <ele>971.5</ele>
        <time>2020-05-24T13:48:18Z</time>
      </trkpt>
      <trkpt lat="45.9506" lon="3.69645">
        <ele>971.56</ele>
        <time>2020-05-24T13:48:33Z</time>
      </trkpt>
      <trkpt lat="45.95057" lon="3.69641">
        <ele>972.12</ele>
        <time>2020-05-24T13:49:00Z</time>
      </trkpt>
      <trkpt lat="45.95056" lon="3.69646">
        <ele>972.27</ele>
        <time>2020-05-24T13:49:36Z</time>
      </trkpt>
      <trkpt lat="45.95071" lon="3.69644">
        <ele>974.1</ele>
        <time>2020-05-24T13:49:57Z</time>
      </trkpt>
      <trkpt lat="45.95076" lon="3.69644">
        <ele>975.2</ele>
        <time>2020-05-24T13:50:11Z</time>
      </trkpt>
      <trkpt lat="45.95075" lon="3.69642">
        <ele>974.76</ele>
        <time>2020-05-24T13:50:36Z</time>
      </trkpt>
      <trkpt lat="45.9508" lon="3.69637">
        <ele>975.66</ele>
        <time>2020-05-24T13:50:59Z</time>
      </trkpt>
      <trkpt lat="45.95082" lon="3.69629">
        <ele>976.66</ele>
        <time>2020-05-24T13:51:27Z</time>
      </trkpt>
      <trkpt lat="45.95089" lon="3.69606">
        <ele>979.67</ele>
        <time>2020-05-24T13:51:45Z</time>
      </trkpt>
      <trkpt lat="45.95094" lon="3.69586">
        <ele>982.32</ele>
        <time>2020-05-24T13:52:06Z</time>
      </trkpt>
      <trkpt lat="45.95094" lon="3.6958">
        <ele>982.14</ele>
        <time>2020-05-24T13:52:12Z</time>
      </trkpt>
      <trkpt lat="45.95098" lon="3.69566">
        <ele>983.2</ele>
        <time>2020-05-24T13:52:27Z</time>
      </trkpt>
      <trkpt lat="45.95098" lon="3.69561">
        <ele>983.48</ele>
        <time>2020-05-24T13:52:31Z</time>
      </trkpt>
      <trkpt lat="45.95107" lon="3.69539">
        <ele>984.22</ele>
        <time>2020-05-24T13:52:47Z</time>
      </trkpt>
      <trkpt lat="45.95107" lon="3.69537">
        <ele>984.05</ele>
        <time>2020-05-24T13:52:48Z</time>
      </trkpt>
      <trkpt lat="45.95113" lon="3.69513">
        <ele>984.16</ele>
        <time>2020-05-24T13:53:00Z</time>
      </trkpt>
      <trkpt lat="45.95115" lon="3.69505">
        <ele>984.45</ele>
        <time>2020-05-24T13:53:05Z</time>
      </trkpt>
      <trkpt lat="45.95114" lon="3.69486">
        <ele>984.98</ele>
        <time>2020-05-24T13:53:19Z</time>
      </trkpt>
      <trkpt lat="45.95114" lon="3.69484">
        <ele>985.01</ele>
        <time>2020-05-24T13:53:20Z</time>
      </trkpt>
      <trkpt lat="45.95114" lon="3.69462">
        <ele>985.27</ele>
        <time>2020-05-24T13:53:37Z</time>
      </trkpt>
      <trkpt lat="45.95123" lon="3.6943">
        <ele>986.78</ele>
        <time>2020-05-24T13:53:58Z</time>
      </trkpt>
      <trkpt lat="45.95137" lon="3.69428">
        <ele>987.97</ele>
        <time>2020-05-24T13:54:13Z</time>
      </trkpt>
      <trkpt lat="45.95149" lon="3.69434">
        <ele>989.86</ele>
        <time>2020-05-24T13:54:36Z</time>
      </trkpt>
      <trkpt lat="45.9517" lon="3.69438">
        <ele>991.53</ele>
        <time>2020-05-24T13:54:58Z</time>
      </trkpt>
      <trkpt lat="45.95189" lon="3.69442">
        <ele>993.42</ele>
        <time>2020-05-24T13:55:18Z</time>
      </trkpt>
      <trkpt lat="45.95191" lon="3.69443">
        <ele>993.34</ele>
        <time>2020-05-24T13:55:19Z</time>
      </trkpt>
      <trkpt lat="45.95219" lon="3.6945">
        <ele>994.43</ele>
        <time>2020-05-24T13:55:42Z</time>
      </trkpt>
      <trkpt lat="45.95242" lon="3.69457">
        <ele>995.62</ele>
        <time>2020-05-24T13:56:04Z</time>
      </trkpt>
      <trkpt lat="45.95266" lon="3.69457">
        <ele>995.86</ele>
        <time>2020-05-24T13:56:25Z</time>
      </trkpt>
      <trkpt lat="45.95287" lon="3.69457">
        <ele>996.38</ele>
        <time>2020-05-24T13:56:43Z</time>
      </trkpt>
      <trkpt lat="45.9531" lon="3.69463">
        <ele>995.19</ele>
        <time>2020-05-24T13:57:03Z</time>
      </trkpt>
      <trkpt lat="45.95334" lon="3.69466">
        <ele>995.12</ele>
        <time>2020-05-24T13:57:20Z</time>
      </trkpt>
      <trkpt lat="45.95353" lon="3.6946">
        <ele>994.65</ele>
        <time>2020-05-24T13:57:37Z</time>
      </trkpt>
      <trkpt lat="45.95364" lon="3.69456">
        <ele>994.03</ele>
        <time>2020-05-24T13:57:50Z</time>
      </trkpt>
      <trkpt lat="45.95368" lon="3.69456">
        <ele>994</ele>
        <time>2020-05-24T13:57:54Z</time>
      </trkpt>
      <trkpt lat="45.95388" lon="3.69455">
        <ele>993.84</ele>
        <time>2020-05-24T13:58:14Z</time>
      </trkpt>
      <trkpt lat="45.95417" lon="3.69458">
        <ele>993.23</ele>
        <time>2020-05-24T13:58:35Z</time>
      </trkpt>
      <trkpt lat="45.95438" lon="3.69457">
        <ele>992.79</ele>
        <time>2020-05-24T13:58:52Z</time>
      </trkpt>
      <trkpt lat="45.95457" lon="3.69451">
        <ele>991.97</ele>
        <time>2020-05-24T13:59:08Z</time>
      </trkpt>
      <trkpt lat="45.95479" lon="3.69444">
        <ele>991.25</ele>
        <time>2020-05-24T13:59:30Z</time>
      </trkpt>
      <trkpt lat="45.95496" lon="3.69439">
        <ele>989.12</ele>
        <time>2020-05-24T13:59:50Z</time>
      </trkpt>
      <trkpt lat="45.95521" lon="3.69428">
        <ele>986.42</ele>
        <time>2020-05-24T14:00:17Z</time>
      </trkpt>
      <trkpt lat="45.95545" lon="3.69424">
        <ele>983.86</ele>
        <time>2020-05-24T14:00:40Z</time>
      </trkpt>
      <trkpt lat="45.95567" lon="3.69418">
        <ele>981.81</ele>
        <time>2020-05-24T14:01:03Z</time>
      </trkpt>
      <trkpt lat="45.95575" lon="3.69416">
        <ele>980.97</ele>
        <time>2020-05-24T14:01:11Z</time>
      </trkpt>
      <trkpt lat="45.95603" lon="3.69405">
        <ele>978.15</ele>
        <time>2020-05-24T14:01:37Z</time>
      </trkpt>
      <trkpt lat="45.95611" lon="3.69402">
        <ele>976.86</ele>
        <time>2020-05-24T14:01:46Z</time>
      </trkpt>
      <trkpt lat="45.95632" lon="3.69399">
        <ele>973.46</ele>
        <time>2020-05-24T14:02:07Z</time>
      </trkpt>
      <trkpt lat="45.9564" lon="3.69399">
        <ele>973.26</ele>
        <time>2020-05-24T14:02:14Z</time>
      </trkpt>
      <trkpt lat="45.95645" lon="3.69399">
        <ele>973.3</ele>
        <time>2020-05-24T14:02:23Z</time>
      </trkpt>
      <trkpt lat="45.95647" lon="3.69403">
        <ele>973.09</ele>
        <time>2020-05-24T14:02:49Z</time>
      </trkpt>
      <trkpt lat="45.95655" lon="3.69409">
        <ele>973.79</ele>
        <time>2020-05-24T14:03:29Z</time>
      </trkpt>
      <trkpt lat="45.95674" lon="3.69412">
        <ele>975.3</ele>
        <time>2020-05-24T14:03:49Z</time>
      </trkpt>
      <trkpt lat="45.95682" lon="3.69414">
        <ele>976.01</ele>
        <time>2020-05-24T14:03:57Z</time>
      </trkpt>
      <trkpt lat="45.95695" lon="3.69416">
        <ele>975.68</ele>
        <time>2020-05-24T14:04:09Z</time>
      </trkpt>
      <trkpt lat="45.95698" lon="3.69419">
        <ele>975.49</ele>
        <time>2020-05-24T14:04:12Z</time>
      </trkpt>
      <trkpt lat="45.95706" lon="3.69421">
        <ele>975.24</ele>
        <time>2020-05-24T14:04:19Z</time>
      </trkpt>
      <trkpt lat="45.95728" lon="3.69423">
        <ele>974.62</ele>
        <time>2020-05-24T14:04:37Z</time>
      </trkpt>
      <trkpt lat="45.95752" lon="3.69423">
        <ele>974.7</ele>
        <time>2020-05-24T14:04:56Z</time>
      </trkpt>
      <trkpt lat="45.95768" lon="3.69419">
        <ele>974.55</ele>
        <time>2020-05-24T14:05:08Z</time>
      </trkpt>
      <trkpt lat="45.95785" lon="3.69412">
        <ele>974.42</ele>
        <time>2020-05-24T14:05:22Z</time>
      </trkpt>
      <trkpt lat="45.95815" lon="3.69403">
        <ele>973.84</ele>
        <time>2020-05-24T14:05:49Z</time>
      </trkpt>
      <trkpt lat="45.95831" lon="3.69399">
        <ele>973.44</ele>
        <time>2020-05-24T14:06:00Z</time>
      </trkpt>
      <trkpt lat="45.95851" lon="3.6939">
        <ele>972.38</ele>
        <time>2020-05-24T14:06:20Z</time>
      </trkpt>
      <trkpt lat="45.95874" lon="3.69379">
        <ele>971.59</ele>
        <time>2020-05-24T14:06:42Z</time>
      </trkpt>
      <trkpt lat="45.9589" lon="3.69367">
        <ele>970.74</ele>
        <time>2020-05-24T14:06:56Z</time>
      </trkpt>
      <trkpt lat="45.95891" lon="3.69366">
        <ele>970.71</ele>
        <time>2020-05-24T14:06:57Z</time>
      </trkpt>
      <trkpt lat="45.95901" lon="3.69357">
        <ele>969.8</ele>
        <time>2020-05-24T14:07:09Z</time>
      </trkpt>
      <trkpt lat="45.95922" lon="3.6934">
        <ele>969.1</ele>
        <time>2020-05-24T14:07:29Z</time>
      </trkpt>
      <trkpt lat="45.95937" lon="3.69328">
        <ele>967.85</ele>
        <time>2020-05-24T14:07:47Z</time>
      </trkpt>
      <trkpt lat="45.95959" lon="3.69306">
        <ele>966.85</ele>
        <time>2020-05-24T14:08:09Z</time>
      </trkpt>
      <trkpt lat="45.95983" lon="3.69293">
        <ele>966.21</ele>
        <time>2020-05-24T14:08:28Z</time>
      </trkpt>
      <trkpt lat="45.95999" lon="3.69289">
        <ele>967.13</ele>
        <time>2020-05-24T14:08:42Z</time>
      </trkpt>
      <trkpt lat="45.96014" lon="3.69288">
        <ele>965.65</ele>
        <time>2020-05-24T14:08:57Z</time>
      </trkpt>
      <trkpt lat="45.96016" lon="3.69288">
        <ele>965.52</ele>
        <time>2020-05-24T14:08:59Z</time>
      </trkpt>
      <trkpt lat="45.96019" lon="3.69287">
        <ele>965.67</ele>
        <time>2020-05-24T14:09:01Z</time>
      </trkpt>
      <trkpt lat="45.96049" lon="3.69284">
        <ele>965.03</ele>
        <time>2020-05-24T14:09:25Z</time>
      </trkpt>
      <trkpt lat="45.96071" lon="3.69291">
        <ele>965.04</ele>
        <time>2020-05-24T14:09:45Z</time>
      </trkpt>
      <trkpt lat="45.96074" lon="3.69295">
        <ele>965.05</ele>
        <time>2020-05-24T14:09:48Z</time>
      </trkpt>
      <trkpt lat="45.96098" lon="3.69316">
        <ele>963.76</ele>
        <time>2020-05-24T14:10:11Z</time>
      </trkpt>
      <trkpt lat="45.96113" lon="3.69333">
        <ele>963.25</ele>
        <time>2020-05-24T14:10:26Z</time>
      </trkpt>
      <trkpt lat="45.96137" lon="3.69356">
        <ele>962.27</ele>
        <time>2020-05-24T14:10:50Z</time>
      </trkpt>
      <trkpt lat="45.96151" lon="3.69369">
        <ele>961.95</ele>
        <time>2020-05-24T14:11:01Z</time>
      </trkpt>
      <trkpt lat="45.9616" lon="3.69376">
        <ele>961.61</ele>
        <time>2020-05-24T14:11:09Z</time>
      </trkpt>
      <trkpt lat="45.96165" lon="3.69378">
        <ele>961.31</ele>
        <time>2020-05-24T14:11:13Z</time>
      </trkpt>
      <trkpt lat="45.96171" lon="3.69383">
        <ele>961.37</ele>
        <time>2020-05-24T14:11:18Z</time>
      </trkpt>
      <trkpt lat="45.96181" lon="3.69393">
        <ele>961.23</ele>
        <time>2020-05-24T14:11:29Z</time>
      </trkpt>
      <trkpt lat="45.96184" lon="3.69397">
        <ele>961.28</ele>
        <time>2020-05-24T14:11:43Z</time>
      </trkpt>
      <trkpt lat="45.96197" lon="3.69411">
        <ele>961.35</ele>
        <time>2020-05-24T14:11:58Z</time>
      </trkpt>
      <trkpt lat="45.96197" lon="3.69415">
        <ele>960.67</ele>
        <time>2020-05-24T14:12:02Z</time>
      </trkpt>
      <trkpt lat="45.96196" lon="3.69422">
        <ele>959.59</ele>
        <time>2020-05-24T14:12:06Z</time>
      </trkpt>
      <trkpt lat="45.96196" lon="3.69434">
        <ele>959.97</ele>
        <time>2020-05-24T14:12:13Z</time>
      </trkpt>
      <trkpt lat="45.962" lon="3.69448">
        <ele>958.86</ele>
        <time>2020-05-24T14:12:23Z</time>
      </trkpt>
      <trkpt lat="45.96203" lon="3.69464">
        <ele>958.84</ele>
        <time>2020-05-24T14:12:40Z</time>
      </trkpt>
      <trkpt lat="45.96207" lon="3.69464">
        <ele>958.65</ele>
        <time>2020-05-24T14:13:02Z</time>
      </trkpt>
      <trkpt lat="45.96204" lon="3.69465">
        <ele>958.55</ele>
        <time>2020-05-24T14:13:18Z</time>
      </trkpt>
      <trkpt lat="45.96202" lon="3.69465">
        <ele>958.53</ele>
        <time>2020-05-24T14:13:43Z</time>
      </trkpt>
      <trkpt lat="45.96199" lon="3.69467">
        <ele>958.47</ele>
        <time>2020-05-24T14:13:59Z</time>
      </trkpt>
      <trkpt lat="45.962" lon="3.69464">
        <ele>958.73</ele>
        <time>2020-05-24T14:14:36Z</time>
      </trkpt>
      <trkpt lat="45.96203" lon="3.69464">
        <ele>959.46</ele>
        <time>2020-05-24T14:15:05Z</time>
      </trkpt>
      <trkpt lat="45.96206" lon="3.69464">
        <ele>959.53</ele>
        <time>2020-05-24T14:15:54Z</time>
      </trkpt>
    </trkseg>
  </trk>
</gpx>